<?xml version="1.0" encoding="UTF-8" standalone="no" ?>
<gpx xmlns="http://www.topografix.com/GPX/1/1" xmlns:xsi="http://www.w3.org/2001/XMLSchema-instance" xsi:schemaLocation="http://www.topografix.com/GPX/1/1 http://www.topografix.com/GPX/1/1/gpx.xsd" version="1.1" creator="VisuGPX - https://www.visugpx.com">
  <metadata>
    <name>VTT Wintzenheim - 3epis - wettstein 40km</name>
    <desc><![CDATA[Superbe parcours trouvé sur utagawa, physique, technique et ludique à souhait :-)]]></desc>
  </metadata>
  <trk>
    <name><![CDATA[06042011(duration033128) on GPSies.com]]></name>
    <trkseg>
      <trkpt lat="48.07562" lon="7.26502">
        <ele>258</ele>
        <time>2011-06-06T09:42:39Z</time>
      </trkpt>
      <trkpt lat="48.07565" lon="7.26503">
        <ele>258</ele>
        <time>2011-06-06T09:42:41Z</time>
      </trkpt>
      <trkpt lat="48.07571" lon="7.26505">
        <ele>257</ele>
        <time>2011-06-06T09:42:43Z</time>
      </trkpt>
      <trkpt lat="48.07581" lon="7.26525">
        <ele>258</ele>
        <time>2011-06-06T09:42:50Z</time>
      </trkpt>
      <trkpt lat="48.07576" lon="7.26552">
        <ele>260</ele>
        <time>2011-06-06T09:42:57Z</time>
      </trkpt>
      <trkpt lat="48.07577" lon="7.26578">
        <ele>259</ele>
        <time>2011-06-06T09:43:04Z</time>
      </trkpt>
      <trkpt lat="48.07578" lon="7.26585">
        <ele>260</ele>
        <time>2011-06-06T09:43:06Z</time>
      </trkpt>
      <trkpt lat="48.07596" lon="7.26632">
        <ele>258</ele>
        <time>2011-06-06T09:43:20Z</time>
      </trkpt>
      <trkpt lat="48.07621" lon="7.26689">
        <ele>258</ele>
        <time>2011-06-06T09:43:39Z</time>
      </trkpt>
      <trkpt lat="48.07649" lon="7.26757">
        <ele>254</ele>
        <time>2011-06-06T09:44:00Z</time>
      </trkpt>
      <trkpt lat="48.07655" lon="7.26771">
        <ele>255</ele>
        <time>2011-06-06T09:44:05Z</time>
      </trkpt>
      <trkpt lat="48.07672" lon="7.26782">
        <ele>248</ele>
        <time>2011-06-06T09:44:12Z</time>
      </trkpt>
      <trkpt lat="48.07678" lon="7.26781">
        <ele>248</ele>
        <time>2011-06-06T09:44:14Z</time>
      </trkpt>
      <trkpt lat="48.07713" lon="7.26776">
        <ele>247</ele>
        <time>2011-06-06T09:44:29Z</time>
      </trkpt>
      <trkpt lat="48.07716" lon="7.26776">
        <ele>247</ele>
        <time>2011-06-06T09:44:30Z</time>
      </trkpt>
      <trkpt lat="48.07719" lon="7.26776">
        <ele>247</ele>
        <time>2011-06-06T09:44:31Z</time>
      </trkpt>
      <trkpt lat="48.07731" lon="7.26773">
        <ele>247</ele>
        <time>2011-06-06T09:44:36Z</time>
      </trkpt>
      <trkpt lat="48.07754" lon="7.26767">
        <ele>247</ele>
        <time>2011-06-06T09:44:45Z</time>
      </trkpt>
      <trkpt lat="48.07776" lon="7.26763">
        <ele>247</ele>
        <time>2011-06-06T09:44:54Z</time>
      </trkpt>
      <trkpt lat="48.07794" lon="7.26756">
        <ele>247</ele>
        <time>2011-06-06T09:45:02Z</time>
      </trkpt>
      <trkpt lat="48.07799" lon="7.26743">
        <ele>248</ele>
        <time>2011-06-06T09:45:05Z</time>
      </trkpt>
      <trkpt lat="48.07808" lon="7.26683">
        <ele>248</ele>
        <time>2011-06-06T09:45:22Z</time>
      </trkpt>
      <trkpt lat="48.07817" lon="7.26675">
        <ele>248</ele>
        <time>2011-06-06T09:45:26Z</time>
      </trkpt>
      <trkpt lat="48.07827" lon="7.26691">
        <ele>248</ele>
        <time>2011-06-06T09:45:32Z</time>
      </trkpt>
      <trkpt lat="48.07831" lon="7.26695">
        <ele>248</ele>
        <time>2011-06-06T09:45:34Z</time>
      </trkpt>
      <trkpt lat="48.0784" lon="7.26703">
        <ele>248</ele>
        <time>2011-06-06T09:45:38Z</time>
      </trkpt>
      <trkpt lat="48.07858" lon="7.26731">
        <ele>248</ele>
        <time>2011-06-06T09:45:49Z</time>
      </trkpt>
      <trkpt lat="48.07875" lon="7.2679">
        <ele>247</ele>
        <time>2011-06-06T09:46:06Z</time>
      </trkpt>
      <trkpt lat="48.07884" lon="7.26827">
        <ele>246</ele>
        <time>2011-06-06T09:46:16Z</time>
      </trkpt>
      <trkpt lat="48.07889" lon="7.26846">
        <ele>245</ele>
        <time>2011-06-06T09:46:22Z</time>
      </trkpt>
      <trkpt lat="48.07894" lon="7.26858">
        <ele>245</ele>
        <time>2011-06-06T09:46:25Z</time>
      </trkpt>
      <trkpt lat="48.07916" lon="7.26876">
        <ele>245</ele>
        <time>2011-06-06T09:46:35Z</time>
      </trkpt>
      <trkpt lat="48.07926" lon="7.26875">
        <ele>244</ele>
        <time>2011-06-06T09:46:39Z</time>
      </trkpt>
      <trkpt lat="48.07963" lon="7.26866">
        <ele>245</ele>
        <time>2011-06-06T09:46:55Z</time>
      </trkpt>
      <trkpt lat="48.0799" lon="7.26876">
        <ele>244</ele>
        <time>2011-06-06T09:47:05Z</time>
      </trkpt>
      <trkpt lat="48.07994" lon="7.26881">
        <ele>244</ele>
        <time>2011-06-06T09:47:08Z</time>
      </trkpt>
      <trkpt lat="48.08022" lon="7.26921">
        <ele>243</ele>
        <time>2011-06-06T09:47:23Z</time>
      </trkpt>
      <trkpt lat="48.08024" lon="7.26924">
        <ele>243</ele>
        <time>2011-06-06T09:47:24Z</time>
      </trkpt>
      <trkpt lat="48.08026" lon="7.26926">
        <ele>243</ele>
        <time>2011-06-06T09:47:25Z</time>
      </trkpt>
      <trkpt lat="48.08028" lon="7.26921">
        <ele>243</ele>
        <time>2011-06-06T09:47:27Z</time>
      </trkpt>
      <trkpt lat="48.08045" lon="7.26914">
        <ele>245</ele>
        <time>2011-06-06T09:47:34Z</time>
      </trkpt>
      <trkpt lat="48.08071" lon="7.26904">
        <ele>245</ele>
        <time>2011-06-06T09:47:45Z</time>
      </trkpt>
      <trkpt lat="48.08101" lon="7.2689">
        <ele>245</ele>
        <time>2011-06-06T09:47:57Z</time>
      </trkpt>
      <trkpt lat="48.0814" lon="7.26859">
        <ele>245</ele>
        <time>2011-06-06T09:48:15Z</time>
      </trkpt>
      <trkpt lat="48.08198" lon="7.2681">
        <ele>244</ele>
        <time>2011-06-06T09:48:41Z</time>
      </trkpt>
      <trkpt lat="48.08224" lon="7.26793">
        <ele>243</ele>
        <time>2011-06-06T09:48:53Z</time>
      </trkpt>
      <trkpt lat="48.08243" lon="7.26789">
        <ele>243</ele>
        <time>2011-06-06T09:49:00Z</time>
      </trkpt>
      <trkpt lat="48.08247" lon="7.26793">
        <ele>243</ele>
        <time>2011-06-06T09:49:02Z</time>
      </trkpt>
      <trkpt lat="48.08282" lon="7.26816">
        <ele>242</ele>
        <time>2011-06-06T09:49:18Z</time>
      </trkpt>
      <trkpt lat="48.08322" lon="7.26838">
        <ele>243</ele>
        <time>2011-06-06T09:49:35Z</time>
      </trkpt>
      <trkpt lat="48.08351" lon="7.26872">
        <ele>242</ele>
        <time>2011-06-06T09:49:50Z</time>
      </trkpt>
      <trkpt lat="48.08377" lon="7.26938">
        <ele>242</ele>
        <time>2011-06-06T09:50:10Z</time>
      </trkpt>
      <trkpt lat="48.08394" lon="7.2699">
        <ele>241</ele>
        <time>2011-06-06T09:50:25Z</time>
      </trkpt>
      <trkpt lat="48.08415" lon="7.27024">
        <ele>241</ele>
        <time>2011-06-06T09:50:38Z</time>
      </trkpt>
      <trkpt lat="48.08433" lon="7.2703">
        <ele>240</ele>
        <time>2011-06-06T09:50:45Z</time>
      </trkpt>
      <trkpt lat="48.08496" lon="7.27028">
        <ele>240</ele>
        <time>2011-06-06T09:51:10Z</time>
      </trkpt>
      <trkpt lat="48.08538" lon="7.27039">
        <ele>240</ele>
        <time>2011-06-06T09:51:28Z</time>
      </trkpt>
      <trkpt lat="48.08568" lon="7.27049">
        <ele>240</ele>
        <time>2011-06-06T09:51:40Z</time>
      </trkpt>
      <trkpt lat="48.08584" lon="7.27042">
        <ele>248</ele>
        <time>2011-06-06T09:51:46Z</time>
      </trkpt>
      <trkpt lat="48.08587" lon="7.27019">
        <ele>248</ele>
        <time>2011-06-06T09:51:53Z</time>
      </trkpt>
      <trkpt lat="48.08589" lon="7.26925">
        <ele>249</ele>
        <time>2011-06-06T09:52:18Z</time>
      </trkpt>
      <trkpt lat="48.08588" lon="7.26846">
        <ele>251</ele>
        <time>2011-06-06T09:52:39Z</time>
      </trkpt>
      <trkpt lat="48.08581" lon="7.26755">
        <ele>243</ele>
        <time>2011-06-06T09:53:03Z</time>
      </trkpt>
      <trkpt lat="48.08575" lon="7.26662">
        <ele>243</ele>
        <time>2011-06-06T09:53:28Z</time>
      </trkpt>
      <trkpt lat="48.08566" lon="7.26597">
        <ele>244</ele>
        <time>2011-06-06T09:53:46Z</time>
      </trkpt>
      <trkpt lat="48.08545" lon="7.2652">
        <ele>244</ele>
        <time>2011-06-06T09:54:08Z</time>
      </trkpt>
      <trkpt lat="48.08527" lon="7.26463">
        <ele>244</ele>
        <time>2011-06-06T09:54:25Z</time>
      </trkpt>
      <trkpt lat="48.08499" lon="7.26367">
        <ele>244</ele>
        <time>2011-06-06T09:54:53Z</time>
      </trkpt>
      <trkpt lat="48.08476" lon="7.26289">
        <ele>245</ele>
        <time>2011-06-06T09:55:16Z</time>
      </trkpt>
      <trkpt lat="48.08454" lon="7.26219">
        <ele>246</ele>
        <time>2011-06-06T09:55:37Z</time>
      </trkpt>
      <trkpt lat="48.08435" lon="7.26155">
        <ele>249</ele>
        <time>2011-06-06T09:55:55Z</time>
      </trkpt>
      <trkpt lat="48.08418" lon="7.26093">
        <ele>251</ele>
        <time>2011-06-06T09:56:13Z</time>
      </trkpt>
      <trkpt lat="48.08404" lon="7.26016">
        <ele>251</ele>
        <time>2011-06-06T09:56:35Z</time>
      </trkpt>
      <trkpt lat="48.08394" lon="7.25958">
        <ele>252</ele>
        <time>2011-06-06T09:56:51Z</time>
      </trkpt>
      <trkpt lat="48.08388" lon="7.25903">
        <ele>254</ele>
        <time>2011-06-06T09:57:06Z</time>
      </trkpt>
      <trkpt lat="48.08386" lon="7.25847">
        <ele>255</ele>
        <time>2011-06-06T09:57:21Z</time>
      </trkpt>
      <trkpt lat="48.08383" lon="7.25829">
        <ele>257</ele>
        <time>2011-06-06T09:57:25Z</time>
      </trkpt>
      <trkpt lat="48.0837" lon="7.25792">
        <ele>257</ele>
        <time>2011-06-06T09:57:37Z</time>
      </trkpt>
      <trkpt lat="48.0836" lon="7.25767">
        <ele>258</ele>
        <time>2011-06-06T09:57:44Z</time>
      </trkpt>
      <trkpt lat="48.08349" lon="7.25748">
        <ele>261</ele>
        <time>2011-06-06T09:57:51Z</time>
      </trkpt>
      <trkpt lat="48.08331" lon="7.25727">
        <ele>259</ele>
        <time>2011-06-06T09:58:01Z</time>
      </trkpt>
      <trkpt lat="48.08316" lon="7.25708">
        <ele>259</ele>
        <time>2011-06-06T09:58:08Z</time>
      </trkpt>
      <trkpt lat="48.08292" lon="7.25674">
        <ele>259</ele>
        <time>2011-06-06T09:58:21Z</time>
      </trkpt>
      <trkpt lat="48.08271" lon="7.25639">
        <ele>262</ele>
        <time>2011-06-06T09:58:34Z</time>
      </trkpt>
      <trkpt lat="48.08249" lon="7.25595">
        <ele>260</ele>
        <time>2011-06-06T09:58:49Z</time>
      </trkpt>
      <trkpt lat="48.08225" lon="7.25544">
        <ele>261</ele>
        <time>2011-06-06T09:59:05Z</time>
      </trkpt>
      <trkpt lat="48.08212" lon="7.25511">
        <ele>261</ele>
        <time>2011-06-06T09:59:16Z</time>
      </trkpt>
      <trkpt lat="48.082" lon="7.25452">
        <ele>263</ele>
        <time>2011-06-06T09:59:32Z</time>
      </trkpt>
      <trkpt lat="48.08185" lon="7.25384">
        <ele>265</ele>
        <time>2011-06-06T09:59:51Z</time>
      </trkpt>
      <trkpt lat="48.08165" lon="7.25298">
        <ele>262</ele>
        <time>2011-06-06T10:00:16Z</time>
      </trkpt>
      <trkpt lat="48.08153" lon="7.25245">
        <ele>268</ele>
        <time>2011-06-06T10:00:31Z</time>
      </trkpt>
      <trkpt lat="48.08138" lon="7.2519">
        <ele>268</ele>
        <time>2011-06-06T10:00:46Z</time>
      </trkpt>
      <trkpt lat="48.08123" lon="7.25133">
        <ele>271</ele>
        <time>2011-06-06T10:01:03Z</time>
      </trkpt>
      <trkpt lat="48.08109" lon="7.25064">
        <ele>274</ele>
        <time>2011-06-06T10:01:22Z</time>
      </trkpt>
      <trkpt lat="48.08095" lon="7.25017">
        <ele>273</ele>
        <time>2011-06-06T10:01:36Z</time>
      </trkpt>
      <trkpt lat="48.08086" lon="7.2499">
        <ele>274</ele>
        <time>2011-06-06T10:01:44Z</time>
      </trkpt>
      <trkpt lat="48.08077" lon="7.24962">
        <ele>268</ele>
        <time>2011-06-06T10:01:52Z</time>
      </trkpt>
      <trkpt lat="48.08054" lon="7.24927">
        <ele>269</ele>
        <time>2011-06-06T10:02:05Z</time>
      </trkpt>
      <trkpt lat="48.08018" lon="7.24885">
        <ele>272</ele>
        <time>2011-06-06T10:02:24Z</time>
      </trkpt>
      <trkpt lat="48.07994" lon="7.24841">
        <ele>268</ele>
        <time>2011-06-06T10:02:39Z</time>
      </trkpt>
      <trkpt lat="48.07968" lon="7.24776">
        <ele>272</ele>
        <time>2011-06-06T10:02:59Z</time>
      </trkpt>
      <trkpt lat="48.07946" lon="7.24714">
        <ele>276</ele>
        <time>2011-06-06T10:03:18Z</time>
      </trkpt>
      <trkpt lat="48.07934" lon="7.2468">
        <ele>274</ele>
        <time>2011-06-06T10:03:28Z</time>
      </trkpt>
      <trkpt lat="48.07913" lon="7.24634">
        <ele>268</ele>
        <time>2011-06-06T10:03:43Z</time>
      </trkpt>
      <trkpt lat="48.07902" lon="7.24608">
        <ele>269</ele>
        <time>2011-06-06T10:03:51Z</time>
      </trkpt>
      <trkpt lat="48.07898" lon="7.24581">
        <ele>273</ele>
        <time>2011-06-06T10:03:59Z</time>
      </trkpt>
      <trkpt lat="48.07891" lon="7.2454">
        <ele>274</ele>
        <time>2011-06-06T10:04:10Z</time>
      </trkpt>
      <trkpt lat="48.07884" lon="7.24497">
        <ele>279</ele>
        <time>2011-06-06T10:04:22Z</time>
      </trkpt>
      <trkpt lat="48.07871" lon="7.24462">
        <ele>279</ele>
        <time>2011-06-06T10:04:33Z</time>
      </trkpt>
      <trkpt lat="48.07858" lon="7.24426">
        <ele>279</ele>
        <time>2011-06-06T10:04:43Z</time>
      </trkpt>
      <trkpt lat="48.07847" lon="7.24394">
        <ele>283</ele>
        <time>2011-06-06T10:04:53Z</time>
      </trkpt>
      <trkpt lat="48.07837" lon="7.24365">
        <ele>284</ele>
        <time>2011-06-06T10:05:02Z</time>
      </trkpt>
      <trkpt lat="48.07827" lon="7.24333">
        <ele>282</ele>
        <time>2011-06-06T10:05:11Z</time>
      </trkpt>
      <trkpt lat="48.07825" lon="7.243">
        <ele>283</ele>
        <time>2011-06-06T10:05:20Z</time>
      </trkpt>
      <trkpt lat="48.07831" lon="7.24267">
        <ele>285</ele>
        <time>2011-06-06T10:05:29Z</time>
      </trkpt>
      <trkpt lat="48.07837" lon="7.24238">
        <ele>292</ele>
        <time>2011-06-06T10:05:37Z</time>
      </trkpt>
      <trkpt lat="48.07839" lon="7.24203">
        <ele>297</ele>
        <time>2011-06-06T10:05:47Z</time>
      </trkpt>
      <trkpt lat="48.07831" lon="7.2419">
        <ele>292</ele>
        <time>2011-06-06T10:05:52Z</time>
      </trkpt>
      <trkpt lat="48.07812" lon="7.24183">
        <ele>292</ele>
        <time>2011-06-06T10:06:00Z</time>
      </trkpt>
      <trkpt lat="48.0778" lon="7.24171">
        <ele>291</ele>
        <time>2011-06-06T10:06:13Z</time>
      </trkpt>
      <trkpt lat="48.07741" lon="7.24158">
        <ele>292</ele>
        <time>2011-06-06T10:06:29Z</time>
      </trkpt>
      <trkpt lat="48.07716" lon="7.24144">
        <ele>293</ele>
        <time>2011-06-06T10:06:39Z</time>
      </trkpt>
      <trkpt lat="48.0769" lon="7.24122">
        <ele>293</ele>
        <time>2011-06-06T10:06:52Z</time>
      </trkpt>
      <trkpt lat="48.07677" lon="7.24114">
        <ele>294</ele>
        <time>2011-06-06T10:06:57Z</time>
      </trkpt>
      <trkpt lat="48.07667" lon="7.24111">
        <ele>294</ele>
        <time>2011-06-06T10:07:01Z</time>
      </trkpt>
      <trkpt lat="48.07634" lon="7.24109">
        <ele>291</ele>
        <time>2011-06-06T10:07:14Z</time>
      </trkpt>
      <trkpt lat="48.0759" lon="7.24099">
        <ele>291</ele>
        <time>2011-06-06T10:07:32Z</time>
      </trkpt>
      <trkpt lat="48.07582" lon="7.24094">
        <ele>290</ele>
        <time>2011-06-06T10:07:36Z</time>
      </trkpt>
      <trkpt lat="48.07562" lon="7.24079">
        <ele>293</ele>
        <time>2011-06-06T10:07:44Z</time>
      </trkpt>
      <trkpt lat="48.07535" lon="7.24035">
        <ele>294</ele>
        <time>2011-06-06T10:08:00Z</time>
      </trkpt>
      <trkpt lat="48.07515" lon="7.24006">
        <ele>294</ele>
        <time>2011-06-06T10:08:12Z</time>
      </trkpt>
      <trkpt lat="48.07498" lon="7.23971">
        <ele>295</ele>
        <time>2011-06-06T10:08:23Z</time>
      </trkpt>
      <trkpt lat="48.07482" lon="7.23942">
        <ele>297</ele>
        <time>2011-06-06T10:08:33Z</time>
      </trkpt>
      <trkpt lat="48.07457" lon="7.23923">
        <ele>295</ele>
        <time>2011-06-06T10:08:45Z</time>
      </trkpt>
      <trkpt lat="48.07441" lon="7.23903">
        <ele>299</ele>
        <time>2011-06-06T10:08:53Z</time>
      </trkpt>
      <trkpt lat="48.0743" lon="7.2388">
        <ele>300</ele>
        <time>2011-06-06T10:09:01Z</time>
      </trkpt>
      <trkpt lat="48.07418" lon="7.23834">
        <ele>297</ele>
        <time>2011-06-06T10:09:14Z</time>
      </trkpt>
      <trkpt lat="48.07417" lon="7.23828">
        <ele>300</ele>
        <time>2011-06-06T10:09:15Z</time>
      </trkpt>
      <trkpt lat="48.07408" lon="7.23806">
        <ele>297</ele>
        <time>2011-06-06T10:09:22Z</time>
      </trkpt>
      <trkpt lat="48.07402" lon="7.23796">
        <ele>297</ele>
        <time>2011-06-06T10:09:26Z</time>
      </trkpt>
      <trkpt lat="48.07396" lon="7.23768">
        <ele>299</ele>
        <time>2011-06-06T10:09:34Z</time>
      </trkpt>
      <trkpt lat="48.07387" lon="7.23744">
        <ele>301</ele>
        <time>2011-06-06T10:09:41Z</time>
      </trkpt>
      <trkpt lat="48.07378" lon="7.23723">
        <ele>300</ele>
        <time>2011-06-06T10:09:48Z</time>
      </trkpt>
      <trkpt lat="48.07377" lon="7.23696">
        <ele>301</ele>
        <time>2011-06-06T10:09:55Z</time>
      </trkpt>
      <trkpt lat="48.07376" lon="7.23677">
        <ele>301</ele>
        <time>2011-06-06T10:10:00Z</time>
      </trkpt>
      <trkpt lat="48.07376" lon="7.23643">
        <ele>303</ele>
        <time>2011-06-06T10:10:09Z</time>
      </trkpt>
      <trkpt lat="48.07391" lon="7.23597">
        <ele>304</ele>
        <time>2011-06-06T10:10:23Z</time>
      </trkpt>
      <trkpt lat="48.07399" lon="7.23567">
        <ele>305</ele>
        <time>2011-06-06T10:10:31Z</time>
      </trkpt>
      <trkpt lat="48.07393" lon="7.23545">
        <ele>305</ele>
        <time>2011-06-06T10:10:38Z</time>
      </trkpt>
      <trkpt lat="48.0739" lon="7.23542">
        <ele>305</ele>
        <time>2011-06-06T10:10:39Z</time>
      </trkpt>
      <trkpt lat="48.07392" lon="7.23523">
        <ele>306</ele>
        <time>2011-06-06T10:10:44Z</time>
      </trkpt>
      <trkpt lat="48.07412" lon="7.23496">
        <ele>307</ele>
        <time>2011-06-06T10:10:55Z</time>
      </trkpt>
      <trkpt lat="48.07433" lon="7.23482">
        <ele>311</ele>
        <time>2011-06-06T10:11:04Z</time>
      </trkpt>
      <trkpt lat="48.07455" lon="7.2346">
        <ele>313</ele>
        <time>2011-06-06T10:11:15Z</time>
      </trkpt>
      <trkpt lat="48.07469" lon="7.23423">
        <ele>314</ele>
        <time>2011-06-06T10:11:27Z</time>
      </trkpt>
      <trkpt lat="48.0748" lon="7.23385">
        <ele>314</ele>
        <time>2011-06-06T10:11:38Z</time>
      </trkpt>
      <trkpt lat="48.07479" lon="7.23355">
        <ele>314</ele>
        <time>2011-06-06T10:11:46Z</time>
      </trkpt>
      <trkpt lat="48.07482" lon="7.2331">
        <ele>314</ele>
        <time>2011-06-06T10:11:58Z</time>
      </trkpt>
      <trkpt lat="48.07495" lon="7.2328">
        <ele>315</ele>
        <time>2011-06-06T10:12:07Z</time>
      </trkpt>
      <trkpt lat="48.07497" lon="7.23276">
        <ele>315</ele>
        <time>2011-06-06T10:12:09Z</time>
      </trkpt>
      <trkpt lat="48.07491" lon="7.23261">
        <ele>315</ele>
        <time>2011-06-06T10:12:13Z</time>
      </trkpt>
      <trkpt lat="48.07467" lon="7.23235">
        <ele>318</ele>
        <time>2011-06-06T10:12:25Z</time>
      </trkpt>
      <trkpt lat="48.07456" lon="7.23217">
        <ele>319</ele>
        <time>2011-06-06T10:12:32Z</time>
      </trkpt>
      <trkpt lat="48.07445" lon="7.2319">
        <ele>320</ele>
        <time>2011-06-06T10:12:40Z</time>
      </trkpt>
      <trkpt lat="48.07441" lon="7.23159">
        <ele>325</ele>
        <time>2011-06-06T10:12:49Z</time>
      </trkpt>
      <trkpt lat="48.07438" lon="7.23131">
        <ele>326</ele>
        <time>2011-06-06T10:12:56Z</time>
      </trkpt>
      <trkpt lat="48.07429" lon="7.2311">
        <ele>327</ele>
        <time>2011-06-06T10:13:03Z</time>
      </trkpt>
      <trkpt lat="48.07415" lon="7.23107">
        <ele>329</ele>
        <time>2011-06-06T10:13:08Z</time>
      </trkpt>
      <trkpt lat="48.07398" lon="7.2312">
        <ele>329</ele>
        <time>2011-06-06T10:13:16Z</time>
      </trkpt>
      <trkpt lat="48.07387" lon="7.23127">
        <ele>329</ele>
        <time>2011-06-06T10:13:21Z</time>
      </trkpt>
      <trkpt lat="48.0738" lon="7.23119">
        <ele>329</ele>
        <time>2011-06-06T10:13:25Z</time>
      </trkpt>
      <trkpt lat="48.07383" lon="7.23109">
        <ele>330</ele>
        <time>2011-06-06T10:13:28Z</time>
      </trkpt>
      <trkpt lat="48.07396" lon="7.23081">
        <ele>333</ele>
        <time>2011-06-06T10:13:37Z</time>
      </trkpt>
      <trkpt lat="48.07409" lon="7.23054">
        <ele>334</ele>
        <time>2011-06-06T10:13:46Z</time>
      </trkpt>
      <trkpt lat="48.07422" lon="7.23028">
        <ele>333</ele>
        <time>2011-06-06T10:13:54Z</time>
      </trkpt>
      <trkpt lat="48.07418" lon="7.23009">
        <ele>334</ele>
        <time>2011-06-06T10:13:59Z</time>
      </trkpt>
      <trkpt lat="48.07415" lon="7.22986">
        <ele>340</ele>
        <time>2011-06-06T10:14:06Z</time>
      </trkpt>
      <trkpt lat="48.07407" lon="7.22956">
        <ele>346</ele>
        <time>2011-06-06T10:14:15Z</time>
      </trkpt>
      <trkpt lat="48.07401" lon="7.22935">
        <ele>349</ele>
        <time>2011-06-06T10:14:21Z</time>
      </trkpt>
      <trkpt lat="48.07398" lon="7.2292">
        <ele>350</ele>
        <time>2011-06-06T10:14:25Z</time>
      </trkpt>
      <trkpt lat="48.074" lon="7.22902">
        <ele>358</ele>
        <time>2011-06-06T10:14:30Z</time>
      </trkpt>
      <trkpt lat="48.07402" lon="7.22887">
        <ele>360</ele>
        <time>2011-06-06T10:14:34Z</time>
      </trkpt>
      <trkpt lat="48.074" lon="7.22877">
        <ele>362</ele>
        <time>2011-06-06T10:14:37Z</time>
      </trkpt>
      <trkpt lat="48.07391" lon="7.2287">
        <ele>363</ele>
        <time>2011-06-06T10:14:41Z</time>
      </trkpt>
      <trkpt lat="48.07381" lon="7.22869">
        <ele>363</ele>
        <time>2011-06-06T10:14:45Z</time>
      </trkpt>
      <trkpt lat="48.07367" lon="7.22869">
        <ele>364</ele>
        <time>2011-06-06T10:14:50Z</time>
      </trkpt>
      <trkpt lat="48.0736" lon="7.22871">
        <ele>364</ele>
        <time>2011-06-06T10:14:53Z</time>
      </trkpt>
      <trkpt lat="48.07352" lon="7.22873">
        <ele>364</ele>
        <time>2011-06-06T10:14:57Z</time>
      </trkpt>
      <trkpt lat="48.0734" lon="7.22875">
        <ele>364</ele>
        <time>2011-06-06T10:15:01Z</time>
      </trkpt>
      <trkpt lat="48.07331" lon="7.22874">
        <ele>365</ele>
        <time>2011-06-06T10:15:05Z</time>
      </trkpt>
      <trkpt lat="48.07322" lon="7.22872">
        <ele>365</ele>
        <time>2011-06-06T10:15:09Z</time>
      </trkpt>
      <trkpt lat="48.07309" lon="7.22866">
        <ele>365</ele>
        <time>2011-06-06T10:15:14Z</time>
      </trkpt>
      <trkpt lat="48.07302" lon="7.22861">
        <ele>365</ele>
        <time>2011-06-06T10:15:17Z</time>
      </trkpt>
      <trkpt lat="48.07292" lon="7.22852">
        <ele>365</ele>
        <time>2011-06-06T10:15:22Z</time>
      </trkpt>
      <trkpt lat="48.07281" lon="7.22836">
        <ele>365</ele>
        <time>2011-06-06T10:15:28Z</time>
      </trkpt>
      <trkpt lat="48.07273" lon="7.22817">
        <ele>370</ele>
        <time>2011-06-06T10:15:34Z</time>
      </trkpt>
      <trkpt lat="48.07267" lon="7.22793">
        <ele>371</ele>
        <time>2011-06-06T10:15:41Z</time>
      </trkpt>
      <trkpt lat="48.07264" lon="7.22766">
        <ele>371</ele>
        <time>2011-06-06T10:15:48Z</time>
      </trkpt>
      <trkpt lat="48.07262" lon="7.2274">
        <ele>375</ele>
        <time>2011-06-06T10:15:55Z</time>
      </trkpt>
      <trkpt lat="48.0726" lon="7.22715">
        <ele>379</ele>
        <time>2011-06-06T10:16:02Z</time>
      </trkpt>
      <trkpt lat="48.07256" lon="7.22683">
        <ele>380</ele>
        <time>2011-06-06T10:16:10Z</time>
      </trkpt>
      <trkpt lat="48.07255" lon="7.22656">
        <ele>385</ele>
        <time>2011-06-06T10:16:18Z</time>
      </trkpt>
      <trkpt lat="48.07257" lon="7.22631">
        <ele>393</ele>
        <time>2011-06-06T10:16:24Z</time>
      </trkpt>
      <trkpt lat="48.07251" lon="7.2261">
        <ele>396</ele>
        <time>2011-06-06T10:16:30Z</time>
      </trkpt>
      <trkpt lat="48.07238" lon="7.22597">
        <ele>388</ele>
        <time>2011-06-06T10:16:37Z</time>
      </trkpt>
      <trkpt lat="48.07226" lon="7.22593">
        <ele>385</ele>
        <time>2011-06-06T10:16:41Z</time>
      </trkpt>
      <trkpt lat="48.07212" lon="7.22583">
        <ele>396</ele>
        <time>2011-06-06T10:16:48Z</time>
      </trkpt>
      <trkpt lat="48.0721" lon="7.2258">
        <ele>395</ele>
        <time>2011-06-06T10:16:49Z</time>
      </trkpt>
      <trkpt lat="48.07194" lon="7.22555">
        <ele>395</ele>
        <time>2011-06-06T10:16:58Z</time>
      </trkpt>
      <trkpt lat="48.07184" lon="7.22532">
        <ele>398</ele>
        <time>2011-06-06T10:17:06Z</time>
      </trkpt>
      <trkpt lat="48.07174" lon="7.22512">
        <ele>399</ele>
        <time>2011-06-06T10:17:12Z</time>
      </trkpt>
      <trkpt lat="48.07165" lon="7.22492">
        <ele>400</ele>
        <time>2011-06-06T10:17:19Z</time>
      </trkpt>
      <trkpt lat="48.07156" lon="7.22482">
        <ele>401</ele>
        <time>2011-06-06T10:17:23Z</time>
      </trkpt>
      <trkpt lat="48.07141" lon="7.22473">
        <ele>402</ele>
        <time>2011-06-06T10:17:30Z</time>
      </trkpt>
      <trkpt lat="48.07133" lon="7.22455">
        <ele>404</ele>
        <time>2011-06-06T10:17:36Z</time>
      </trkpt>
      <trkpt lat="48.07129" lon="7.22442">
        <ele>405</ele>
        <time>2011-06-06T10:17:39Z</time>
      </trkpt>
      <trkpt lat="48.07125" lon="7.22421">
        <ele>407</ele>
        <time>2011-06-06T10:17:45Z</time>
      </trkpt>
      <trkpt lat="48.07117" lon="7.22411">
        <ele>423</ele>
        <time>2011-06-06T10:17:49Z</time>
      </trkpt>
      <trkpt lat="48.07109" lon="7.22401">
        <ele>423</ele>
        <time>2011-06-06T10:17:53Z</time>
      </trkpt>
      <trkpt lat="48.07101" lon="7.22394">
        <ele>423</ele>
        <time>2011-06-06T10:17:57Z</time>
      </trkpt>
      <trkpt lat="48.0709" lon="7.22386">
        <ele>424</ele>
        <time>2011-06-06T10:18:02Z</time>
      </trkpt>
      <trkpt lat="48.07077" lon="7.22384">
        <ele>420</ele>
        <time>2011-06-06T10:18:07Z</time>
      </trkpt>
      <trkpt lat="48.07068" lon="7.22383">
        <ele>420</ele>
        <time>2011-06-06T10:18:11Z</time>
      </trkpt>
      <trkpt lat="48.07053" lon="7.22382">
        <ele>421</ele>
        <time>2011-06-06T10:18:17Z</time>
      </trkpt>
      <trkpt lat="48.07045" lon="7.22381">
        <ele>421</ele>
        <time>2011-06-06T10:18:20Z</time>
      </trkpt>
      <trkpt lat="48.07034" lon="7.22383">
        <ele>421</ele>
        <time>2011-06-06T10:18:24Z</time>
      </trkpt>
      <trkpt lat="48.07035" lon="7.22385">
        <ele>420</ele>
        <time>2011-06-06T10:18:25Z</time>
      </trkpt>
      <trkpt lat="48.07047" lon="7.22383">
        <ele>421</ele>
        <time>2011-06-06T10:18:30Z</time>
      </trkpt>
      <trkpt lat="48.0706" lon="7.22384">
        <ele>420</ele>
        <time>2011-06-06T10:18:35Z</time>
      </trkpt>
      <trkpt lat="48.07073" lon="7.22384">
        <ele>420</ele>
        <time>2011-06-06T10:18:40Z</time>
      </trkpt>
      <trkpt lat="48.07079" lon="7.22386">
        <ele>419</ele>
        <time>2011-06-06T10:18:43Z</time>
      </trkpt>
      <trkpt lat="48.07083" lon="7.22379">
        <ele>421</ele>
        <time>2011-06-06T10:18:45Z</time>
      </trkpt>
      <trkpt lat="48.07078" lon="7.22377">
        <ele>422</ele>
        <time>2011-06-06T10:18:47Z</time>
      </trkpt>
      <trkpt lat="48.07072" lon="7.22376">
        <ele>422</ele>
        <time>2011-06-06T10:18:49Z</time>
      </trkpt>
      <trkpt lat="48.07067" lon="7.22374">
        <ele>422</ele>
        <time>2011-06-06T10:18:51Z</time>
      </trkpt>
      <trkpt lat="48.07061" lon="7.22367">
        <ele>424</ele>
        <time>2011-06-06T10:18:54Z</time>
      </trkpt>
      <trkpt lat="48.07059" lon="7.22366">
        <ele>424</ele>
        <time>2011-06-06T10:18:55Z</time>
      </trkpt>
      <trkpt lat="48.07048" lon="7.22361">
        <ele>424</ele>
        <time>2011-06-06T10:19:00Z</time>
      </trkpt>
      <trkpt lat="48.07032" lon="7.22358">
        <ele>424</ele>
        <time>2011-06-06T10:19:06Z</time>
      </trkpt>
      <trkpt lat="48.07018" lon="7.22359">
        <ele>424</ele>
        <time>2011-06-06T10:19:12Z</time>
      </trkpt>
      <trkpt lat="48.07008" lon="7.22362">
        <ele>424</ele>
        <time>2011-06-06T10:19:16Z</time>
      </trkpt>
      <trkpt lat="48.06999" lon="7.22363">
        <ele>424</ele>
        <time>2011-06-06T10:19:20Z</time>
      </trkpt>
      <trkpt lat="48.06992" lon="7.22364">
        <ele>423</ele>
        <time>2011-06-06T10:19:22Z</time>
      </trkpt>
      <trkpt lat="48.06986" lon="7.22364">
        <ele>423</ele>
        <time>2011-06-06T10:19:25Z</time>
      </trkpt>
      <trkpt lat="48.06978" lon="7.22366">
        <ele>423</ele>
        <time>2011-06-06T10:19:28Z</time>
      </trkpt>
      <trkpt lat="48.06969" lon="7.22368">
        <ele>423</ele>
        <time>2011-06-06T10:19:32Z</time>
      </trkpt>
      <trkpt lat="48.06961" lon="7.22368">
        <ele>423</ele>
        <time>2011-06-06T10:19:35Z</time>
      </trkpt>
      <trkpt lat="48.0695" lon="7.22371">
        <ele>423</ele>
        <time>2011-06-06T10:19:39Z</time>
      </trkpt>
      <trkpt lat="48.06936" lon="7.2237">
        <ele>423</ele>
        <time>2011-06-06T10:19:45Z</time>
      </trkpt>
      <trkpt lat="48.06924" lon="7.22361">
        <ele>424</ele>
        <time>2011-06-06T10:19:50Z</time>
      </trkpt>
      <trkpt lat="48.06911" lon="7.22361">
        <ele>422</ele>
        <time>2011-06-06T10:19:56Z</time>
      </trkpt>
      <trkpt lat="48.06892" lon="7.22364">
        <ele>420</ele>
        <time>2011-06-06T10:20:03Z</time>
      </trkpt>
      <trkpt lat="48.06879" lon="7.22363">
        <ele>419</ele>
        <time>2011-06-06T10:20:08Z</time>
      </trkpt>
      <trkpt lat="48.06876" lon="7.22361">
        <ele>419</ele>
        <time>2011-06-06T10:20:10Z</time>
      </trkpt>
      <trkpt lat="48.06875" lon="7.2236">
        <ele>419</ele>
        <time>2011-06-06T10:20:10Z</time>
      </trkpt>
      <trkpt lat="48.06875" lon="7.22357">
        <ele>419</ele>
        <time>2011-06-06T10:20:11Z</time>
      </trkpt>
      <trkpt lat="48.06872" lon="7.22352">
        <ele>419</ele>
        <time>2011-06-06T10:20:13Z</time>
      </trkpt>
      <trkpt lat="48.06868" lon="7.22348">
        <ele>418</ele>
        <time>2011-06-06T10:20:15Z</time>
      </trkpt>
      <trkpt lat="48.06866" lon="7.22346">
        <ele>418</ele>
        <time>2011-06-06T10:20:16Z</time>
      </trkpt>
      <trkpt lat="48.06866" lon="7.22341">
        <ele>418</ele>
        <time>2011-06-06T10:20:17Z</time>
      </trkpt>
      <trkpt lat="48.06863" lon="7.2234">
        <ele>418</ele>
        <time>2011-06-06T10:20:18Z</time>
      </trkpt>
      <trkpt lat="48.06862" lon="7.22338">
        <ele>418</ele>
        <time>2011-06-06T10:20:19Z</time>
      </trkpt>
      <trkpt lat="48.06862" lon="7.22338">
        <ele>418</ele>
        <time>2011-06-06T10:20:19Z</time>
      </trkpt>
      <trkpt lat="48.06862" lon="7.22337">
        <ele>418</ele>
        <time>2011-06-06T10:20:19Z</time>
      </trkpt>
      <trkpt lat="48.06862" lon="7.22336">
        <ele>418</ele>
        <time>2011-06-06T10:20:19Z</time>
      </trkpt>
      <trkpt lat="48.06869" lon="7.22328">
        <ele>422</ele>
        <time>2011-06-06T10:20:23Z</time>
      </trkpt>
      <trkpt lat="48.06878" lon="7.22318">
        <ele>423</ele>
        <time>2011-06-06T10:20:27Z</time>
      </trkpt>
      <trkpt lat="48.06886" lon="7.22311">
        <ele>424</ele>
        <time>2011-06-06T10:20:31Z</time>
      </trkpt>
      <trkpt lat="48.06899" lon="7.22302">
        <ele>425</ele>
        <time>2011-06-06T10:20:37Z</time>
      </trkpt>
      <trkpt lat="48.0691" lon="7.22294">
        <ele>425</ele>
        <time>2011-06-06T10:20:41Z</time>
      </trkpt>
      <trkpt lat="48.06921" lon="7.22286">
        <ele>432</ele>
        <time>2011-06-06T10:20:47Z</time>
      </trkpt>
      <trkpt lat="48.06931" lon="7.22275">
        <ele>432</ele>
        <time>2011-06-06T10:20:51Z</time>
      </trkpt>
      <trkpt lat="48.06946" lon="7.22261">
        <ele>433</ele>
        <time>2011-06-06T10:20:58Z</time>
      </trkpt>
      <trkpt lat="48.06956" lon="7.2225">
        <ele>436</ele>
        <time>2011-06-06T10:21:03Z</time>
      </trkpt>
      <trkpt lat="48.06965" lon="7.22237">
        <ele>437</ele>
        <time>2011-06-06T10:21:08Z</time>
      </trkpt>
      <trkpt lat="48.06976" lon="7.22233">
        <ele>438</ele>
        <time>2011-06-06T10:21:13Z</time>
      </trkpt>
      <trkpt lat="48.06983" lon="7.22227">
        <ele>438</ele>
        <time>2011-06-06T10:21:16Z</time>
      </trkpt>
      <trkpt lat="48.06986" lon="7.22225">
        <ele>438</ele>
        <time>2011-06-06T10:21:18Z</time>
      </trkpt>
      <trkpt lat="48.06991" lon="7.22216">
        <ele>438</ele>
        <time>2011-06-06T10:21:21Z</time>
      </trkpt>
      <trkpt lat="48.06995" lon="7.222">
        <ele>439</ele>
        <time>2011-06-06T10:21:25Z</time>
      </trkpt>
      <trkpt lat="48.06999" lon="7.22184">
        <ele>442</ele>
        <time>2011-06-06T10:21:30Z</time>
      </trkpt>
      <trkpt lat="48.07002" lon="7.22168">
        <ele>448</ele>
        <time>2011-06-06T10:21:34Z</time>
      </trkpt>
      <trkpt lat="48.07004" lon="7.22148">
        <ele>455</ele>
        <time>2011-06-06T10:21:40Z</time>
      </trkpt>
      <trkpt lat="48.07005" lon="7.22129">
        <ele>457</ele>
        <time>2011-06-06T10:21:45Z</time>
      </trkpt>
      <trkpt lat="48.07004" lon="7.22108">
        <ele>457</ele>
        <time>2011-06-06T10:21:51Z</time>
      </trkpt>
      <trkpt lat="48.07002" lon="7.22086">
        <ele>451</ele>
        <time>2011-06-06T10:21:56Z</time>
      </trkpt>
      <trkpt lat="48.07001" lon="7.22064">
        <ele>458</ele>
        <time>2011-06-06T10:22:02Z</time>
      </trkpt>
      <trkpt lat="48.07004" lon="7.22043">
        <ele>461</ele>
        <time>2011-06-06T10:22:08Z</time>
      </trkpt>
      <trkpt lat="48.0701" lon="7.22027">
        <ele>461</ele>
        <time>2011-06-06T10:22:13Z</time>
      </trkpt>
      <trkpt lat="48.07013" lon="7.22011">
        <ele>460</ele>
        <time>2011-06-06T10:22:17Z</time>
      </trkpt>
      <trkpt lat="48.07014" lon="7.2201">
        <ele>460</ele>
        <time>2011-06-06T10:22:18Z</time>
      </trkpt>
      <trkpt lat="48.07014" lon="7.22004">
        <ele>460</ele>
        <time>2011-06-06T10:22:20Z</time>
      </trkpt>
      <trkpt lat="48.07014" lon="7.21998">
        <ele>460</ele>
        <time>2011-06-06T10:22:21Z</time>
      </trkpt>
      <trkpt lat="48.07013" lon="7.21983">
        <ele>461</ele>
        <time>2011-06-06T10:22:25Z</time>
      </trkpt>
      <trkpt lat="48.07017" lon="7.2198">
        <ele>462</ele>
        <time>2011-06-06T10:22:27Z</time>
      </trkpt>
      <trkpt lat="48.0702" lon="7.21979">
        <ele>463</ele>
        <time>2011-06-06T10:22:28Z</time>
      </trkpt>
      <trkpt lat="48.07022" lon="7.2198">
        <ele>463</ele>
        <time>2011-06-06T10:22:29Z</time>
      </trkpt>
      <trkpt lat="48.07022" lon="7.21976">
        <ele>463</ele>
        <time>2011-06-06T10:22:30Z</time>
      </trkpt>
      <trkpt lat="48.07025" lon="7.21972">
        <ele>464</ele>
        <time>2011-06-06T10:22:31Z</time>
      </trkpt>
      <trkpt lat="48.07028" lon="7.21961">
        <ele>464</ele>
        <time>2011-06-06T10:22:34Z</time>
      </trkpt>
      <trkpt lat="48.0703" lon="7.21959">
        <ele>465</ele>
        <time>2011-06-06T10:22:35Z</time>
      </trkpt>
      <trkpt lat="48.07037" lon="7.21957">
        <ele>466</ele>
        <time>2011-06-06T10:22:38Z</time>
      </trkpt>
      <trkpt lat="48.07045" lon="7.21956">
        <ele>467</ele>
        <time>2011-06-06T10:22:41Z</time>
      </trkpt>
      <trkpt lat="48.07054" lon="7.21953">
        <ele>468</ele>
        <time>2011-06-06T10:22:45Z</time>
      </trkpt>
      <trkpt lat="48.07064" lon="7.21952">
        <ele>469</ele>
        <time>2011-06-06T10:22:49Z</time>
      </trkpt>
      <trkpt lat="48.07074" lon="7.21954">
        <ele>470</ele>
        <time>2011-06-06T10:22:53Z</time>
      </trkpt>
      <trkpt lat="48.07088" lon="7.21953">
        <ele>485</ele>
        <time>2011-06-06T10:22:59Z</time>
      </trkpt>
      <trkpt lat="48.07098" lon="7.21952">
        <ele>486</ele>
        <time>2011-06-06T10:23:03Z</time>
      </trkpt>
      <trkpt lat="48.07107" lon="7.21953">
        <ele>487</ele>
        <time>2011-06-06T10:23:06Z</time>
      </trkpt>
      <trkpt lat="48.07117" lon="7.21954">
        <ele>489</ele>
        <time>2011-06-06T10:23:11Z</time>
      </trkpt>
      <trkpt lat="48.07126" lon="7.21954">
        <ele>490</ele>
        <time>2011-06-06T10:23:14Z</time>
      </trkpt>
      <trkpt lat="48.07136" lon="7.21953">
        <ele>491</ele>
        <time>2011-06-06T10:23:18Z</time>
      </trkpt>
      <trkpt lat="48.07139" lon="7.21952">
        <ele>492</ele>
        <time>2011-06-06T10:23:19Z</time>
      </trkpt>
      <trkpt lat="48.07147" lon="7.21947">
        <ele>492</ele>
        <time>2011-06-06T10:23:23Z</time>
      </trkpt>
      <trkpt lat="48.07153" lon="7.21938">
        <ele>493</ele>
        <time>2011-06-06T10:23:26Z</time>
      </trkpt>
      <trkpt lat="48.07159" lon="7.21926">
        <ele>496</ele>
        <time>2011-06-06T10:23:30Z</time>
      </trkpt>
      <trkpt lat="48.07161" lon="7.2192">
        <ele>497</ele>
        <time>2011-06-06T10:23:32Z</time>
      </trkpt>
      <trkpt lat="48.07167" lon="7.21906">
        <ele>495</ele>
        <time>2011-06-06T10:23:36Z</time>
      </trkpt>
      <trkpt lat="48.07169" lon="7.21899">
        <ele>507</ele>
        <time>2011-06-06T10:23:38Z</time>
      </trkpt>
      <trkpt lat="48.07171" lon="7.21884">
        <ele>510</ele>
        <time>2011-06-06T10:23:43Z</time>
      </trkpt>
      <trkpt lat="48.07171" lon="7.21872">
        <ele>510</ele>
        <time>2011-06-06T10:23:46Z</time>
      </trkpt>
      <trkpt lat="48.07173" lon="7.21859">
        <ele>510</ele>
        <time>2011-06-06T10:23:49Z</time>
      </trkpt>
      <trkpt lat="48.07173" lon="7.21845">
        <ele>508</ele>
        <time>2011-06-06T10:23:53Z</time>
      </trkpt>
      <trkpt lat="48.07174" lon="7.2183">
        <ele>506</ele>
        <time>2011-06-06T10:23:57Z</time>
      </trkpt>
      <trkpt lat="48.07175" lon="7.2181">
        <ele>511</ele>
        <time>2011-06-06T10:24:02Z</time>
      </trkpt>
      <trkpt lat="48.07179" lon="7.21793">
        <ele>513</ele>
        <time>2011-06-06T10:24:07Z</time>
      </trkpt>
      <trkpt lat="48.07182" lon="7.21779">
        <ele>513</ele>
        <time>2011-06-06T10:24:11Z</time>
      </trkpt>
      <trkpt lat="48.07188" lon="7.21766">
        <ele>513</ele>
        <time>2011-06-06T10:24:15Z</time>
      </trkpt>
      <trkpt lat="48.07195" lon="7.21749">
        <ele>513</ele>
        <time>2011-06-06T10:24:21Z</time>
      </trkpt>
      <trkpt lat="48.07206" lon="7.21733">
        <ele>516</ele>
        <time>2011-06-06T10:24:27Z</time>
      </trkpt>
      <trkpt lat="48.07214" lon="7.21722">
        <ele>517</ele>
        <time>2011-06-06T10:24:31Z</time>
      </trkpt>
      <trkpt lat="48.07216" lon="7.21717">
        <ele>517</ele>
        <time>2011-06-06T10:24:33Z</time>
      </trkpt>
      <trkpt lat="48.07221" lon="7.2171">
        <ele>518</ele>
        <time>2011-06-06T10:24:36Z</time>
      </trkpt>
      <trkpt lat="48.07232" lon="7.21697">
        <ele>519</ele>
        <time>2011-06-06T10:24:41Z</time>
      </trkpt>
      <trkpt lat="48.07237" lon="7.21692">
        <ele>520</ele>
        <time>2011-06-06T10:24:44Z</time>
      </trkpt>
      <trkpt lat="48.0724" lon="7.21687">
        <ele>521</ele>
        <time>2011-06-06T10:24:45Z</time>
      </trkpt>
      <trkpt lat="48.07241" lon="7.2169">
        <ele>521</ele>
        <time>2011-06-06T10:24:46Z</time>
      </trkpt>
      <trkpt lat="48.07242" lon="7.21688">
        <ele>521</ele>
        <time>2011-06-06T10:24:47Z</time>
      </trkpt>
      <trkpt lat="48.0725" lon="7.2168">
        <ele>533</ele>
        <time>2011-06-06T10:24:51Z</time>
      </trkpt>
      <trkpt lat="48.07257" lon="7.21671">
        <ele>531</ele>
        <time>2011-06-06T10:24:54Z</time>
      </trkpt>
      <trkpt lat="48.07264" lon="7.2166">
        <ele>532</ele>
        <time>2011-06-06T10:24:58Z</time>
      </trkpt>
      <trkpt lat="48.0727" lon="7.21652">
        <ele>534</ele>
        <time>2011-06-06T10:25:02Z</time>
      </trkpt>
      <trkpt lat="48.07276" lon="7.21642">
        <ele>536</ele>
        <time>2011-06-06T10:25:05Z</time>
      </trkpt>
      <trkpt lat="48.07283" lon="7.21634">
        <ele>537</ele>
        <time>2011-06-06T10:25:09Z</time>
      </trkpt>
      <trkpt lat="48.07287" lon="7.21624">
        <ele>538</ele>
        <time>2011-06-06T10:25:12Z</time>
      </trkpt>
      <trkpt lat="48.0729" lon="7.2162">
        <ele>538</ele>
        <time>2011-06-06T10:25:13Z</time>
      </trkpt>
      <trkpt lat="48.07297" lon="7.21601">
        <ele>539</ele>
        <time>2011-06-06T10:25:19Z</time>
      </trkpt>
      <trkpt lat="48.07302" lon="7.2159">
        <ele>541</ele>
        <time>2011-06-06T10:25:23Z</time>
      </trkpt>
      <trkpt lat="48.07308" lon="7.21579">
        <ele>540</ele>
        <time>2011-06-06T10:25:26Z</time>
      </trkpt>
      <trkpt lat="48.07313" lon="7.21566">
        <ele>540</ele>
        <time>2011-06-06T10:25:31Z</time>
      </trkpt>
      <trkpt lat="48.07317" lon="7.2155">
        <ele>539</ele>
        <time>2011-06-06T10:25:35Z</time>
      </trkpt>
      <trkpt lat="48.07322" lon="7.21535">
        <ele>539</ele>
        <time>2011-06-06T10:25:40Z</time>
      </trkpt>
      <trkpt lat="48.07326" lon="7.21523">
        <ele>541</ele>
        <time>2011-06-06T10:25:43Z</time>
      </trkpt>
      <trkpt lat="48.07331" lon="7.2151">
        <ele>545</ele>
        <time>2011-06-06T10:25:47Z</time>
      </trkpt>
      <trkpt lat="48.07334" lon="7.21505">
        <ele>553</ele>
        <time>2011-06-06T10:25:49Z</time>
      </trkpt>
      <trkpt lat="48.07343" lon="7.2149">
        <ele>557</ele>
        <time>2011-06-06T10:25:54Z</time>
      </trkpt>
      <trkpt lat="48.07346" lon="7.21479">
        <ele>561</ele>
        <time>2011-06-06T10:25:58Z</time>
      </trkpt>
      <trkpt lat="48.07347" lon="7.21464">
        <ele>562</ele>
        <time>2011-06-06T10:26:02Z</time>
      </trkpt>
      <trkpt lat="48.0735" lon="7.21446">
        <ele>562</ele>
        <time>2011-06-06T10:26:07Z</time>
      </trkpt>
      <trkpt lat="48.0735" lon="7.21434">
        <ele>561</ele>
        <time>2011-06-06T10:26:10Z</time>
      </trkpt>
      <trkpt lat="48.07352" lon="7.21419">
        <ele>560</ele>
        <time>2011-06-06T10:26:14Z</time>
      </trkpt>
      <trkpt lat="48.07351" lon="7.21404">
        <ele>563</ele>
        <time>2011-06-06T10:26:18Z</time>
      </trkpt>
      <trkpt lat="48.07351" lon="7.21388">
        <ele>566</ele>
        <time>2011-06-06T10:26:22Z</time>
      </trkpt>
      <trkpt lat="48.07351" lon="7.21386">
        <ele>566</ele>
        <time>2011-06-06T10:26:23Z</time>
      </trkpt>
      <trkpt lat="48.0735" lon="7.21369">
        <ele>567</ele>
        <time>2011-06-06T10:26:27Z</time>
      </trkpt>
      <trkpt lat="48.07349" lon="7.21354">
        <ele>567</ele>
        <time>2011-06-06T10:26:32Z</time>
      </trkpt>
      <trkpt lat="48.07348" lon="7.21339">
        <ele>565</ele>
        <time>2011-06-06T10:26:36Z</time>
      </trkpt>
      <trkpt lat="48.07351" lon="7.21335">
        <ele>566</ele>
        <time>2011-06-06T10:26:37Z</time>
      </trkpt>
      <trkpt lat="48.07352" lon="7.21335">
        <ele>566</ele>
        <time>2011-06-06T10:26:38Z</time>
      </trkpt>
      <trkpt lat="48.07355" lon="7.21335">
        <ele>567</ele>
        <time>2011-06-06T10:26:39Z</time>
      </trkpt>
      <trkpt lat="48.07353" lon="7.21327">
        <ele>570</ele>
        <time>2011-06-06T10:26:41Z</time>
      </trkpt>
      <trkpt lat="48.07352" lon="7.21313">
        <ele>572</ele>
        <time>2011-06-06T10:26:45Z</time>
      </trkpt>
      <trkpt lat="48.07355" lon="7.21305">
        <ele>573</ele>
        <time>2011-06-06T10:26:47Z</time>
      </trkpt>
      <trkpt lat="48.07356" lon="7.21286">
        <ele>575</ele>
        <time>2011-06-06T10:26:52Z</time>
      </trkpt>
      <trkpt lat="48.07353" lon="7.21269">
        <ele>573</ele>
        <time>2011-06-06T10:26:57Z</time>
      </trkpt>
      <trkpt lat="48.07353" lon="7.21263">
        <ele>573</ele>
        <time>2011-06-06T10:26:58Z</time>
      </trkpt>
      <trkpt lat="48.07353" lon="7.21253">
        <ele>572</ele>
        <time>2011-06-06T10:27:01Z</time>
      </trkpt>
      <trkpt lat="48.07353" lon="7.21248">
        <ele>572</ele>
        <time>2011-06-06T10:27:03Z</time>
      </trkpt>
      <trkpt lat="48.07355" lon="7.21241">
        <ele>573</ele>
        <time>2011-06-06T10:27:05Z</time>
      </trkpt>
      <trkpt lat="48.0736" lon="7.21231">
        <ele>575</ele>
        <time>2011-06-06T10:27:08Z</time>
      </trkpt>
      <trkpt lat="48.07361" lon="7.2123">
        <ele>575</ele>
        <time>2011-06-06T10:27:08Z</time>
      </trkpt>
      <trkpt lat="48.07364" lon="7.21227">
        <ele>576</ele>
        <time>2011-06-06T10:27:10Z</time>
      </trkpt>
      <trkpt lat="48.07373" lon="7.21216">
        <ele>578</ele>
        <time>2011-06-06T10:27:14Z</time>
      </trkpt>
      <trkpt lat="48.07375" lon="7.21213">
        <ele>578</ele>
        <time>2011-06-06T10:27:16Z</time>
      </trkpt>
      <trkpt lat="48.07381" lon="7.21204">
        <ele>579</ele>
        <time>2011-06-06T10:27:19Z</time>
      </trkpt>
      <trkpt lat="48.07389" lon="7.21197">
        <ele>580</ele>
        <time>2011-06-06T10:27:23Z</time>
      </trkpt>
      <trkpt lat="48.074" lon="7.21188">
        <ele>583</ele>
        <time>2011-06-06T10:27:28Z</time>
      </trkpt>
      <trkpt lat="48.07407" lon="7.2118">
        <ele>585</ele>
        <time>2011-06-06T10:27:31Z</time>
      </trkpt>
      <trkpt lat="48.07413" lon="7.21172">
        <ele>589</ele>
        <time>2011-06-06T10:27:35Z</time>
      </trkpt>
      <trkpt lat="48.07418" lon="7.21165">
        <ele>593</ele>
        <time>2011-06-06T10:27:37Z</time>
      </trkpt>
      <trkpt lat="48.07424" lon="7.21157">
        <ele>596</ele>
        <time>2011-06-06T10:27:41Z</time>
      </trkpt>
      <trkpt lat="48.07431" lon="7.21147">
        <ele>598</ele>
        <time>2011-06-06T10:27:44Z</time>
      </trkpt>
      <trkpt lat="48.07436" lon="7.21139">
        <ele>599</ele>
        <time>2011-06-06T10:27:47Z</time>
      </trkpt>
      <trkpt lat="48.07443" lon="7.2113">
        <ele>599</ele>
        <time>2011-06-06T10:27:51Z</time>
      </trkpt>
      <trkpt lat="48.07449" lon="7.21122">
        <ele>600</ele>
        <time>2011-06-06T10:27:54Z</time>
      </trkpt>
      <trkpt lat="48.07456" lon="7.21115">
        <ele>601</ele>
        <time>2011-06-06T10:27:57Z</time>
      </trkpt>
      <trkpt lat="48.07465" lon="7.21108">
        <ele>602</ele>
        <time>2011-06-06T10:28:01Z</time>
      </trkpt>
      <trkpt lat="48.07475" lon="7.21101">
        <ele>604</ele>
        <time>2011-06-06T10:28:06Z</time>
      </trkpt>
      <trkpt lat="48.07478" lon="7.21099">
        <ele>604</ele>
        <time>2011-06-06T10:28:07Z</time>
      </trkpt>
      <trkpt lat="48.07487" lon="7.21092">
        <ele>606</ele>
        <time>2011-06-06T10:28:11Z</time>
      </trkpt>
      <trkpt lat="48.0749" lon="7.21088">
        <ele>607</ele>
        <time>2011-06-06T10:28:13Z</time>
      </trkpt>
      <trkpt lat="48.07496" lon="7.21078">
        <ele>606</ele>
        <time>2011-06-06T10:28:17Z</time>
      </trkpt>
      <trkpt lat="48.07501" lon="7.21067">
        <ele>616</ele>
        <time>2011-06-06T10:28:20Z</time>
      </trkpt>
      <trkpt lat="48.07507" lon="7.21056">
        <ele>618</ele>
        <time>2011-06-06T10:28:24Z</time>
      </trkpt>
      <trkpt lat="48.07513" lon="7.21043">
        <ele>619</ele>
        <time>2011-06-06T10:28:28Z</time>
      </trkpt>
      <trkpt lat="48.0752" lon="7.21028">
        <ele>618</ele>
        <time>2011-06-06T10:28:33Z</time>
      </trkpt>
      <trkpt lat="48.07526" lon="7.21016">
        <ele>618</ele>
        <time>2011-06-06T10:28:37Z</time>
      </trkpt>
      <trkpt lat="48.0753" lon="7.21014">
        <ele>619</ele>
        <time>2011-06-06T10:28:39Z</time>
      </trkpt>
      <trkpt lat="48.0753" lon="7.21013">
        <ele>619</ele>
        <time>2011-06-06T10:28:39Z</time>
      </trkpt>
      <trkpt lat="48.07533" lon="7.21007">
        <ele>620</ele>
        <time>2011-06-06T10:28:41Z</time>
      </trkpt>
      <trkpt lat="48.07539" lon="7.20996">
        <ele>620</ele>
        <time>2011-06-06T10:28:45Z</time>
      </trkpt>
      <trkpt lat="48.07543" lon="7.20986">
        <ele>622</ele>
        <time>2011-06-06T10:28:48Z</time>
      </trkpt>
      <trkpt lat="48.07546" lon="7.20974">
        <ele>622</ele>
        <time>2011-06-06T10:28:51Z</time>
      </trkpt>
      <trkpt lat="48.07549" lon="7.20961">
        <ele>623</ele>
        <time>2011-06-06T10:28:55Z</time>
      </trkpt>
      <trkpt lat="48.07551" lon="7.20946">
        <ele>624</ele>
        <time>2011-06-06T10:28:59Z</time>
      </trkpt>
      <trkpt lat="48.07551" lon="7.20935">
        <ele>624</ele>
        <time>2011-06-06T10:29:02Z</time>
      </trkpt>
      <trkpt lat="48.07552" lon="7.20926">
        <ele>625</ele>
        <time>2011-06-06T10:29:04Z</time>
      </trkpt>
      <trkpt lat="48.07552" lon="7.20909">
        <ele>629</ele>
        <time>2011-06-06T10:29:09Z</time>
      </trkpt>
      <trkpt lat="48.07551" lon="7.20896">
        <ele>629</ele>
        <time>2011-06-06T10:29:13Z</time>
      </trkpt>
      <trkpt lat="48.07551" lon="7.20885">
        <ele>629</ele>
        <time>2011-06-06T10:29:15Z</time>
      </trkpt>
      <trkpt lat="48.07551" lon="7.20868">
        <ele>630</ele>
        <time>2011-06-06T10:29:20Z</time>
      </trkpt>
      <trkpt lat="48.07551" lon="7.20859">
        <ele>631</ele>
        <time>2011-06-06T10:29:22Z</time>
      </trkpt>
      <trkpt lat="48.0755" lon="7.20844">
        <ele>632</ele>
        <time>2011-06-06T10:29:26Z</time>
      </trkpt>
      <trkpt lat="48.07549" lon="7.20837">
        <ele>632</ele>
        <time>2011-06-06T10:29:28Z</time>
      </trkpt>
      <trkpt lat="48.07548" lon="7.20826">
        <ele>639</ele>
        <time>2011-06-06T10:29:31Z</time>
      </trkpt>
      <trkpt lat="48.07551" lon="7.20806">
        <ele>640</ele>
        <time>2011-06-06T10:29:37Z</time>
      </trkpt>
      <trkpt lat="48.07554" lon="7.20795">
        <ele>642</ele>
        <time>2011-06-06T10:29:40Z</time>
      </trkpt>
      <trkpt lat="48.07556" lon="7.20787">
        <ele>643</ele>
        <time>2011-06-06T10:29:42Z</time>
      </trkpt>
      <trkpt lat="48.07556" lon="7.2077">
        <ele>645</ele>
        <time>2011-06-06T10:29:47Z</time>
      </trkpt>
      <trkpt lat="48.07552" lon="7.20756">
        <ele>645</ele>
        <time>2011-06-06T10:29:51Z</time>
      </trkpt>
      <trkpt lat="48.07553" lon="7.20752">
        <ele>645</ele>
        <time>2011-06-06T10:29:52Z</time>
      </trkpt>
      <trkpt lat="48.07554" lon="7.20752">
        <ele>646</ele>
        <time>2011-06-06T10:29:52Z</time>
      </trkpt>
      <trkpt lat="48.07557" lon="7.20748">
        <ele>653</ele>
        <time>2011-06-06T10:29:54Z</time>
      </trkpt>
      <trkpt lat="48.07555" lon="7.20739">
        <ele>652</ele>
        <time>2011-06-06T10:29:56Z</time>
      </trkpt>
      <trkpt lat="48.07554" lon="7.20724">
        <ele>652</ele>
        <time>2011-06-06T10:30:00Z</time>
      </trkpt>
      <trkpt lat="48.07553" lon="7.20712">
        <ele>652</ele>
        <time>2011-06-06T10:30:04Z</time>
      </trkpt>
      <trkpt lat="48.07554" lon="7.20695">
        <ele>653</ele>
        <time>2011-06-06T10:30:08Z</time>
      </trkpt>
      <trkpt lat="48.07555" lon="7.20684">
        <ele>654</ele>
        <time>2011-06-06T10:30:11Z</time>
      </trkpt>
      <trkpt lat="48.07558" lon="7.20666">
        <ele>660</ele>
        <time>2011-06-06T10:30:16Z</time>
      </trkpt>
      <trkpt lat="48.07558" lon="7.20655">
        <ele>659</ele>
        <time>2011-06-06T10:30:19Z</time>
      </trkpt>
      <trkpt lat="48.07564" lon="7.20646">
        <ele>660</ele>
        <time>2011-06-06T10:30:22Z</time>
      </trkpt>
      <trkpt lat="48.07565" lon="7.20644">
        <ele>660</ele>
        <time>2011-06-06T10:30:23Z</time>
      </trkpt>
      <trkpt lat="48.07568" lon="7.20634">
        <ele>660</ele>
        <time>2011-06-06T10:30:26Z</time>
      </trkpt>
      <trkpt lat="48.07571" lon="7.2062">
        <ele>660</ele>
        <time>2011-06-06T10:30:30Z</time>
      </trkpt>
      <trkpt lat="48.07572" lon="7.20607">
        <ele>661</ele>
        <time>2011-06-06T10:30:33Z</time>
      </trkpt>
      <trkpt lat="48.07578" lon="7.2059">
        <ele>665</ele>
        <time>2011-06-06T10:30:38Z</time>
      </trkpt>
      <trkpt lat="48.07582" lon="7.20572">
        <ele>664</ele>
        <time>2011-06-06T10:30:44Z</time>
      </trkpt>
      <trkpt lat="48.07587" lon="7.20559">
        <ele>674</ele>
        <time>2011-06-06T10:30:48Z</time>
      </trkpt>
      <trkpt lat="48.0759" lon="7.20554">
        <ele>675</ele>
        <time>2011-06-06T10:30:49Z</time>
      </trkpt>
      <trkpt lat="48.07598" lon="7.20548">
        <ele>676</ele>
        <time>2011-06-06T10:30:53Z</time>
      </trkpt>
      <trkpt lat="48.07602" lon="7.20542">
        <ele>676</ele>
        <time>2011-06-06T10:30:55Z</time>
      </trkpt>
      <trkpt lat="48.07602" lon="7.20539">
        <ele>676</ele>
        <time>2011-06-06T10:30:56Z</time>
      </trkpt>
      <trkpt lat="48.07608" lon="7.20531">
        <ele>676</ele>
        <time>2011-06-06T10:30:59Z</time>
      </trkpt>
      <trkpt lat="48.07614" lon="7.20521">
        <ele>677</ele>
        <time>2011-06-06T10:31:03Z</time>
      </trkpt>
      <trkpt lat="48.07619" lon="7.20514">
        <ele>677</ele>
        <time>2011-06-06T10:31:06Z</time>
      </trkpt>
      <trkpt lat="48.07626" lon="7.20502">
        <ele>679</ele>
        <time>2011-06-06T10:31:10Z</time>
      </trkpt>
      <trkpt lat="48.0763" lon="7.20494">
        <ele>677</ele>
        <time>2011-06-06T10:31:12Z</time>
      </trkpt>
      <trkpt lat="48.07638" lon="7.20476">
        <ele>677</ele>
        <time>2011-06-06T10:31:18Z</time>
      </trkpt>
      <trkpt lat="48.07643" lon="7.20468">
        <ele>678</ele>
        <time>2011-06-06T10:31:21Z</time>
      </trkpt>
      <trkpt lat="48.07645" lon="7.20465">
        <ele>678</ele>
        <time>2011-06-06T10:31:22Z</time>
      </trkpt>
      <trkpt lat="48.07651" lon="7.20455">
        <ele>678</ele>
        <time>2011-06-06T10:31:26Z</time>
      </trkpt>
      <trkpt lat="48.07659" lon="7.20444">
        <ele>679</ele>
        <time>2011-06-06T10:31:30Z</time>
      </trkpt>
      <trkpt lat="48.07666" lon="7.20435">
        <ele>680</ele>
        <time>2011-06-06T10:31:34Z</time>
      </trkpt>
      <trkpt lat="48.07675" lon="7.20422">
        <ele>689</ele>
        <time>2011-06-06T10:31:39Z</time>
      </trkpt>
      <trkpt lat="48.07682" lon="7.20407">
        <ele>690</ele>
        <time>2011-06-06T10:31:44Z</time>
      </trkpt>
      <trkpt lat="48.07688" lon="7.20396">
        <ele>692</ele>
        <time>2011-06-06T10:31:48Z</time>
      </trkpt>
      <trkpt lat="48.07695" lon="7.20386">
        <ele>693</ele>
        <time>2011-06-06T10:31:51Z</time>
      </trkpt>
      <trkpt lat="48.077" lon="7.20376">
        <ele>694</ele>
        <time>2011-06-06T10:31:55Z</time>
      </trkpt>
      <trkpt lat="48.07704" lon="7.2037">
        <ele>695</ele>
        <time>2011-06-06T10:31:57Z</time>
      </trkpt>
      <trkpt lat="48.07711" lon="7.2036">
        <ele>696</ele>
        <time>2011-06-06T10:32:01Z</time>
      </trkpt>
      <trkpt lat="48.07718" lon="7.2035">
        <ele>697</ele>
        <time>2011-06-06T10:32:05Z</time>
      </trkpt>
      <trkpt lat="48.07725" lon="7.20339">
        <ele>700</ele>
        <time>2011-06-06T10:32:09Z</time>
      </trkpt>
      <trkpt lat="48.07729" lon="7.20331">
        <ele>699</ele>
        <time>2011-06-06T10:32:12Z</time>
      </trkpt>
      <trkpt lat="48.07733" lon="7.20322">
        <ele>699</ele>
        <time>2011-06-06T10:32:14Z</time>
      </trkpt>
      <trkpt lat="48.07737" lon="7.2031">
        <ele>698</ele>
        <time>2011-06-06T10:32:18Z</time>
      </trkpt>
      <trkpt lat="48.07743" lon="7.20297">
        <ele>698</ele>
        <time>2011-06-06T10:32:22Z</time>
      </trkpt>
      <trkpt lat="48.07748" lon="7.20284">
        <ele>698</ele>
        <time>2011-06-06T10:32:26Z</time>
      </trkpt>
      <trkpt lat="48.0775" lon="7.2028">
        <ele>698</ele>
        <time>2011-06-06T10:32:28Z</time>
      </trkpt>
      <trkpt lat="48.07753" lon="7.20268">
        <ele>712</ele>
        <time>2011-06-06T10:32:31Z</time>
      </trkpt>
      <trkpt lat="48.07758" lon="7.20257">
        <ele>711</ele>
        <time>2011-06-06T10:32:34Z</time>
      </trkpt>
      <trkpt lat="48.07761" lon="7.20248">
        <ele>712</ele>
        <time>2011-06-06T10:32:37Z</time>
      </trkpt>
      <trkpt lat="48.07761" lon="7.2024">
        <ele>713</ele>
        <time>2011-06-06T10:32:40Z</time>
      </trkpt>
      <trkpt lat="48.07758" lon="7.20239">
        <ele>713</ele>
        <time>2011-06-06T10:32:41Z</time>
      </trkpt>
      <trkpt lat="48.07761" lon="7.20234">
        <ele>714</ele>
        <time>2011-06-06T10:32:42Z</time>
      </trkpt>
      <trkpt lat="48.07761" lon="7.20236">
        <ele>714</ele>
        <time>2011-06-06T10:32:43Z</time>
      </trkpt>
      <trkpt lat="48.07759" lon="7.20238">
        <ele>713</ele>
        <time>2011-06-06T10:32:44Z</time>
      </trkpt>
      <trkpt lat="48.07762" lon="7.20222">
        <ele>716</ele>
        <time>2011-06-06T10:32:48Z</time>
      </trkpt>
      <trkpt lat="48.07766" lon="7.202">
        <ele>717</ele>
        <time>2011-06-06T10:32:55Z</time>
      </trkpt>
      <trkpt lat="48.07771" lon="7.20183">
        <ele>717</ele>
        <time>2011-06-06T10:32:59Z</time>
      </trkpt>
      <trkpt lat="48.07774" lon="7.20168">
        <ele>717</ele>
        <time>2011-06-06T10:33:03Z</time>
      </trkpt>
      <trkpt lat="48.07777" lon="7.20158">
        <ele>723</ele>
        <time>2011-06-06T10:33:07Z</time>
      </trkpt>
      <trkpt lat="48.07778" lon="7.20156">
        <ele>723</ele>
        <time>2011-06-06T10:33:07Z</time>
      </trkpt>
      <trkpt lat="48.0778" lon="7.20146">
        <ele>724</ele>
        <time>2011-06-06T10:33:10Z</time>
      </trkpt>
      <trkpt lat="48.07779" lon="7.20131">
        <ele>725</ele>
        <time>2011-06-06T10:33:14Z</time>
      </trkpt>
      <trkpt lat="48.07779" lon="7.20116">
        <ele>726</ele>
        <time>2011-06-06T10:33:18Z</time>
      </trkpt>
      <trkpt lat="48.07778" lon="7.20101">
        <ele>726</ele>
        <time>2011-06-06T10:33:22Z</time>
      </trkpt>
      <trkpt lat="48.07778" lon="7.20086">
        <ele>726</ele>
        <time>2011-06-06T10:33:26Z</time>
      </trkpt>
      <trkpt lat="48.07781" lon="7.20071">
        <ele>732</ele>
        <time>2011-06-06T10:33:30Z</time>
      </trkpt>
      <trkpt lat="48.07782" lon="7.20054">
        <ele>733</ele>
        <time>2011-06-06T10:33:35Z</time>
      </trkpt>
      <trkpt lat="48.07785" lon="7.20038">
        <ele>734</ele>
        <time>2011-06-06T10:33:39Z</time>
      </trkpt>
      <trkpt lat="48.07788" lon="7.20024">
        <ele>735</ele>
        <time>2011-06-06T10:33:43Z</time>
      </trkpt>
      <trkpt lat="48.07789" lon="7.20021">
        <ele>735</ele>
        <time>2011-06-06T10:33:44Z</time>
      </trkpt>
      <trkpt lat="48.0779" lon="7.20009">
        <ele>736</ele>
        <time>2011-06-06T10:33:47Z</time>
      </trkpt>
      <trkpt lat="48.07791" lon="7.19995">
        <ele>740</ele>
        <time>2011-06-06T10:33:51Z</time>
      </trkpt>
      <trkpt lat="48.07793" lon="7.19981">
        <ele>741</ele>
        <time>2011-06-06T10:33:55Z</time>
      </trkpt>
      <trkpt lat="48.07795" lon="7.1997">
        <ele>742</ele>
        <time>2011-06-06T10:33:58Z</time>
      </trkpt>
      <trkpt lat="48.07796" lon="7.1995">
        <ele>743</ele>
        <time>2011-06-06T10:34:03Z</time>
      </trkpt>
      <trkpt lat="48.07797" lon="7.19936">
        <ele>744</ele>
        <time>2011-06-06T10:34:07Z</time>
      </trkpt>
      <trkpt lat="48.07798" lon="7.19929">
        <ele>744</ele>
        <time>2011-06-06T10:34:09Z</time>
      </trkpt>
      <trkpt lat="48.078" lon="7.19917">
        <ele>746</ele>
        <time>2011-06-06T10:34:12Z</time>
      </trkpt>
      <trkpt lat="48.07802" lon="7.19905">
        <ele>750</ele>
        <time>2011-06-06T10:34:16Z</time>
      </trkpt>
      <trkpt lat="48.07804" lon="7.19894">
        <ele>750</ele>
        <time>2011-06-06T10:34:19Z</time>
      </trkpt>
      <trkpt lat="48.07805" lon="7.1989">
        <ele>750</ele>
        <time>2011-06-06T10:34:20Z</time>
      </trkpt>
      <trkpt lat="48.07808" lon="7.19875">
        <ele>751</ele>
        <time>2011-06-06T10:34:24Z</time>
      </trkpt>
      <trkpt lat="48.07809" lon="7.19869">
        <ele>751</ele>
        <time>2011-06-06T10:34:26Z</time>
      </trkpt>
      <trkpt lat="48.0781" lon="7.1986">
        <ele>752</ele>
        <time>2011-06-06T10:34:28Z</time>
      </trkpt>
      <trkpt lat="48.07816" lon="7.19844">
        <ele>756</ele>
        <time>2011-06-06T10:34:33Z</time>
      </trkpt>
      <trkpt lat="48.07821" lon="7.19832">
        <ele>761</ele>
        <time>2011-06-06T10:34:37Z</time>
      </trkpt>
      <trkpt lat="48.07827" lon="7.19816">
        <ele>759</ele>
        <time>2011-06-06T10:34:42Z</time>
      </trkpt>
      <trkpt lat="48.07832" lon="7.19803">
        <ele>758</ele>
        <time>2011-06-06T10:34:46Z</time>
      </trkpt>
      <trkpt lat="48.07835" lon="7.19792">
        <ele>774</ele>
        <time>2011-06-06T10:34:49Z</time>
      </trkpt>
      <trkpt lat="48.07839" lon="7.1978">
        <ele>774</ele>
        <time>2011-06-06T10:34:52Z</time>
      </trkpt>
      <trkpt lat="48.07842" lon="7.1977">
        <ele>774</ele>
        <time>2011-06-06T10:34:55Z</time>
      </trkpt>
      <trkpt lat="48.07847" lon="7.19757">
        <ele>773</ele>
        <time>2011-06-06T10:34:59Z</time>
      </trkpt>
      <trkpt lat="48.07852" lon="7.19744">
        <ele>774</ele>
        <time>2011-06-06T10:35:03Z</time>
      </trkpt>
      <trkpt lat="48.07854" lon="7.19743">
        <ele>775</ele>
        <time>2011-06-06T10:35:04Z</time>
      </trkpt>
      <trkpt lat="48.07855" lon="7.19736">
        <ele>776</ele>
        <time>2011-06-06T10:35:06Z</time>
      </trkpt>
      <trkpt lat="48.07858" lon="7.19726">
        <ele>777</ele>
        <time>2011-06-06T10:35:09Z</time>
      </trkpt>
      <trkpt lat="48.07863" lon="7.19714">
        <ele>778</ele>
        <time>2011-06-06T10:35:13Z</time>
      </trkpt>
      <trkpt lat="48.07864" lon="7.1971">
        <ele>778</ele>
        <time>2011-06-06T10:35:14Z</time>
      </trkpt>
      <trkpt lat="48.07872" lon="7.19697">
        <ele>779</ele>
        <time>2011-06-06T10:35:18Z</time>
      </trkpt>
      <trkpt lat="48.07877" lon="7.19689">
        <ele>779</ele>
        <time>2011-06-06T10:35:21Z</time>
      </trkpt>
      <trkpt lat="48.07887" lon="7.19681">
        <ele>781</ele>
        <time>2011-06-06T10:35:26Z</time>
      </trkpt>
      <trkpt lat="48.07896" lon="7.19677">
        <ele>782</ele>
        <time>2011-06-06T10:35:30Z</time>
      </trkpt>
      <trkpt lat="48.07907" lon="7.19674">
        <ele>784</ele>
        <time>2011-06-06T10:35:34Z</time>
      </trkpt>
      <trkpt lat="48.07916" lon="7.19671">
        <ele>785</ele>
        <time>2011-06-06T10:35:38Z</time>
      </trkpt>
      <trkpt lat="48.07924" lon="7.19668">
        <ele>788</ele>
        <time>2011-06-06T10:35:41Z</time>
      </trkpt>
      <trkpt lat="48.07925" lon="7.19667">
        <ele>788</ele>
        <time>2011-06-06T10:35:42Z</time>
      </trkpt>
      <trkpt lat="48.07937" lon="7.19666">
        <ele>786</ele>
        <time>2011-06-06T10:35:46Z</time>
      </trkpt>
      <trkpt lat="48.07948" lon="7.19663">
        <ele>786</ele>
        <time>2011-06-06T10:35:51Z</time>
      </trkpt>
      <trkpt lat="48.07958" lon="7.19665">
        <ele>787</ele>
        <time>2011-06-06T10:35:55Z</time>
      </trkpt>
      <trkpt lat="48.07965" lon="7.19667">
        <ele>794</ele>
        <time>2011-06-06T10:35:58Z</time>
      </trkpt>
      <trkpt lat="48.07981" lon="7.19668">
        <ele>795</ele>
        <time>2011-06-06T10:36:04Z</time>
      </trkpt>
      <trkpt lat="48.07989" lon="7.19666">
        <ele>792</ele>
        <time>2011-06-06T10:36:07Z</time>
      </trkpt>
      <trkpt lat="48.08001" lon="7.19664">
        <ele>797</ele>
        <time>2011-06-06T10:36:13Z</time>
      </trkpt>
      <trkpt lat="48.08012" lon="7.19663">
        <ele>797</ele>
        <time>2011-06-06T10:36:17Z</time>
      </trkpt>
      <trkpt lat="48.08023" lon="7.19662">
        <ele>797</ele>
        <time>2011-06-06T10:36:21Z</time>
      </trkpt>
      <trkpt lat="48.08034" lon="7.19656">
        <ele>798</ele>
        <time>2011-06-06T10:36:26Z</time>
      </trkpt>
      <trkpt lat="48.08039" lon="7.19651">
        <ele>798</ele>
        <time>2011-06-06T10:36:28Z</time>
      </trkpt>
      <trkpt lat="48.08048" lon="7.19642">
        <ele>798</ele>
        <time>2011-06-06T10:36:33Z</time>
      </trkpt>
      <trkpt lat="48.08053" lon="7.19638">
        <ele>798</ele>
        <time>2011-06-06T10:36:35Z</time>
      </trkpt>
      <trkpt lat="48.08065" lon="7.19632">
        <ele>799</ele>
        <time>2011-06-06T10:36:40Z</time>
      </trkpt>
      <trkpt lat="48.08066" lon="7.19631">
        <ele>799</ele>
        <time>2011-06-06T10:36:40Z</time>
      </trkpt>
      <trkpt lat="48.08076" lon="7.19628">
        <ele>799</ele>
        <time>2011-06-06T10:36:44Z</time>
      </trkpt>
      <trkpt lat="48.08081" lon="7.19625">
        <ele>799</ele>
        <time>2011-06-06T10:36:47Z</time>
      </trkpt>
      <trkpt lat="48.08085" lon="7.19625">
        <ele>807</ele>
        <time>2011-06-06T10:36:48Z</time>
      </trkpt>
      <trkpt lat="48.08092" lon="7.19632">
        <ele>808</ele>
        <time>2011-06-06T10:36:51Z</time>
      </trkpt>
      <trkpt lat="48.08103" lon="7.19637">
        <ele>808</ele>
        <time>2011-06-06T10:36:56Z</time>
      </trkpt>
      <trkpt lat="48.08109" lon="7.19637">
        <ele>809</ele>
        <time>2011-06-06T10:36:59Z</time>
      </trkpt>
      <trkpt lat="48.08119" lon="7.19633">
        <ele>809</ele>
        <time>2011-06-06T10:37:02Z</time>
      </trkpt>
      <trkpt lat="48.08122" lon="7.19629">
        <ele>810</ele>
        <time>2011-06-06T10:37:04Z</time>
      </trkpt>
      <trkpt lat="48.08131" lon="7.19625">
        <ele>811</ele>
        <time>2011-06-06T10:37:08Z</time>
      </trkpt>
      <trkpt lat="48.0814" lon="7.19622">
        <ele>811</ele>
        <time>2011-06-06T10:37:12Z</time>
      </trkpt>
      <trkpt lat="48.08147" lon="7.1962">
        <ele>812</ele>
        <time>2011-06-06T10:37:14Z</time>
      </trkpt>
      <trkpt lat="48.08156" lon="7.19612">
        <ele>813</ele>
        <time>2011-06-06T10:37:19Z</time>
      </trkpt>
      <trkpt lat="48.08165" lon="7.19608">
        <ele>815</ele>
        <time>2011-06-06T10:37:22Z</time>
      </trkpt>
      <trkpt lat="48.08174" lon="7.19601">
        <ele>824</ele>
        <time>2011-06-06T10:37:27Z</time>
      </trkpt>
      <trkpt lat="48.08179" lon="7.19598">
        <ele>825</ele>
        <time>2011-06-06T10:37:29Z</time>
      </trkpt>
      <trkpt lat="48.08187" lon="7.19595">
        <ele>826</ele>
        <time>2011-06-06T10:37:32Z</time>
      </trkpt>
      <trkpt lat="48.08191" lon="7.19588">
        <ele>826</ele>
        <time>2011-06-06T10:37:34Z</time>
      </trkpt>
      <trkpt lat="48.08195" lon="7.19585">
        <ele>827</ele>
        <time>2011-06-06T10:37:36Z</time>
      </trkpt>
      <trkpt lat="48.08196" lon="7.19578">
        <ele>830</ele>
        <time>2011-06-06T10:37:38Z</time>
      </trkpt>
      <trkpt lat="48.08197" lon="7.19574">
        <ele>830</ele>
        <time>2011-06-06T10:37:39Z</time>
      </trkpt>
      <trkpt lat="48.08198" lon="7.19564">
        <ele>830</ele>
        <time>2011-06-06T10:37:42Z</time>
      </trkpt>
      <trkpt lat="48.08199" lon="7.19546">
        <ele>830</ele>
        <time>2011-06-06T10:37:47Z</time>
      </trkpt>
      <trkpt lat="48.08199" lon="7.19533">
        <ele>830</ele>
        <time>2011-06-06T10:37:50Z</time>
      </trkpt>
      <trkpt lat="48.08202" lon="7.19526">
        <ele>830</ele>
        <time>2011-06-06T10:37:52Z</time>
      </trkpt>
      <trkpt lat="48.08202" lon="7.19515">
        <ele>830</ele>
        <time>2011-06-06T10:37:55Z</time>
      </trkpt>
      <trkpt lat="48.08204" lon="7.19506">
        <ele>831</ele>
        <time>2011-06-06T10:37:58Z</time>
      </trkpt>
      <trkpt lat="48.08209" lon="7.19502">
        <ele>832</ele>
        <time>2011-06-06T10:38:00Z</time>
      </trkpt>
      <trkpt lat="48.08208" lon="7.19498">
        <ele>832</ele>
        <time>2011-06-06T10:38:01Z</time>
      </trkpt>
      <trkpt lat="48.08209" lon="7.19492">
        <ele>832</ele>
        <time>2011-06-06T10:38:03Z</time>
      </trkpt>
      <trkpt lat="48.08213" lon="7.19489">
        <ele>833</ele>
        <time>2011-06-06T10:38:04Z</time>
      </trkpt>
      <trkpt lat="48.08213" lon="7.19489">
        <ele>833</ele>
        <time>2011-06-06T10:38:04Z</time>
      </trkpt>
      <trkpt lat="48.08214" lon="7.19486">
        <ele>834</ele>
        <time>2011-06-06T10:38:05Z</time>
      </trkpt>
      <trkpt lat="48.08213" lon="7.19486">
        <ele>833</ele>
        <time>2011-06-06T10:38:06Z</time>
      </trkpt>
      <trkpt lat="48.08213" lon="7.19483">
        <ele>833</ele>
        <time>2011-06-06T10:38:07Z</time>
      </trkpt>
      <trkpt lat="48.08213" lon="7.19468">
        <ele>833</ele>
        <time>2011-06-06T10:38:11Z</time>
      </trkpt>
      <trkpt lat="48.08214" lon="7.19446">
        <ele>834</ele>
        <time>2011-06-06T10:38:17Z</time>
      </trkpt>
      <trkpt lat="48.08218" lon="7.19423">
        <ele>836</ele>
        <time>2011-06-06T10:38:23Z</time>
      </trkpt>
      <trkpt lat="48.08219" lon="7.19397">
        <ele>838</ele>
        <time>2011-06-06T10:38:30Z</time>
      </trkpt>
      <trkpt lat="48.08214" lon="7.19373">
        <ele>836</ele>
        <time>2011-06-06T10:38:37Z</time>
      </trkpt>
      <trkpt lat="48.08205" lon="7.19344">
        <ele>834</ele>
        <time>2011-06-06T10:38:45Z</time>
      </trkpt>
      <trkpt lat="48.08198" lon="7.1932">
        <ele>837</ele>
        <time>2011-06-06T10:38:52Z</time>
      </trkpt>
      <trkpt lat="48.08189" lon="7.19286">
        <ele>837</ele>
        <time>2011-06-06T10:39:02Z</time>
      </trkpt>
      <trkpt lat="48.08183" lon="7.19268">
        <ele>836</ele>
        <time>2011-06-06T10:39:07Z</time>
      </trkpt>
      <trkpt lat="48.08179" lon="7.19249">
        <ele>836</ele>
        <time>2011-06-06T10:39:13Z</time>
      </trkpt>
      <trkpt lat="48.08177" lon="7.19228">
        <ele>839</ele>
        <time>2011-06-06T10:39:18Z</time>
      </trkpt>
      <trkpt lat="48.08178" lon="7.19232">
        <ele>839</ele>
        <time>2011-06-06T10:39:19Z</time>
      </trkpt>
      <trkpt lat="48.08181" lon="7.19249">
        <ele>837</ele>
        <time>2011-06-06T10:39:24Z</time>
      </trkpt>
      <trkpt lat="48.08185" lon="7.19267">
        <ele>836</ele>
        <time>2011-06-06T10:39:29Z</time>
      </trkpt>
      <trkpt lat="48.08194" lon="7.19296">
        <ele>838</ele>
        <time>2011-06-06T10:39:38Z</time>
      </trkpt>
      <trkpt lat="48.08201" lon="7.19319">
        <ele>838</ele>
        <time>2011-06-06T10:39:45Z</time>
      </trkpt>
      <trkpt lat="48.08204" lon="7.19338">
        <ele>834</ele>
        <time>2011-06-06T10:39:50Z</time>
      </trkpt>
      <trkpt lat="48.08208" lon="7.19352">
        <ele>835</ele>
        <time>2011-06-06T10:39:54Z</time>
      </trkpt>
      <trkpt lat="48.08212" lon="7.19366">
        <ele>836</ele>
        <time>2011-06-06T10:39:58Z</time>
      </trkpt>
      <trkpt lat="48.08216" lon="7.1938">
        <ele>837</ele>
        <time>2011-06-06T10:40:02Z</time>
      </trkpt>
      <trkpt lat="48.08218" lon="7.19393">
        <ele>837</ele>
        <time>2011-06-06T10:40:06Z</time>
      </trkpt>
      <trkpt lat="48.0822" lon="7.19391">
        <ele>838</ele>
        <time>2011-06-06T10:40:07Z</time>
      </trkpt>
      <trkpt lat="48.08214" lon="7.19371">
        <ele>836</ele>
        <time>2011-06-06T10:40:13Z</time>
      </trkpt>
      <trkpt lat="48.08206" lon="7.19345">
        <ele>834</ele>
        <time>2011-06-06T10:40:20Z</time>
      </trkpt>
      <trkpt lat="48.08194" lon="7.19297">
        <ele>838</ele>
        <time>2011-06-06T10:40:34Z</time>
      </trkpt>
      <trkpt lat="48.08184" lon="7.19268">
        <ele>836</ele>
        <time>2011-06-06T10:40:43Z</time>
      </trkpt>
      <trkpt lat="48.08178" lon="7.19235">
        <ele>838</ele>
        <time>2011-06-06T10:40:52Z</time>
      </trkpt>
      <trkpt lat="48.08176" lon="7.19213">
        <ele>842</ele>
        <time>2011-06-06T10:40:58Z</time>
      </trkpt>
      <trkpt lat="48.08174" lon="7.19185">
        <ele>840</ele>
        <time>2011-06-06T10:41:05Z</time>
      </trkpt>
      <trkpt lat="48.08174" lon="7.1916">
        <ele>837</ele>
        <time>2011-06-06T10:41:12Z</time>
      </trkpt>
      <trkpt lat="48.0818" lon="7.19127">
        <ele>841</ele>
        <time>2011-06-06T10:41:21Z</time>
      </trkpt>
      <trkpt lat="48.08192" lon="7.19101">
        <ele>841</ele>
        <time>2011-06-06T10:41:30Z</time>
      </trkpt>
      <trkpt lat="48.08204" lon="7.19079">
        <ele>837</ele>
        <time>2011-06-06T10:41:37Z</time>
      </trkpt>
      <trkpt lat="48.08217" lon="7.19057">
        <ele>838</ele>
        <time>2011-06-06T10:41:45Z</time>
      </trkpt>
      <trkpt lat="48.08225" lon="7.19043">
        <ele>838</ele>
        <time>2011-06-06T10:41:50Z</time>
      </trkpt>
      <trkpt lat="48.08236" lon="7.19025">
        <ele>839</ele>
        <time>2011-06-06T10:41:57Z</time>
      </trkpt>
      <trkpt lat="48.08247" lon="7.19011">
        <ele>840</ele>
        <time>2011-06-06T10:42:02Z</time>
      </trkpt>
      <trkpt lat="48.08251" lon="7.19007">
        <ele>848</ele>
        <time>2011-06-06T10:42:04Z</time>
      </trkpt>
      <trkpt lat="48.08251" lon="7.19005">
        <ele>847</ele>
        <time>2011-06-06T10:42:05Z</time>
      </trkpt>
      <trkpt lat="48.08261" lon="7.18995">
        <ele>845</ele>
        <time>2011-06-06T10:42:10Z</time>
      </trkpt>
      <trkpt lat="48.08263" lon="7.18994">
        <ele>845</ele>
        <time>2011-06-06T10:42:10Z</time>
      </trkpt>
      <trkpt lat="48.08268" lon="7.18999">
        <ele>846</ele>
        <time>2011-06-06T10:42:13Z</time>
      </trkpt>
      <trkpt lat="48.08267" lon="7.19004">
        <ele>854</ele>
        <time>2011-06-06T10:42:14Z</time>
      </trkpt>
      <trkpt lat="48.0827" lon="7.19003">
        <ele>855</ele>
        <time>2011-06-06T10:42:16Z</time>
      </trkpt>
      <trkpt lat="48.08271" lon="7.19002">
        <ele>856</ele>
        <time>2011-06-06T10:42:16Z</time>
      </trkpt>
      <trkpt lat="48.08277" lon="7.18991">
        <ele>847</ele>
        <time>2011-06-06T10:42:20Z</time>
      </trkpt>
      <trkpt lat="48.08289" lon="7.18979">
        <ele>849</ele>
        <time>2011-06-06T10:42:26Z</time>
      </trkpt>
      <trkpt lat="48.08299" lon="7.18974">
        <ele>850</ele>
        <time>2011-06-06T10:42:30Z</time>
      </trkpt>
      <trkpt lat="48.08311" lon="7.18965">
        <ele>851</ele>
        <time>2011-06-06T10:42:35Z</time>
      </trkpt>
      <trkpt lat="48.08322" lon="7.18958">
        <ele>852</ele>
        <time>2011-06-06T10:42:40Z</time>
      </trkpt>
      <trkpt lat="48.08333" lon="7.18951">
        <ele>852</ele>
        <time>2011-06-06T10:42:45Z</time>
      </trkpt>
      <trkpt lat="48.08341" lon="7.18944">
        <ele>868</ele>
        <time>2011-06-06T10:42:49Z</time>
      </trkpt>
      <trkpt lat="48.08345" lon="7.1894">
        <ele>868</ele>
        <time>2011-06-06T10:42:51Z</time>
      </trkpt>
      <trkpt lat="48.08355" lon="7.18935">
        <ele>869</ele>
        <time>2011-06-06T10:42:55Z</time>
      </trkpt>
      <trkpt lat="48.08364" lon="7.18931">
        <ele>871</ele>
        <time>2011-06-06T10:42:58Z</time>
      </trkpt>
      <trkpt lat="48.08371" lon="7.18927">
        <ele>872</ele>
        <time>2011-06-06T10:43:01Z</time>
      </trkpt>
      <trkpt lat="48.08378" lon="7.1892">
        <ele>874</ele>
        <time>2011-06-06T10:43:05Z</time>
      </trkpt>
      <trkpt lat="48.08386" lon="7.18903">
        <ele>868</ele>
        <time>2011-06-06T10:43:11Z</time>
      </trkpt>
      <trkpt lat="48.08386" lon="7.18881">
        <ele>866</ele>
        <time>2011-06-06T10:43:16Z</time>
      </trkpt>
      <trkpt lat="48.08386" lon="7.18861">
        <ele>866</ele>
        <time>2011-06-06T10:43:22Z</time>
      </trkpt>
      <trkpt lat="48.08387" lon="7.18848">
        <ele>866</ele>
        <time>2011-06-06T10:43:25Z</time>
      </trkpt>
      <trkpt lat="48.0839" lon="7.18831">
        <ele>864</ele>
        <time>2011-06-06T10:43:30Z</time>
      </trkpt>
      <trkpt lat="48.08391" lon="7.18827">
        <ele>864</ele>
        <time>2011-06-06T10:43:31Z</time>
      </trkpt>
      <trkpt lat="48.08391" lon="7.18805">
        <ele>862</ele>
        <time>2011-06-06T10:43:37Z</time>
      </trkpt>
      <trkpt lat="48.08392" lon="7.18789">
        <ele>861</ele>
        <time>2011-06-06T10:43:41Z</time>
      </trkpt>
      <trkpt lat="48.08392" lon="7.18786">
        <ele>861</ele>
        <time>2011-06-06T10:43:42Z</time>
      </trkpt>
      <trkpt lat="48.08396" lon="7.18769">
        <ele>863</ele>
        <time>2011-06-06T10:43:47Z</time>
      </trkpt>
      <trkpt lat="48.08403" lon="7.18755">
        <ele>866</ele>
        <time>2011-06-06T10:43:51Z</time>
      </trkpt>
      <trkpt lat="48.08411" lon="7.18744">
        <ele>869</ele>
        <time>2011-06-06T10:43:56Z</time>
      </trkpt>
      <trkpt lat="48.08415" lon="7.18741">
        <ele>869</ele>
        <time>2011-06-06T10:43:58Z</time>
      </trkpt>
      <trkpt lat="48.0842" lon="7.18732">
        <ele>882</ele>
        <time>2011-06-06T10:44:01Z</time>
      </trkpt>
      <trkpt lat="48.08425" lon="7.18721">
        <ele>884</ele>
        <time>2011-06-06T10:44:04Z</time>
      </trkpt>
      <trkpt lat="48.0843" lon="7.18714">
        <ele>885</ele>
        <time>2011-06-06T10:44:07Z</time>
      </trkpt>
      <trkpt lat="48.08432" lon="7.18712">
        <ele>886</ele>
        <time>2011-06-06T10:44:08Z</time>
      </trkpt>
      <trkpt lat="48.08436" lon="7.18703">
        <ele>886</ele>
        <time>2011-06-06T10:44:11Z</time>
      </trkpt>
      <trkpt lat="48.08438" lon="7.18696">
        <ele>886</ele>
        <time>2011-06-06T10:44:13Z</time>
      </trkpt>
      <trkpt lat="48.08439" lon="7.18693">
        <ele>886</ele>
        <time>2011-06-06T10:44:14Z</time>
      </trkpt>
      <trkpt lat="48.08439" lon="7.1869">
        <ele>886</ele>
        <time>2011-06-06T10:44:15Z</time>
      </trkpt>
      <trkpt lat="48.08444" lon="7.18681">
        <ele>887</ele>
        <time>2011-06-06T10:44:18Z</time>
      </trkpt>
      <trkpt lat="48.08446" lon="7.18674">
        <ele>887</ele>
        <time>2011-06-06T10:44:20Z</time>
      </trkpt>
      <trkpt lat="48.08448" lon="7.18667">
        <ele>888</ele>
        <time>2011-06-06T10:44:22Z</time>
      </trkpt>
      <trkpt lat="48.08455" lon="7.18658">
        <ele>890</ele>
        <time>2011-06-06T10:44:25Z</time>
      </trkpt>
      <trkpt lat="48.08456" lon="7.18655">
        <ele>890</ele>
        <time>2011-06-06T10:44:26Z</time>
      </trkpt>
      <trkpt lat="48.08458" lon="7.18648">
        <ele>891</ele>
        <time>2011-06-06T10:44:28Z</time>
      </trkpt>
      <trkpt lat="48.08459" lon="7.1864">
        <ele>891</ele>
        <time>2011-06-06T10:44:31Z</time>
      </trkpt>
      <trkpt lat="48.0846" lon="7.18628">
        <ele>891</ele>
        <time>2011-06-06T10:44:34Z</time>
      </trkpt>
      <trkpt lat="48.08465" lon="7.18617">
        <ele>892</ele>
        <time>2011-06-06T10:44:37Z</time>
      </trkpt>
      <trkpt lat="48.08466" lon="7.18607">
        <ele>892</ele>
        <time>2011-06-06T10:44:40Z</time>
      </trkpt>
      <trkpt lat="48.08465" lon="7.18605">
        <ele>892</ele>
        <time>2011-06-06T10:44:41Z</time>
      </trkpt>
      <trkpt lat="48.08471" lon="7.18608">
        <ele>893</ele>
        <time>2011-06-06T10:44:43Z</time>
      </trkpt>
      <trkpt lat="48.08471" lon="7.18608">
        <ele>893</ele>
        <time>2011-06-06T10:44:43Z</time>
      </trkpt>
      <trkpt lat="48.08473" lon="7.18607">
        <ele>893</ele>
        <time>2011-06-06T10:44:44Z</time>
      </trkpt>
      <trkpt lat="48.08469" lon="7.18592">
        <ele>893</ele>
        <time>2011-06-06T10:44:49Z</time>
      </trkpt>
      <trkpt lat="48.08461" lon="7.18583">
        <ele>892</ele>
        <time>2011-06-06T10:44:53Z</time>
      </trkpt>
      <trkpt lat="48.08449" lon="7.18573">
        <ele>893</ele>
        <time>2011-06-06T10:44:58Z</time>
      </trkpt>
      <trkpt lat="48.08433" lon="7.18557">
        <ele>892</ele>
        <time>2011-06-06T10:45:06Z</time>
      </trkpt>
      <trkpt lat="48.08421" lon="7.18536">
        <ele>893</ele>
        <time>2011-06-06T10:45:13Z</time>
      </trkpt>
      <trkpt lat="48.0841" lon="7.18516">
        <ele>885</ele>
        <time>2011-06-06T10:45:20Z</time>
      </trkpt>
      <trkpt lat="48.08398" lon="7.18491">
        <ele>889</ele>
        <time>2011-06-06T10:45:29Z</time>
      </trkpt>
      <trkpt lat="48.0839" lon="7.18472">
        <ele>888</ele>
        <time>2011-06-06T10:45:34Z</time>
      </trkpt>
      <trkpt lat="48.08377" lon="7.18451">
        <ele>888</ele>
        <time>2011-06-06T10:45:42Z</time>
      </trkpt>
      <trkpt lat="48.08371" lon="7.18443">
        <ele>887</ele>
        <time>2011-06-06T10:45:45Z</time>
      </trkpt>
      <trkpt lat="48.08359" lon="7.18428">
        <ele>886</ele>
        <time>2011-06-06T10:45:52Z</time>
      </trkpt>
      <trkpt lat="48.08345" lon="7.18411">
        <ele>888</ele>
        <time>2011-06-06T10:45:59Z</time>
      </trkpt>
      <trkpt lat="48.08325" lon="7.18386">
        <ele>876</ele>
        <time>2011-06-06T10:46:09Z</time>
      </trkpt>
      <trkpt lat="48.08301" lon="7.18353">
        <ele>875</ele>
        <time>2011-06-06T10:46:22Z</time>
      </trkpt>
      <trkpt lat="48.08288" lon="7.18327">
        <ele>880</ele>
        <time>2011-06-06T10:46:31Z</time>
      </trkpt>
      <trkpt lat="48.08278" lon="7.183">
        <ele>880</ele>
        <time>2011-06-06T10:46:39Z</time>
      </trkpt>
      <trkpt lat="48.08268" lon="7.18273">
        <ele>879</ele>
        <time>2011-06-06T10:46:47Z</time>
      </trkpt>
      <trkpt lat="48.08262" lon="7.18257">
        <ele>876</ele>
        <time>2011-06-06T10:46:52Z</time>
      </trkpt>
      <trkpt lat="48.08248" lon="7.18233">
        <ele>867</ele>
        <time>2011-06-06T10:47:01Z</time>
      </trkpt>
      <trkpt lat="48.08241" lon="7.18223">
        <ele>867</ele>
        <time>2011-06-06T10:47:05Z</time>
      </trkpt>
      <trkpt lat="48.0823" lon="7.18201">
        <ele>868</ele>
        <time>2011-06-06T10:47:12Z</time>
      </trkpt>
      <trkpt lat="48.08214" lon="7.18174">
        <ele>867</ele>
        <time>2011-06-06T10:47:22Z</time>
      </trkpt>
      <trkpt lat="48.0821" lon="7.18168">
        <ele>866</ele>
        <time>2011-06-06T10:47:24Z</time>
      </trkpt>
      <trkpt lat="48.08209" lon="7.18168">
        <ele>866</ele>
        <time>2011-06-06T10:47:24Z</time>
      </trkpt>
      <trkpt lat="48.0821" lon="7.18169">
        <ele>866</ele>
        <time>2011-06-06T10:47:25Z</time>
      </trkpt>
      <trkpt lat="48.08219" lon="7.18179">
        <ele>869</ele>
        <time>2011-06-06T10:47:29Z</time>
      </trkpt>
      <trkpt lat="48.08224" lon="7.18186">
        <ele>869</ele>
        <time>2011-06-06T10:47:32Z</time>
      </trkpt>
      <trkpt lat="48.08233" lon="7.18202">
        <ele>868</ele>
        <time>2011-06-06T10:47:38Z</time>
      </trkpt>
      <trkpt lat="48.08244" lon="7.18218">
        <ele>868</ele>
        <time>2011-06-06T10:47:44Z</time>
      </trkpt>
      <trkpt lat="48.08248" lon="7.18225">
        <ele>867</ele>
        <time>2011-06-06T10:47:46Z</time>
      </trkpt>
      <trkpt lat="48.08252" lon="7.18229">
        <ele>884</ele>
        <time>2011-06-06T10:47:48Z</time>
      </trkpt>
      <trkpt lat="48.08255" lon="7.18216">
        <ele>889</ele>
        <time>2011-06-06T10:47:52Z</time>
      </trkpt>
      <trkpt lat="48.08246" lon="7.18201">
        <ele>870</ele>
        <time>2011-06-06T10:47:57Z</time>
      </trkpt>
      <trkpt lat="48.08231" lon="7.18179">
        <ele>873</ele>
        <time>2011-06-06T10:48:06Z</time>
      </trkpt>
      <trkpt lat="48.08223" lon="7.18162">
        <ele>884</ele>
        <time>2011-06-06T10:48:11Z</time>
      </trkpt>
      <trkpt lat="48.08212" lon="7.18139">
        <ele>883</ele>
        <time>2011-06-06T10:48:19Z</time>
      </trkpt>
      <trkpt lat="48.08198" lon="7.18116">
        <ele>883</ele>
        <time>2011-06-06T10:48:27Z</time>
      </trkpt>
      <trkpt lat="48.08181" lon="7.18087">
        <ele>881</ele>
        <time>2011-06-06T10:48:37Z</time>
      </trkpt>
      <trkpt lat="48.08168" lon="7.18066">
        <ele>894</ele>
        <time>2011-06-06T10:48:45Z</time>
      </trkpt>
      <trkpt lat="48.08153" lon="7.18052">
        <ele>884</ele>
        <time>2011-06-06T10:48:52Z</time>
      </trkpt>
      <trkpt lat="48.08135" lon="7.18036">
        <ele>886</ele>
        <time>2011-06-06T10:49:00Z</time>
      </trkpt>
      <trkpt lat="48.08114" lon="7.18018">
        <ele>887</ele>
        <time>2011-06-06T10:49:10Z</time>
      </trkpt>
      <trkpt lat="48.08093" lon="7.18009">
        <ele>888</ele>
        <time>2011-06-06T10:49:19Z</time>
      </trkpt>
      <trkpt lat="48.08069" lon="7.18007">
        <ele>879</ele>
        <time>2011-06-06T10:49:28Z</time>
      </trkpt>
      <trkpt lat="48.08048" lon="7.17998">
        <ele>895</ele>
        <time>2011-06-06T10:49:37Z</time>
      </trkpt>
      <trkpt lat="48.08031" lon="7.17989">
        <ele>893</ele>
        <time>2011-06-06T10:49:44Z</time>
      </trkpt>
      <trkpt lat="48.08011" lon="7.17982">
        <ele>890</ele>
        <time>2011-06-06T10:49:53Z</time>
      </trkpt>
      <trkpt lat="48.07992" lon="7.17968">
        <ele>885</ele>
        <time>2011-06-06T10:50:01Z</time>
      </trkpt>
      <trkpt lat="48.07974" lon="7.17953">
        <ele>889</ele>
        <time>2011-06-06T10:50:10Z</time>
      </trkpt>
      <trkpt lat="48.07958" lon="7.17947">
        <ele>888</ele>
        <time>2011-06-06T10:50:16Z</time>
      </trkpt>
      <trkpt lat="48.07945" lon="7.17942">
        <ele>888</ele>
        <time>2011-06-06T10:50:21Z</time>
      </trkpt>
      <trkpt lat="48.0794" lon="7.17941">
        <ele>888</ele>
        <time>2011-06-06T10:50:24Z</time>
      </trkpt>
      <trkpt lat="48.07924" lon="7.1793">
        <ele>891</ele>
        <time>2011-06-06T10:50:31Z</time>
      </trkpt>
      <trkpt lat="48.07906" lon="7.17915">
        <ele>895</ele>
        <time>2011-06-06T10:50:39Z</time>
      </trkpt>
      <trkpt lat="48.07891" lon="7.17904">
        <ele>895</ele>
        <time>2011-06-06T10:50:45Z</time>
      </trkpt>
      <trkpt lat="48.07882" lon="7.17891">
        <ele>895</ele>
        <time>2011-06-06T10:50:50Z</time>
      </trkpt>
      <trkpt lat="48.07867" lon="7.1786">
        <ele>897</ele>
        <time>2011-06-06T10:51:01Z</time>
      </trkpt>
      <trkpt lat="48.07854" lon="7.17833">
        <ele>904</ele>
        <time>2011-06-06T10:51:09Z</time>
      </trkpt>
      <trkpt lat="48.07844" lon="7.17813">
        <ele>904</ele>
        <time>2011-06-06T10:51:16Z</time>
      </trkpt>
      <trkpt lat="48.07841" lon="7.17778">
        <ele>907</ele>
        <time>2011-06-06T10:51:26Z</time>
      </trkpt>
      <trkpt lat="48.07841" lon="7.17742">
        <ele>905</ele>
        <time>2011-06-06T10:51:35Z</time>
      </trkpt>
      <trkpt lat="48.07841" lon="7.1771">
        <ele>908</ele>
        <time>2011-06-06T10:51:44Z</time>
      </trkpt>
      <trkpt lat="48.07843" lon="7.17679">
        <ele>904</ele>
        <time>2011-06-06T10:51:52Z</time>
      </trkpt>
      <trkpt lat="48.07846" lon="7.17651">
        <ele>902</ele>
        <time>2011-06-06T10:52:00Z</time>
      </trkpt>
      <trkpt lat="48.07852" lon="7.17617">
        <ele>902</ele>
        <time>2011-06-06T10:52:09Z</time>
      </trkpt>
      <trkpt lat="48.0786" lon="7.17594">
        <ele>901</ele>
        <time>2011-06-06T10:52:16Z</time>
      </trkpt>
      <trkpt lat="48.07869" lon="7.17568">
        <ele>897</ele>
        <time>2011-06-06T10:52:24Z</time>
      </trkpt>
      <trkpt lat="48.07883" lon="7.17545">
        <ele>899</ele>
        <time>2011-06-06T10:52:32Z</time>
      </trkpt>
      <trkpt lat="48.07897" lon="7.17531">
        <ele>900</ele>
        <time>2011-06-06T10:52:39Z</time>
      </trkpt>
      <trkpt lat="48.07911" lon="7.17523">
        <ele>901</ele>
        <time>2011-06-06T10:52:45Z</time>
      </trkpt>
      <trkpt lat="48.07923" lon="7.17522">
        <ele>912</ele>
        <time>2011-06-06T10:52:50Z</time>
      </trkpt>
      <trkpt lat="48.07935" lon="7.17519">
        <ele>912</ele>
        <time>2011-06-06T10:52:55Z</time>
      </trkpt>
      <trkpt lat="48.07949" lon="7.17511">
        <ele>914</ele>
        <time>2011-06-06T10:53:01Z</time>
      </trkpt>
      <trkpt lat="48.0796" lon="7.17494">
        <ele>912</ele>
        <time>2011-06-06T10:53:07Z</time>
      </trkpt>
      <trkpt lat="48.07962" lon="7.1749">
        <ele>912</ele>
        <time>2011-06-06T10:53:08Z</time>
      </trkpt>
      <trkpt lat="48.0797" lon="7.17469">
        <ele>912</ele>
        <time>2011-06-06T10:53:15Z</time>
      </trkpt>
      <trkpt lat="48.07976" lon="7.17454">
        <ele>913</ele>
        <time>2011-06-06T10:53:19Z</time>
      </trkpt>
      <trkpt lat="48.07983" lon="7.17429">
        <ele>915</ele>
        <time>2011-06-06T10:53:27Z</time>
      </trkpt>
      <trkpt lat="48.07986" lon="7.17406">
        <ele>915</ele>
        <time>2011-06-06T10:53:33Z</time>
      </trkpt>
      <trkpt lat="48.07986" lon="7.17381">
        <ele>914</ele>
        <time>2011-06-06T10:53:40Z</time>
      </trkpt>
      <trkpt lat="48.07983" lon="7.17346">
        <ele>916</ele>
        <time>2011-06-06T10:53:49Z</time>
      </trkpt>
      <trkpt lat="48.07978" lon="7.1732">
        <ele>918</ele>
        <time>2011-06-06T10:53:56Z</time>
      </trkpt>
      <trkpt lat="48.07971" lon="7.17291">
        <ele>918</ele>
        <time>2011-06-06T10:54:05Z</time>
      </trkpt>
      <trkpt lat="48.0796" lon="7.17261">
        <ele>918</ele>
        <time>2011-06-06T10:54:14Z</time>
      </trkpt>
      <trkpt lat="48.07947" lon="7.17237">
        <ele>922</ele>
        <time>2011-06-06T10:54:22Z</time>
      </trkpt>
      <trkpt lat="48.07936" lon="7.17215">
        <ele>923</ele>
        <time>2011-06-06T10:54:29Z</time>
      </trkpt>
      <trkpt lat="48.07924" lon="7.17193">
        <ele>924</ele>
        <time>2011-06-06T10:54:37Z</time>
      </trkpt>
      <trkpt lat="48.07916" lon="7.17166">
        <ele>925</ele>
        <time>2011-06-06T10:54:45Z</time>
      </trkpt>
      <trkpt lat="48.07909" lon="7.17139">
        <ele>919</ele>
        <time>2011-06-06T10:54:52Z</time>
      </trkpt>
      <trkpt lat="48.07903" lon="7.17118">
        <ele>919</ele>
        <time>2011-06-06T10:54:59Z</time>
      </trkpt>
      <trkpt lat="48.07893" lon="7.17092">
        <ele>920</ele>
        <time>2011-06-06T10:55:07Z</time>
      </trkpt>
      <trkpt lat="48.0788" lon="7.17061">
        <ele>920</ele>
        <time>2011-06-06T10:55:16Z</time>
      </trkpt>
      <trkpt lat="48.07876" lon="7.1704">
        <ele>920</ele>
        <time>2011-06-06T10:55:22Z</time>
      </trkpt>
      <trkpt lat="48.07875" lon="7.1702">
        <ele>920</ele>
        <time>2011-06-06T10:55:27Z</time>
      </trkpt>
      <trkpt lat="48.07872" lon="7.17001">
        <ele>919</ele>
        <time>2011-06-06T10:55:33Z</time>
      </trkpt>
      <trkpt lat="48.07866" lon="7.1698">
        <ele>921</ele>
        <time>2011-06-06T10:55:39Z</time>
      </trkpt>
      <trkpt lat="48.07858" lon="7.16957">
        <ele>921</ele>
        <time>2011-06-06T10:55:46Z</time>
      </trkpt>
      <trkpt lat="48.07846" lon="7.16914">
        <ele>920</ele>
        <time>2011-06-06T10:55:58Z</time>
      </trkpt>
      <trkpt lat="48.07838" lon="7.16883">
        <ele>922</ele>
        <time>2011-06-06T10:56:07Z</time>
      </trkpt>
      <trkpt lat="48.07832" lon="7.1685">
        <ele>912</ele>
        <time>2011-06-06T10:56:16Z</time>
      </trkpt>
      <trkpt lat="48.07829" lon="7.16822">
        <ele>915</ele>
        <time>2011-06-06T10:56:24Z</time>
      </trkpt>
      <trkpt lat="48.07828" lon="7.16795">
        <ele>912</ele>
        <time>2011-06-06T10:56:31Z</time>
      </trkpt>
      <trkpt lat="48.07826" lon="7.16771">
        <ele>914</ele>
        <time>2011-06-06T10:56:38Z</time>
      </trkpt>
      <trkpt lat="48.07831" lon="7.16743">
        <ele>919</ele>
        <time>2011-06-06T10:56:45Z</time>
      </trkpt>
      <trkpt lat="48.07832" lon="7.16727">
        <ele>916</ele>
        <time>2011-06-06T10:56:50Z</time>
      </trkpt>
      <trkpt lat="48.07832" lon="7.16705">
        <ele>915</ele>
        <time>2011-06-06T10:56:55Z</time>
      </trkpt>
      <trkpt lat="48.07833" lon="7.16681">
        <ele>919</ele>
        <time>2011-06-06T10:57:02Z</time>
      </trkpt>
      <trkpt lat="48.07831" lon="7.16655">
        <ele>921</ele>
        <time>2011-06-06T10:57:09Z</time>
      </trkpt>
      <trkpt lat="48.07829" lon="7.16615">
        <ele>920</ele>
        <time>2011-06-06T10:57:20Z</time>
      </trkpt>
      <trkpt lat="48.07826" lon="7.1659">
        <ele>925</ele>
        <time>2011-06-06T10:57:26Z</time>
      </trkpt>
      <trkpt lat="48.07818" lon="7.16552">
        <ele>925</ele>
        <time>2011-06-06T10:57:37Z</time>
      </trkpt>
      <trkpt lat="48.07812" lon="7.16525">
        <ele>927</ele>
        <time>2011-06-06T10:57:45Z</time>
      </trkpt>
      <trkpt lat="48.07806" lon="7.16499">
        <ele>932</ele>
        <time>2011-06-06T10:57:52Z</time>
      </trkpt>
      <trkpt lat="48.07802" lon="7.16481">
        <ele>931</ele>
        <time>2011-06-06T10:57:57Z</time>
      </trkpt>
      <trkpt lat="48.07797" lon="7.16456">
        <ele>931</ele>
        <time>2011-06-06T10:58:04Z</time>
      </trkpt>
      <trkpt lat="48.0779" lon="7.16429">
        <ele>931</ele>
        <time>2011-06-06T10:58:12Z</time>
      </trkpt>
      <trkpt lat="48.07786" lon="7.16405">
        <ele>934</ele>
        <time>2011-06-06T10:58:19Z</time>
      </trkpt>
      <trkpt lat="48.07784" lon="7.16379">
        <ele>934</ele>
        <time>2011-06-06T10:58:25Z</time>
      </trkpt>
      <trkpt lat="48.07788" lon="7.16344">
        <ele>934</ele>
        <time>2011-06-06T10:58:35Z</time>
      </trkpt>
      <trkpt lat="48.07795" lon="7.16326">
        <ele>933</ele>
        <time>2011-06-06T10:58:41Z</time>
      </trkpt>
      <trkpt lat="48.07804" lon="7.16305">
        <ele>934</ele>
        <time>2011-06-06T10:58:47Z</time>
      </trkpt>
      <trkpt lat="48.07813" lon="7.16284">
        <ele>934</ele>
        <time>2011-06-06T10:58:54Z</time>
      </trkpt>
      <trkpt lat="48.07823" lon="7.16262">
        <ele>936</ele>
        <time>2011-06-06T10:59:01Z</time>
      </trkpt>
      <trkpt lat="48.07831" lon="7.16236">
        <ele>932</ele>
        <time>2011-06-06T10:59:09Z</time>
      </trkpt>
      <trkpt lat="48.07833" lon="7.16218">
        <ele>928</ele>
        <time>2011-06-06T10:59:14Z</time>
      </trkpt>
      <trkpt lat="48.07837" lon="7.16201">
        <ele>944</ele>
        <time>2011-06-06T10:59:18Z</time>
      </trkpt>
      <trkpt lat="48.0785" lon="7.16156">
        <ele>939</ele>
        <time>2011-06-06T10:59:31Z</time>
      </trkpt>
      <trkpt lat="48.0786" lon="7.16136">
        <ele>942</ele>
        <time>2011-06-06T10:59:38Z</time>
      </trkpt>
      <trkpt lat="48.07867" lon="7.16116">
        <ele>943</ele>
        <time>2011-06-06T10:59:44Z</time>
      </trkpt>
      <trkpt lat="48.07874" lon="7.16093">
        <ele>944</ele>
        <time>2011-06-06T10:59:51Z</time>
      </trkpt>
      <trkpt lat="48.07877" lon="7.16081">
        <ele>942</ele>
        <time>2011-06-06T10:59:55Z</time>
      </trkpt>
      <trkpt lat="48.07879" lon="7.16057">
        <ele>941</ele>
        <time>2011-06-06T11:00:01Z</time>
      </trkpt>
      <trkpt lat="48.07881" lon="7.16027">
        <ele>941</ele>
        <time>2011-06-06T11:00:09Z</time>
      </trkpt>
      <trkpt lat="48.07883" lon="7.15987">
        <ele>941</ele>
        <time>2011-06-06T11:00:20Z</time>
      </trkpt>
      <trkpt lat="48.07883" lon="7.15955">
        <ele>941</ele>
        <time>2011-06-06T11:00:28Z</time>
      </trkpt>
      <trkpt lat="48.07885" lon="7.15922">
        <ele>943</ele>
        <time>2011-06-06T11:00:37Z</time>
      </trkpt>
      <trkpt lat="48.07884" lon="7.15886">
        <ele>944</ele>
        <time>2011-06-06T11:00:47Z</time>
      </trkpt>
      <trkpt lat="48.0788" lon="7.15851">
        <ele>944</ele>
        <time>2011-06-06T11:00:56Z</time>
      </trkpt>
      <trkpt lat="48.07877" lon="7.15819">
        <ele>945</ele>
        <time>2011-06-06T11:01:05Z</time>
      </trkpt>
      <trkpt lat="48.07873" lon="7.15767">
        <ele>944</ele>
        <time>2011-06-06T11:01:19Z</time>
      </trkpt>
      <trkpt lat="48.07874" lon="7.15743">
        <ele>946</ele>
        <time>2011-06-06T11:01:25Z</time>
      </trkpt>
      <trkpt lat="48.07876" lon="7.15723">
        <ele>947</ele>
        <time>2011-06-06T11:01:31Z</time>
      </trkpt>
      <trkpt lat="48.07878" lon="7.15703">
        <ele>948</ele>
        <time>2011-06-06T11:01:36Z</time>
      </trkpt>
      <trkpt lat="48.0788" lon="7.15676">
        <ele>949</ele>
        <time>2011-06-06T11:01:44Z</time>
      </trkpt>
      <trkpt lat="48.07885" lon="7.15658">
        <ele>953</ele>
        <time>2011-06-06T11:01:49Z</time>
      </trkpt>
      <trkpt lat="48.07888" lon="7.15654">
        <ele>954</ele>
        <time>2011-06-06T11:01:50Z</time>
      </trkpt>
      <trkpt lat="48.07902" lon="7.15645">
        <ele>956</ele>
        <time>2011-06-06T11:01:57Z</time>
      </trkpt>
      <trkpt lat="48.07912" lon="7.15637">
        <ele>957</ele>
        <time>2011-06-06T11:02:01Z</time>
      </trkpt>
      <trkpt lat="48.07917" lon="7.15634">
        <ele>964</ele>
        <time>2011-06-06T11:02:03Z</time>
      </trkpt>
      <trkpt lat="48.07924" lon="7.15623">
        <ele>964</ele>
        <time>2011-06-06T11:02:07Z</time>
      </trkpt>
      <trkpt lat="48.07932" lon="7.15606">
        <ele>964</ele>
        <time>2011-06-06T11:02:13Z</time>
      </trkpt>
      <trkpt lat="48.07937" lon="7.15591">
        <ele>965</ele>
        <time>2011-06-06T11:02:17Z</time>
      </trkpt>
      <trkpt lat="48.07939" lon="7.15576">
        <ele>967</ele>
        <time>2011-06-06T11:02:21Z</time>
      </trkpt>
      <trkpt lat="48.07941" lon="7.15571">
        <ele>967</ele>
        <time>2011-06-06T11:02:23Z</time>
      </trkpt>
      <trkpt lat="48.07938" lon="7.15565">
        <ele>967</ele>
        <time>2011-06-06T11:02:25Z</time>
      </trkpt>
      <trkpt lat="48.07924" lon="7.15565">
        <ele>967</ele>
        <time>2011-06-06T11:02:30Z</time>
      </trkpt>
      <trkpt lat="48.07908" lon="7.15566">
        <ele>962</ele>
        <time>2011-06-06T11:02:37Z</time>
      </trkpt>
      <trkpt lat="48.0789" lon="7.15562">
        <ele>959</ele>
        <time>2011-06-06T11:02:44Z</time>
      </trkpt>
      <trkpt lat="48.07882" lon="7.15556">
        <ele>958</ele>
        <time>2011-06-06T11:02:48Z</time>
      </trkpt>
      <trkpt lat="48.07868" lon="7.15532">
        <ele>957</ele>
        <time>2011-06-06T11:02:56Z</time>
      </trkpt>
      <trkpt lat="48.07868" lon="7.15509">
        <ele>957</ele>
        <time>2011-06-06T11:03:02Z</time>
      </trkpt>
      <trkpt lat="48.07864" lon="7.15488">
        <ele>959</ele>
        <time>2011-06-06T11:03:08Z</time>
      </trkpt>
      <trkpt lat="48.07862" lon="7.15476">
        <ele>959</ele>
        <time>2011-06-06T11:03:12Z</time>
      </trkpt>
      <trkpt lat="48.07863" lon="7.1547">
        <ele>959</ele>
        <time>2011-06-06T11:03:13Z</time>
      </trkpt>
      <trkpt lat="48.07865" lon="7.1546">
        <ele>959</ele>
        <time>2011-06-06T11:03:16Z</time>
      </trkpt>
      <trkpt lat="48.07867" lon="7.1546">
        <ele>960</ele>
        <time>2011-06-06T11:03:17Z</time>
      </trkpt>
      <trkpt lat="48.07869" lon="7.15455">
        <ele>960</ele>
        <time>2011-06-06T11:03:18Z</time>
      </trkpt>
      <trkpt lat="48.07867" lon="7.15436">
        <ele>960</ele>
        <time>2011-06-06T11:03:24Z</time>
      </trkpt>
      <trkpt lat="48.07859" lon="7.15422">
        <ele>958</ele>
        <time>2011-06-06T11:03:28Z</time>
      </trkpt>
      <trkpt lat="48.07859" lon="7.15404">
        <ele>960</ele>
        <time>2011-06-06T11:03:33Z</time>
      </trkpt>
      <trkpt lat="48.07864" lon="7.15375">
        <ele>962</ele>
        <time>2011-06-06T11:03:41Z</time>
      </trkpt>
      <trkpt lat="48.07862" lon="7.15347">
        <ele>962</ele>
        <time>2011-06-06T11:03:49Z</time>
      </trkpt>
      <trkpt lat="48.07853" lon="7.15319">
        <ele>962</ele>
        <time>2011-06-06T11:03:57Z</time>
      </trkpt>
      <trkpt lat="48.07847" lon="7.15295">
        <ele>963</ele>
        <time>2011-06-06T11:04:04Z</time>
      </trkpt>
      <trkpt lat="48.07843" lon="7.15266">
        <ele>961</ele>
        <time>2011-06-06T11:04:12Z</time>
      </trkpt>
      <trkpt lat="48.07842" lon="7.15236">
        <ele>961</ele>
        <time>2011-06-06T11:04:20Z</time>
      </trkpt>
      <trkpt lat="48.07843" lon="7.1521">
        <ele>965</ele>
        <time>2011-06-06T11:04:27Z</time>
      </trkpt>
      <trkpt lat="48.07844" lon="7.1518">
        <ele>962</ele>
        <time>2011-06-06T11:04:35Z</time>
      </trkpt>
      <trkpt lat="48.07844" lon="7.1515">
        <ele>963</ele>
        <time>2011-06-06T11:04:43Z</time>
      </trkpt>
      <trkpt lat="48.07842" lon="7.15139">
        <ele>965</ele>
        <time>2011-06-06T11:04:46Z</time>
      </trkpt>
      <trkpt lat="48.07838" lon="7.15133">
        <ele>965</ele>
        <time>2011-06-06T11:04:48Z</time>
      </trkpt>
      <trkpt lat="48.07838" lon="7.15115">
        <ele>965</ele>
        <time>2011-06-06T11:04:53Z</time>
      </trkpt>
      <trkpt lat="48.07837" lon="7.15087">
        <ele>959</ele>
        <time>2011-06-06T11:05:01Z</time>
      </trkpt>
      <trkpt lat="48.07835" lon="7.15065">
        <ele>965</ele>
        <time>2011-06-06T11:05:06Z</time>
      </trkpt>
      <trkpt lat="48.07832" lon="7.15053">
        <ele>947</ele>
        <time>2011-06-06T11:05:10Z</time>
      </trkpt>
      <trkpt lat="48.07826" lon="7.15032">
        <ele>948</ele>
        <time>2011-06-06T11:05:16Z</time>
      </trkpt>
      <trkpt lat="48.07814" lon="7.15013">
        <ele>950</ele>
        <time>2011-06-06T11:05:23Z</time>
      </trkpt>
      <trkpt lat="48.07802" lon="7.14999">
        <ele>956</ele>
        <time>2011-06-06T11:05:29Z</time>
      </trkpt>
      <trkpt lat="48.07789" lon="7.14982">
        <ele>952</ele>
        <time>2011-06-06T11:05:36Z</time>
      </trkpt>
      <trkpt lat="48.07777" lon="7.14971">
        <ele>950</ele>
        <time>2011-06-06T11:05:41Z</time>
      </trkpt>
      <trkpt lat="48.07771" lon="7.14964">
        <ele>949</ele>
        <time>2011-06-06T11:05:45Z</time>
      </trkpt>
      <trkpt lat="48.07755" lon="7.14948">
        <ele>949</ele>
        <time>2011-06-06T11:05:52Z</time>
      </trkpt>
      <trkpt lat="48.07743" lon="7.14935">
        <ele>929</ele>
        <time>2011-06-06T11:05:58Z</time>
      </trkpt>
      <trkpt lat="48.07732" lon="7.14923">
        <ele>928</ele>
        <time>2011-06-06T11:06:04Z</time>
      </trkpt>
      <trkpt lat="48.07721" lon="7.14913">
        <ele>941</ele>
        <time>2011-06-06T11:06:09Z</time>
      </trkpt>
      <trkpt lat="48.07707" lon="7.14902">
        <ele>939</ele>
        <time>2011-06-06T11:06:15Z</time>
      </trkpt>
      <trkpt lat="48.07695" lon="7.14894">
        <ele>937</ele>
        <time>2011-06-06T11:06:20Z</time>
      </trkpt>
      <trkpt lat="48.07674" lon="7.14883">
        <ele>936</ele>
        <time>2011-06-06T11:06:29Z</time>
      </trkpt>
      <trkpt lat="48.07661" lon="7.14874">
        <ele>921</ele>
        <time>2011-06-06T11:06:35Z</time>
      </trkpt>
      <trkpt lat="48.0765" lon="7.14867">
        <ele>922</ele>
        <time>2011-06-06T11:06:40Z</time>
      </trkpt>
      <trkpt lat="48.07643" lon="7.14864">
        <ele>921</ele>
        <time>2011-06-06T11:06:43Z</time>
      </trkpt>
      <trkpt lat="48.07622" lon="7.14848">
        <ele>919</ele>
        <time>2011-06-06T11:06:52Z</time>
      </trkpt>
      <trkpt lat="48.07618" lon="7.14844">
        <ele>918</ele>
        <time>2011-06-06T11:06:54Z</time>
      </trkpt>
      <trkpt lat="48.07602" lon="7.1483">
        <ele>924</ele>
        <time>2011-06-06T11:07:01Z</time>
      </trkpt>
      <trkpt lat="48.07582" lon="7.14809">
        <ele>907</ele>
        <time>2011-06-06T11:07:11Z</time>
      </trkpt>
      <trkpt lat="48.07578" lon="7.14803">
        <ele>907</ele>
        <time>2011-06-06T11:07:14Z</time>
      </trkpt>
      <trkpt lat="48.0757" lon="7.14791">
        <ele>906</ele>
        <time>2011-06-06T11:07:18Z</time>
      </trkpt>
      <trkpt lat="48.07559" lon="7.1476">
        <ele>908</ele>
        <time>2011-06-06T11:07:27Z</time>
      </trkpt>
      <trkpt lat="48.07552" lon="7.14737">
        <ele>907</ele>
        <time>2011-06-06T11:07:34Z</time>
      </trkpt>
      <trkpt lat="48.07551" lon="7.14734">
        <ele>907</ele>
        <time>2011-06-06T11:07:35Z</time>
      </trkpt>
      <trkpt lat="48.07553" lon="7.14727">
        <ele>907</ele>
        <time>2011-06-06T11:07:37Z</time>
      </trkpt>
      <trkpt lat="48.07559" lon="7.14715">
        <ele>907</ele>
        <time>2011-06-06T11:07:41Z</time>
      </trkpt>
      <trkpt lat="48.07562" lon="7.14705">
        <ele>907</ele>
        <time>2011-06-06T11:07:44Z</time>
      </trkpt>
      <trkpt lat="48.07567" lon="7.14696">
        <ele>908</ele>
        <time>2011-06-06T11:07:47Z</time>
      </trkpt>
      <trkpt lat="48.0757" lon="7.14691">
        <ele>909</ele>
        <time>2011-06-06T11:07:49Z</time>
      </trkpt>
      <trkpt lat="48.07569" lon="7.14685">
        <ele>909</ele>
        <time>2011-06-06T11:07:51Z</time>
      </trkpt>
      <trkpt lat="48.07575" lon="7.14683">
        <ele>910</ele>
        <time>2011-06-06T11:07:53Z</time>
      </trkpt>
      <trkpt lat="48.07579" lon="7.14669">
        <ele>915</ele>
        <time>2011-06-06T11:07:57Z</time>
      </trkpt>
      <trkpt lat="48.07588" lon="7.14644">
        <ele>923</ele>
        <time>2011-06-06T11:08:05Z</time>
      </trkpt>
      <trkpt lat="48.07594" lon="7.14628">
        <ele>923</ele>
        <time>2011-06-06T11:08:09Z</time>
      </trkpt>
      <trkpt lat="48.07603" lon="7.14606">
        <ele>922</ele>
        <time>2011-06-06T11:08:17Z</time>
      </trkpt>
      <trkpt lat="48.07615" lon="7.14581">
        <ele>915</ele>
        <time>2011-06-06T11:08:25Z</time>
      </trkpt>
      <trkpt lat="48.07628" lon="7.14552">
        <ele>917</ele>
        <time>2011-06-06T11:08:34Z</time>
      </trkpt>
      <trkpt lat="48.07639" lon="7.14526">
        <ele>917</ele>
        <time>2011-06-06T11:08:42Z</time>
      </trkpt>
      <trkpt lat="48.07649" lon="7.14501">
        <ele>919</ele>
        <time>2011-06-06T11:08:50Z</time>
      </trkpt>
      <trkpt lat="48.07657" lon="7.14481">
        <ele>913</ele>
        <time>2011-06-06T11:08:56Z</time>
      </trkpt>
      <trkpt lat="48.07664" lon="7.14463">
        <ele>910</ele>
        <time>2011-06-06T11:09:02Z</time>
      </trkpt>
      <trkpt lat="48.07673" lon="7.14444">
        <ele>929</ele>
        <time>2011-06-06T11:09:08Z</time>
      </trkpt>
      <trkpt lat="48.07685" lon="7.14419">
        <ele>926</ele>
        <time>2011-06-06T11:09:16Z</time>
      </trkpt>
      <trkpt lat="48.07699" lon="7.14395">
        <ele>923</ele>
        <time>2011-06-06T11:09:25Z</time>
      </trkpt>
      <trkpt lat="48.07708" lon="7.1438">
        <ele>924</ele>
        <time>2011-06-06T11:09:30Z</time>
      </trkpt>
      <trkpt lat="48.0772" lon="7.14361">
        <ele>925</ele>
        <time>2011-06-06T11:09:37Z</time>
      </trkpt>
      <trkpt lat="48.07732" lon="7.14334">
        <ele>929</ele>
        <time>2011-06-06T11:09:46Z</time>
      </trkpt>
      <trkpt lat="48.0774" lon="7.14316">
        <ele>925</ele>
        <time>2011-06-06T11:09:52Z</time>
      </trkpt>
      <trkpt lat="48.07747" lon="7.14291">
        <ele>922</ele>
        <time>2011-06-06T11:09:59Z</time>
      </trkpt>
      <trkpt lat="48.07747" lon="7.14262">
        <ele>926</ele>
        <time>2011-06-06T11:10:07Z</time>
      </trkpt>
      <trkpt lat="48.07742" lon="7.14229">
        <ele>925</ele>
        <time>2011-06-06T11:10:16Z</time>
      </trkpt>
      <trkpt lat="48.0774" lon="7.14204">
        <ele>925</ele>
        <time>2011-06-06T11:10:22Z</time>
      </trkpt>
      <trkpt lat="48.07734" lon="7.14185">
        <ele>928</ele>
        <time>2011-06-06T11:10:28Z</time>
      </trkpt>
      <trkpt lat="48.07728" lon="7.14164">
        <ele>935</ele>
        <time>2011-06-06T11:10:34Z</time>
      </trkpt>
      <trkpt lat="48.07725" lon="7.14148">
        <ele>934</ele>
        <time>2011-06-06T11:10:39Z</time>
      </trkpt>
      <trkpt lat="48.07719" lon="7.14132">
        <ele>934</ele>
        <time>2011-06-06T11:10:43Z</time>
      </trkpt>
      <trkpt lat="48.07712" lon="7.14114">
        <ele>934</ele>
        <time>2011-06-06T11:10:49Z</time>
      </trkpt>
      <trkpt lat="48.07699" lon="7.14096">
        <ele>933</ele>
        <time>2011-06-06T11:10:56Z</time>
      </trkpt>
      <trkpt lat="48.07697" lon="7.14092">
        <ele>932</ele>
        <time>2011-06-06T11:10:57Z</time>
      </trkpt>
      <trkpt lat="48.07683" lon="7.14074">
        <ele>938</ele>
        <time>2011-06-06T11:11:05Z</time>
      </trkpt>
      <trkpt lat="48.07669" lon="7.14058">
        <ele>940</ele>
        <time>2011-06-06T11:11:12Z</time>
      </trkpt>
      <trkpt lat="48.07656" lon="7.14041">
        <ele>923</ele>
        <time>2011-06-06T11:11:19Z</time>
      </trkpt>
      <trkpt lat="48.07649" lon="7.14034">
        <ele>923</ele>
        <time>2011-06-06T11:11:22Z</time>
      </trkpt>
      <trkpt lat="48.07648" lon="7.14034">
        <ele>923</ele>
        <time>2011-06-06T11:11:23Z</time>
      </trkpt>
      <trkpt lat="48.07643" lon="7.14035">
        <ele>922</ele>
        <time>2011-06-06T11:11:25Z</time>
      </trkpt>
      <trkpt lat="48.07639" lon="7.14031">
        <ele>921</ele>
        <time>2011-06-06T11:11:27Z</time>
      </trkpt>
      <trkpt lat="48.07625" lon="7.14019">
        <ele>920</ele>
        <time>2011-06-06T11:11:33Z</time>
      </trkpt>
      <trkpt lat="48.07617" lon="7.14009">
        <ele>918</ele>
        <time>2011-06-06T11:11:37Z</time>
      </trkpt>
      <trkpt lat="48.07609" lon="7.13989">
        <ele>921</ele>
        <time>2011-06-06T11:11:44Z</time>
      </trkpt>
      <trkpt lat="48.0761" lon="7.13966">
        <ele>922</ele>
        <time>2011-06-06T11:11:50Z</time>
      </trkpt>
      <trkpt lat="48.07628" lon="7.13902">
        <ele>923</ele>
        <time>2011-06-06T11:12:08Z</time>
      </trkpt>
      <trkpt lat="48.07639" lon="7.13865">
        <ele>924</ele>
        <time>2011-06-06T11:12:19Z</time>
      </trkpt>
      <trkpt lat="48.07646" lon="7.13838">
        <ele>928</ele>
        <time>2011-06-06T11:12:27Z</time>
      </trkpt>
      <trkpt lat="48.07646" lon="7.13817">
        <ele>923</ele>
        <time>2011-06-06T11:12:33Z</time>
      </trkpt>
      <trkpt lat="48.07644" lon="7.13791">
        <ele>920</ele>
        <time>2011-06-06T11:12:40Z</time>
      </trkpt>
      <trkpt lat="48.07643" lon="7.13767">
        <ele>921</ele>
        <time>2011-06-06T11:12:46Z</time>
      </trkpt>
      <trkpt lat="48.07641" lon="7.13749">
        <ele>921</ele>
        <time>2011-06-06T11:12:51Z</time>
      </trkpt>
      <trkpt lat="48.07632" lon="7.13722">
        <ele>918</ele>
        <time>2011-06-06T11:12:59Z</time>
      </trkpt>
      <trkpt lat="48.07623" lon="7.13695">
        <ele>917</ele>
        <time>2011-06-06T11:13:07Z</time>
      </trkpt>
      <trkpt lat="48.0762" lon="7.13689">
        <ele>917</ele>
        <time>2011-06-06T11:13:09Z</time>
      </trkpt>
      <trkpt lat="48.07609" lon="7.13666">
        <ele>921</ele>
        <time>2011-06-06T11:13:17Z</time>
      </trkpt>
      <trkpt lat="48.07596" lon="7.13639">
        <ele>922</ele>
        <time>2011-06-06T11:13:25Z</time>
      </trkpt>
      <trkpt lat="48.07587" lon="7.13619">
        <ele>926</ele>
        <time>2011-06-06T11:13:32Z</time>
      </trkpt>
      <trkpt lat="48.07561" lon="7.1358">
        <ele>926</ele>
        <time>2011-06-06T11:13:47Z</time>
      </trkpt>
      <trkpt lat="48.07549" lon="7.13574">
        <ele>926</ele>
        <time>2011-06-06T11:13:52Z</time>
      </trkpt>
      <trkpt lat="48.07539" lon="7.13569">
        <ele>925</ele>
        <time>2011-06-06T11:13:56Z</time>
      </trkpt>
      <trkpt lat="48.07518" lon="7.1356">
        <ele>923</ele>
        <time>2011-06-06T11:14:05Z</time>
      </trkpt>
      <trkpt lat="48.07502" lon="7.13558">
        <ele>921</ele>
        <time>2011-06-06T11:14:11Z</time>
      </trkpt>
      <trkpt lat="48.0749" lon="7.13559">
        <ele>912</ele>
        <time>2011-06-06T11:14:16Z</time>
      </trkpt>
      <trkpt lat="48.07479" lon="7.13566">
        <ele>911</ele>
        <time>2011-06-06T11:14:21Z</time>
      </trkpt>
      <trkpt lat="48.07466" lon="7.13571">
        <ele>910</ele>
        <time>2011-06-06T11:14:26Z</time>
      </trkpt>
      <trkpt lat="48.07451" lon="7.13567">
        <ele>909</ele>
        <time>2011-06-06T11:14:32Z</time>
      </trkpt>
      <trkpt lat="48.07441" lon="7.13559">
        <ele>909</ele>
        <time>2011-06-06T11:14:37Z</time>
      </trkpt>
      <trkpt lat="48.0743" lon="7.13549">
        <ele>909</ele>
        <time>2011-06-06T11:14:42Z</time>
      </trkpt>
      <trkpt lat="48.07423" lon="7.13545">
        <ele>910</ele>
        <time>2011-06-06T11:14:45Z</time>
      </trkpt>
      <trkpt lat="48.07415" lon="7.13527">
        <ele>899</ele>
        <time>2011-06-06T11:14:51Z</time>
      </trkpt>
      <trkpt lat="48.07415" lon="7.13524">
        <ele>900</ele>
        <time>2011-06-06T11:14:51Z</time>
      </trkpt>
      <trkpt lat="48.07412" lon="7.13506">
        <ele>909</ele>
        <time>2011-06-06T11:14:56Z</time>
      </trkpt>
      <trkpt lat="48.0741" lon="7.13487">
        <ele>912</ele>
        <time>2011-06-06T11:15:01Z</time>
      </trkpt>
      <trkpt lat="48.07405" lon="7.1347">
        <ele>911</ele>
        <time>2011-06-06T11:15:06Z</time>
      </trkpt>
      <trkpt lat="48.07402" lon="7.13451">
        <ele>913</ele>
        <time>2011-06-06T11:15:12Z</time>
      </trkpt>
      <trkpt lat="48.07397" lon="7.13428">
        <ele>917</ele>
        <time>2011-06-06T11:15:18Z</time>
      </trkpt>
      <trkpt lat="48.07392" lon="7.13413">
        <ele>926</ele>
        <time>2011-06-06T11:15:22Z</time>
      </trkpt>
      <trkpt lat="48.07388" lon="7.13396">
        <ele>925</ele>
        <time>2011-06-06T11:15:27Z</time>
      </trkpt>
      <trkpt lat="48.07384" lon="7.13383">
        <ele>926</ele>
        <time>2011-06-06T11:15:31Z</time>
      </trkpt>
      <trkpt lat="48.07382" lon="7.13371">
        <ele>926</ele>
        <time>2011-06-06T11:15:35Z</time>
      </trkpt>
      <trkpt lat="48.07375" lon="7.13349">
        <ele>927</ele>
        <time>2011-06-06T11:15:41Z</time>
      </trkpt>
      <trkpt lat="48.07378" lon="7.13348">
        <ele>928</ele>
        <time>2011-06-06T11:15:42Z</time>
      </trkpt>
      <trkpt lat="48.07378" lon="7.1335">
        <ele>928</ele>
        <time>2011-06-06T11:15:43Z</time>
      </trkpt>
      <trkpt lat="48.07388" lon="7.13367">
        <ele>928</ele>
        <time>2011-06-06T11:15:49Z</time>
      </trkpt>
      <trkpt lat="48.07399" lon="7.1339">
        <ele>927</ele>
        <time>2011-06-06T11:15:56Z</time>
      </trkpt>
      <trkpt lat="48.07411" lon="7.13413">
        <ele>929</ele>
        <time>2011-06-06T11:16:04Z</time>
      </trkpt>
      <trkpt lat="48.07419" lon="7.13432">
        <ele>932</ele>
        <time>2011-06-06T11:16:10Z</time>
      </trkpt>
      <trkpt lat="48.07425" lon="7.13447">
        <ele>932</ele>
        <time>2011-06-06T11:16:15Z</time>
      </trkpt>
      <trkpt lat="48.07432" lon="7.13473">
        <ele>929</ele>
        <time>2011-06-06T11:16:22Z</time>
      </trkpt>
      <trkpt lat="48.07441" lon="7.13498">
        <ele>927</ele>
        <time>2011-06-06T11:16:30Z</time>
      </trkpt>
      <trkpt lat="48.07455" lon="7.13517">
        <ele>916</ele>
        <time>2011-06-06T11:16:38Z</time>
      </trkpt>
      <trkpt lat="48.07469" lon="7.1352">
        <ele>917</ele>
        <time>2011-06-06T11:16:43Z</time>
      </trkpt>
      <trkpt lat="48.07474" lon="7.13518">
        <ele>919</ele>
        <time>2011-06-06T11:16:45Z</time>
      </trkpt>
      <trkpt lat="48.07494" lon="7.13501">
        <ele>930</ele>
        <time>2011-06-06T11:16:54Z</time>
      </trkpt>
      <trkpt lat="48.07515" lon="7.13485">
        <ele>944</ele>
        <time>2011-06-06T11:17:04Z</time>
      </trkpt>
      <trkpt lat="48.07532" lon="7.1348">
        <ele>948</ele>
        <time>2011-06-06T11:17:11Z</time>
      </trkpt>
      <trkpt lat="48.07552" lon="7.13479">
        <ele>950</ele>
        <time>2011-06-06T11:17:19Z</time>
      </trkpt>
      <trkpt lat="48.07569" lon="7.13482">
        <ele>950</ele>
        <time>2011-06-06T11:17:26Z</time>
      </trkpt>
      <trkpt lat="48.0758" lon="7.13493">
        <ele>948</ele>
        <time>2011-06-06T11:17:31Z</time>
      </trkpt>
      <trkpt lat="48.07597" lon="7.13511">
        <ele>947</ele>
        <time>2011-06-06T11:17:39Z</time>
      </trkpt>
      <trkpt lat="48.07606" lon="7.13522">
        <ele>947</ele>
        <time>2011-06-06T11:17:44Z</time>
      </trkpt>
      <trkpt lat="48.07619" lon="7.13539">
        <ele>947</ele>
        <time>2011-06-06T11:17:51Z</time>
      </trkpt>
      <trkpt lat="48.07633" lon="7.13556">
        <ele>948</ele>
        <time>2011-06-06T11:17:58Z</time>
      </trkpt>
      <trkpt lat="48.07655" lon="7.13582">
        <ele>951</ele>
        <time>2011-06-06T11:18:09Z</time>
      </trkpt>
      <trkpt lat="48.07666" lon="7.13601">
        <ele>942</ele>
        <time>2011-06-06T11:18:16Z</time>
      </trkpt>
      <trkpt lat="48.07681" lon="7.13627">
        <ele>957</ele>
        <time>2011-06-06T11:18:25Z</time>
      </trkpt>
      <trkpt lat="48.0769" lon="7.13656">
        <ele>954</ele>
        <time>2011-06-06T11:18:34Z</time>
      </trkpt>
      <trkpt lat="48.07699" lon="7.13689">
        <ele>952</ele>
        <time>2011-06-06T11:18:43Z</time>
      </trkpt>
      <trkpt lat="48.07705" lon="7.13705">
        <ele>954</ele>
        <time>2011-06-06T11:18:48Z</time>
      </trkpt>
      <trkpt lat="48.07708" lon="7.13718">
        <ele>954</ele>
        <time>2011-06-06T11:18:52Z</time>
      </trkpt>
      <trkpt lat="48.07718" lon="7.13716">
        <ele>956</ele>
        <time>2011-06-06T11:18:56Z</time>
      </trkpt>
      <trkpt lat="48.07718" lon="7.13713">
        <ele>956</ele>
        <time>2011-06-06T11:18:56Z</time>
      </trkpt>
      <trkpt lat="48.07719" lon="7.13703">
        <ele>957</ele>
        <time>2011-06-06T11:18:59Z</time>
      </trkpt>
      <trkpt lat="48.07719" lon="7.1369">
        <ele>958</ele>
        <time>2011-06-06T11:19:03Z</time>
      </trkpt>
      <trkpt lat="48.07719" lon="7.13686">
        <ele>958</ele>
        <time>2011-06-06T11:19:04Z</time>
      </trkpt>
      <trkpt lat="48.0772" lon="7.13671">
        <ele>959</ele>
        <time>2011-06-06T11:19:08Z</time>
      </trkpt>
      <trkpt lat="48.07718" lon="7.1366">
        <ele>963</ele>
        <time>2011-06-06T11:19:11Z</time>
      </trkpt>
      <trkpt lat="48.07714" lon="7.13645">
        <ele>962</ele>
        <time>2011-06-06T11:19:15Z</time>
      </trkpt>
      <trkpt lat="48.07715" lon="7.13631">
        <ele>963</ele>
        <time>2011-06-06T11:19:19Z</time>
      </trkpt>
      <trkpt lat="48.07717" lon="7.13616">
        <ele>964</ele>
        <time>2011-06-06T11:19:23Z</time>
      </trkpt>
      <trkpt lat="48.07719" lon="7.13608">
        <ele>965</ele>
        <time>2011-06-06T11:19:25Z</time>
      </trkpt>
      <trkpt lat="48.07718" lon="7.136">
        <ele>966</ele>
        <time>2011-06-06T11:19:27Z</time>
      </trkpt>
      <trkpt lat="48.0772" lon="7.13594">
        <ele>966</ele>
        <time>2011-06-06T11:19:29Z</time>
      </trkpt>
      <trkpt lat="48.07721" lon="7.1358">
        <ele>973</ele>
        <time>2011-06-06T11:19:33Z</time>
      </trkpt>
      <trkpt lat="48.07721" lon="7.13575">
        <ele>973</ele>
        <time>2011-06-06T11:19:34Z</time>
      </trkpt>
      <trkpt lat="48.07718" lon="7.13558">
        <ele>972</ele>
        <time>2011-06-06T11:19:39Z</time>
      </trkpt>
      <trkpt lat="48.07717" lon="7.1355">
        <ele>972</ele>
        <time>2011-06-06T11:19:41Z</time>
      </trkpt>
      <trkpt lat="48.07715" lon="7.13536">
        <ele>973</ele>
        <time>2011-06-06T11:19:45Z</time>
      </trkpt>
      <trkpt lat="48.07715" lon="7.13524">
        <ele>973</ele>
        <time>2011-06-06T11:19:48Z</time>
      </trkpt>
      <trkpt lat="48.07713" lon="7.13504">
        <ele>974</ele>
        <time>2011-06-06T11:19:53Z</time>
      </trkpt>
      <trkpt lat="48.07715" lon="7.1349">
        <ele>977</ele>
        <time>2011-06-06T11:19:57Z</time>
      </trkpt>
      <trkpt lat="48.07718" lon="7.1347">
        <ele>977</ele>
        <time>2011-06-06T11:20:03Z</time>
      </trkpt>
      <trkpt lat="48.0772" lon="7.13452">
        <ele>977</ele>
        <time>2011-06-06T11:20:08Z</time>
      </trkpt>
      <trkpt lat="48.07724" lon="7.13442">
        <ele>977</ele>
        <time>2011-06-06T11:20:11Z</time>
      </trkpt>
      <trkpt lat="48.07728" lon="7.13432">
        <ele>978</ele>
        <time>2011-06-06T11:20:14Z</time>
      </trkpt>
      <trkpt lat="48.07736" lon="7.13415">
        <ele>978</ele>
        <time>2011-06-06T11:20:19Z</time>
      </trkpt>
      <trkpt lat="48.07742" lon="7.13397">
        <ele>977</ele>
        <time>2011-06-06T11:20:25Z</time>
      </trkpt>
      <trkpt lat="48.07748" lon="7.13379">
        <ele>976</ele>
        <time>2011-06-06T11:20:30Z</time>
      </trkpt>
      <trkpt lat="48.07755" lon="7.13366">
        <ele>979</ele>
        <time>2011-06-06T11:20:35Z</time>
      </trkpt>
      <trkpt lat="48.07758" lon="7.13362">
        <ele>978</ele>
        <time>2011-06-06T11:20:36Z</time>
      </trkpt>
      <trkpt lat="48.07758" lon="7.13359">
        <ele>978</ele>
        <time>2011-06-06T11:20:37Z</time>
      </trkpt>
      <trkpt lat="48.07759" lon="7.13356">
        <ele>978</ele>
        <time>2011-06-06T11:20:38Z</time>
      </trkpt>
      <trkpt lat="48.07772" lon="7.13339">
        <ele>978</ele>
        <time>2011-06-06T11:20:45Z</time>
      </trkpt>
      <trkpt lat="48.07781" lon="7.13316">
        <ele>972</ele>
        <time>2011-06-06T11:20:52Z</time>
      </trkpt>
      <trkpt lat="48.07781" lon="7.13296">
        <ele>971</ele>
        <time>2011-06-06T11:20:57Z</time>
      </trkpt>
      <trkpt lat="48.07783" lon="7.13265">
        <ele>969</ele>
        <time>2011-06-06T11:21:06Z</time>
      </trkpt>
      <trkpt lat="48.0778" lon="7.13238">
        <ele>964</ele>
        <time>2011-06-06T11:21:13Z</time>
      </trkpt>
      <trkpt lat="48.0778" lon="7.1319">
        <ele>962</ele>
        <time>2011-06-06T11:21:26Z</time>
      </trkpt>
      <trkpt lat="48.07781" lon="7.13141">
        <ele>958</ele>
        <time>2011-06-06T11:21:39Z</time>
      </trkpt>
      <trkpt lat="48.0778" lon="7.1308">
        <ele>953</ele>
        <time>2011-06-06T11:21:55Z</time>
      </trkpt>
      <trkpt lat="48.07781" lon="7.1305">
        <ele>952</ele>
        <time>2011-06-06T11:22:03Z</time>
      </trkpt>
      <trkpt lat="48.07784" lon="7.13031">
        <ele>951</ele>
        <time>2011-06-06T11:22:08Z</time>
      </trkpt>
      <trkpt lat="48.07784" lon="7.13031">
        <ele>951</ele>
        <time>2011-06-06T11:22:09Z</time>
      </trkpt>
      <trkpt lat="48.07785" lon="7.1303">
        <ele>951</ele>
        <time>2011-06-06T11:22:09Z</time>
      </trkpt>
      <trkpt lat="48.07787" lon="7.13024">
        <ele>951</ele>
        <time>2011-06-06T11:22:11Z</time>
      </trkpt>
      <trkpt lat="48.07796" lon="7.1301">
        <ele>951</ele>
        <time>2011-06-06T11:22:16Z</time>
      </trkpt>
      <trkpt lat="48.07806" lon="7.12995">
        <ele>947</ele>
        <time>2011-06-06T11:22:22Z</time>
      </trkpt>
      <trkpt lat="48.07812" lon="7.12986">
        <ele>947</ele>
        <time>2011-06-06T11:22:25Z</time>
      </trkpt>
      <trkpt lat="48.07817" lon="7.12977">
        <ele>947</ele>
        <time>2011-06-06T11:22:29Z</time>
      </trkpt>
      <trkpt lat="48.07819" lon="7.12953">
        <ele>946</ele>
        <time>2011-06-06T11:22:35Z</time>
      </trkpt>
      <trkpt lat="48.07815" lon="7.12906">
        <ele>942</ele>
        <time>2011-06-06T11:22:48Z</time>
      </trkpt>
      <trkpt lat="48.07814" lon="7.12887">
        <ele>941</ele>
        <time>2011-06-06T11:22:53Z</time>
      </trkpt>
      <trkpt lat="48.07812" lon="7.12883">
        <ele>941</ele>
        <time>2011-06-06T11:22:54Z</time>
      </trkpt>
      <trkpt lat="48.07813" lon="7.12882">
        <ele>941</ele>
        <time>2011-06-06T11:22:54Z</time>
      </trkpt>
      <trkpt lat="48.07823" lon="7.12875">
        <ele>941</ele>
        <time>2011-06-06T11:22:59Z</time>
      </trkpt>
      <trkpt lat="48.07839" lon="7.1286">
        <ele>946</ele>
        <time>2011-06-06T11:23:07Z</time>
      </trkpt>
      <trkpt lat="48.07849" lon="7.12834">
        <ele>946</ele>
        <time>2011-06-06T11:23:15Z</time>
      </trkpt>
      <trkpt lat="48.07854" lon="7.12808">
        <ele>948</ele>
        <time>2011-06-06T11:23:22Z</time>
      </trkpt>
      <trkpt lat="48.07854" lon="7.12799">
        <ele>948</ele>
        <time>2011-06-06T11:23:24Z</time>
      </trkpt>
      <trkpt lat="48.07855" lon="7.12796">
        <ele>948</ele>
        <time>2011-06-06T11:23:25Z</time>
      </trkpt>
      <trkpt lat="48.07856" lon="7.12795">
        <ele>948</ele>
        <time>2011-06-06T11:23:25Z</time>
      </trkpt>
      <trkpt lat="48.07857" lon="7.12778">
        <ele>948</ele>
        <time>2011-06-06T11:23:30Z</time>
      </trkpt>
      <trkpt lat="48.07856" lon="7.12761">
        <ele>947</ele>
        <time>2011-06-06T11:23:35Z</time>
      </trkpt>
      <trkpt lat="48.07857" lon="7.1274">
        <ele>947</ele>
        <time>2011-06-06T11:23:40Z</time>
      </trkpt>
      <trkpt lat="48.0786" lon="7.12725">
        <ele>948</ele>
        <time>2011-06-06T11:23:44Z</time>
      </trkpt>
      <trkpt lat="48.07869" lon="7.127">
        <ele>949</ele>
        <time>2011-06-06T11:23:52Z</time>
      </trkpt>
      <trkpt lat="48.07878" lon="7.12683">
        <ele>949</ele>
        <time>2011-06-06T11:23:58Z</time>
      </trkpt>
      <trkpt lat="48.07884" lon="7.12662">
        <ele>945</ele>
        <time>2011-06-06T11:24:04Z</time>
      </trkpt>
      <trkpt lat="48.07895" lon="7.12638">
        <ele>945</ele>
        <time>2011-06-06T11:24:12Z</time>
      </trkpt>
      <trkpt lat="48.07906" lon="7.12629">
        <ele>944</ele>
        <time>2011-06-06T11:24:17Z</time>
      </trkpt>
      <trkpt lat="48.07918" lon="7.12623">
        <ele>943</ele>
        <time>2011-06-06T11:24:22Z</time>
      </trkpt>
      <trkpt lat="48.07927" lon="7.12619">
        <ele>943</ele>
        <time>2011-06-06T11:24:26Z</time>
      </trkpt>
      <trkpt lat="48.07943" lon="7.1262">
        <ele>943</ele>
        <time>2011-06-06T11:24:32Z</time>
      </trkpt>
      <trkpt lat="48.07959" lon="7.12616">
        <ele>942</ele>
        <time>2011-06-06T11:24:38Z</time>
      </trkpt>
      <trkpt lat="48.07964" lon="7.1261">
        <ele>942</ele>
        <time>2011-06-06T11:24:41Z</time>
      </trkpt>
      <trkpt lat="48.07985" lon="7.12587">
        <ele>939</ele>
        <time>2011-06-06T11:24:51Z</time>
      </trkpt>
      <trkpt lat="48.07992" lon="7.12583">
        <ele>937</ele>
        <time>2011-06-06T11:24:54Z</time>
      </trkpt>
      <trkpt lat="48.08012" lon="7.1256">
        <ele>936</ele>
        <time>2011-06-06T11:25:05Z</time>
      </trkpt>
      <trkpt lat="48.08032" lon="7.12525">
        <ele>936</ele>
        <time>2011-06-06T11:25:17Z</time>
      </trkpt>
      <trkpt lat="48.08043" lon="7.12507">
        <ele>936</ele>
        <time>2011-06-06T11:25:23Z</time>
      </trkpt>
      <trkpt lat="48.08054" lon="7.12472">
        <ele>939</ele>
        <time>2011-06-06T11:25:34Z</time>
      </trkpt>
      <trkpt lat="48.08049" lon="7.12451">
        <ele>940</ele>
        <time>2011-06-06T11:25:40Z</time>
      </trkpt>
      <trkpt lat="48.08044" lon="7.12417">
        <ele>940</ele>
        <time>2011-06-06T11:25:49Z</time>
      </trkpt>
      <trkpt lat="48.08041" lon="7.12385">
        <ele>942</ele>
        <time>2011-06-06T11:25:57Z</time>
      </trkpt>
      <trkpt lat="48.08039" lon="7.12357">
        <ele>942</ele>
        <time>2011-06-06T11:26:05Z</time>
      </trkpt>
      <trkpt lat="48.08036" lon="7.12313">
        <ele>941</ele>
        <time>2011-06-06T11:26:17Z</time>
      </trkpt>
      <trkpt lat="48.08039" lon="7.12299">
        <ele>941</ele>
        <time>2011-06-06T11:26:21Z</time>
      </trkpt>
      <trkpt lat="48.08048" lon="7.12279">
        <ele>942</ele>
        <time>2011-06-06T11:26:27Z</time>
      </trkpt>
      <trkpt lat="48.08067" lon="7.12251">
        <ele>944</ele>
        <time>2011-06-06T11:26:38Z</time>
      </trkpt>
      <trkpt lat="48.08093" lon="7.1222">
        <ele>946</ele>
        <time>2011-06-06T11:26:51Z</time>
      </trkpt>
      <trkpt lat="48.08103" lon="7.12209">
        <ele>946</ele>
        <time>2011-06-06T11:26:56Z</time>
      </trkpt>
      <trkpt lat="48.08104" lon="7.12209">
        <ele>946</ele>
        <time>2011-06-06T11:26:56Z</time>
      </trkpt>
      <trkpt lat="48.08104" lon="7.12207">
        <ele>946</ele>
        <time>2011-06-06T11:26:57Z</time>
      </trkpt>
      <trkpt lat="48.08106" lon="7.12204">
        <ele>946</ele>
        <time>2011-06-06T11:26:58Z</time>
      </trkpt>
      <trkpt lat="48.0811" lon="7.122">
        <ele>946</ele>
        <time>2011-06-06T11:27:00Z</time>
      </trkpt>
      <trkpt lat="48.08126" lon="7.12183">
        <ele>947</ele>
        <time>2011-06-06T11:27:08Z</time>
      </trkpt>
      <trkpt lat="48.08142" lon="7.12168">
        <ele>948</ele>
        <time>2011-06-06T11:27:16Z</time>
      </trkpt>
      <trkpt lat="48.08156" lon="7.12154">
        <ele>943</ele>
        <time>2011-06-06T11:27:22Z</time>
      </trkpt>
      <trkpt lat="48.08179" lon="7.12131">
        <ele>949</ele>
        <time>2011-06-06T11:27:33Z</time>
      </trkpt>
      <trkpt lat="48.08211" lon="7.12107">
        <ele>949</ele>
        <time>2011-06-06T11:27:47Z</time>
      </trkpt>
      <trkpt lat="48.08226" lon="7.12093">
        <ele>949</ele>
        <time>2011-06-06T11:27:55Z</time>
      </trkpt>
      <trkpt lat="48.0825" lon="7.12078">
        <ele>944</ele>
        <time>2011-06-06T11:28:05Z</time>
      </trkpt>
      <trkpt lat="48.08265" lon="7.1207">
        <ele>943</ele>
        <time>2011-06-06T11:28:11Z</time>
      </trkpt>
      <trkpt lat="48.08281" lon="7.12066">
        <ele>942</ele>
        <time>2011-06-06T11:28:18Z</time>
      </trkpt>
      <trkpt lat="48.08305" lon="7.12058">
        <ele>942</ele>
        <time>2011-06-06T11:28:28Z</time>
      </trkpt>
      <trkpt lat="48.08323" lon="7.12049">
        <ele>941</ele>
        <time>2011-06-06T11:28:35Z</time>
      </trkpt>
      <trkpt lat="48.08333" lon="7.12041">
        <ele>940</ele>
        <time>2011-06-06T11:28:40Z</time>
      </trkpt>
      <trkpt lat="48.08337" lon="7.12037">
        <ele>941</ele>
        <time>2011-06-06T11:28:42Z</time>
      </trkpt>
      <trkpt lat="48.08357" lon="7.12013">
        <ele>939</ele>
        <time>2011-06-06T11:28:52Z</time>
      </trkpt>
      <trkpt lat="48.08373" lon="7.11991">
        <ele>930</ele>
        <time>2011-06-06T11:29:01Z</time>
      </trkpt>
      <trkpt lat="48.0838" lon="7.11981">
        <ele>929</ele>
        <time>2011-06-06T11:29:05Z</time>
      </trkpt>
      <trkpt lat="48.08396" lon="7.11952">
        <ele>928</ele>
        <time>2011-06-06T11:29:15Z</time>
      </trkpt>
      <trkpt lat="48.084" lon="7.11947">
        <ele>928</ele>
        <time>2011-06-06T11:29:17Z</time>
      </trkpt>
      <trkpt lat="48.08428" lon="7.11903">
        <ele>927</ele>
        <time>2011-06-06T11:29:33Z</time>
      </trkpt>
      <trkpt lat="48.08432" lon="7.11897">
        <ele>926</ele>
        <time>2011-06-06T11:29:35Z</time>
      </trkpt>
      <trkpt lat="48.08449" lon="7.11876">
        <ele>926</ele>
        <time>2011-06-06T11:29:44Z</time>
      </trkpt>
      <trkpt lat="48.08471" lon="7.1186">
        <ele>926</ele>
        <time>2011-06-06T11:29:54Z</time>
      </trkpt>
      <trkpt lat="48.08487" lon="7.11851">
        <ele>926</ele>
        <time>2011-06-06T11:30:01Z</time>
      </trkpt>
      <trkpt lat="48.08508" lon="7.11843">
        <ele>923</ele>
        <time>2011-06-06T11:30:09Z</time>
      </trkpt>
      <trkpt lat="48.08523" lon="7.11834">
        <ele>922</ele>
        <time>2011-06-06T11:30:16Z</time>
      </trkpt>
      <trkpt lat="48.08547" lon="7.11825">
        <ele>920</ele>
        <time>2011-06-06T11:30:26Z</time>
      </trkpt>
      <trkpt lat="48.08561" lon="7.11815">
        <ele>919</ele>
        <time>2011-06-06T11:30:32Z</time>
      </trkpt>
      <trkpt lat="48.08573" lon="7.11804">
        <ele>918</ele>
        <time>2011-06-06T11:30:38Z</time>
      </trkpt>
      <trkpt lat="48.08589" lon="7.11791">
        <ele>910</ele>
        <time>2011-06-06T11:30:45Z</time>
      </trkpt>
      <trkpt lat="48.08605" lon="7.11774">
        <ele>909</ele>
        <time>2011-06-06T11:30:53Z</time>
      </trkpt>
      <trkpt lat="48.08608" lon="7.11769">
        <ele>909</ele>
        <time>2011-06-06T11:30:55Z</time>
      </trkpt>
      <trkpt lat="48.08626" lon="7.11745">
        <ele>907</ele>
        <time>2011-06-06T11:31:04Z</time>
      </trkpt>
      <trkpt lat="48.0863" lon="7.11741">
        <ele>906</ele>
        <time>2011-06-06T11:31:06Z</time>
      </trkpt>
      <trkpt lat="48.08638" lon="7.11736">
        <ele>905</ele>
        <time>2011-06-06T11:31:10Z</time>
      </trkpt>
      <trkpt lat="48.08673" lon="7.11727">
        <ele>897</ele>
        <time>2011-06-06T11:31:24Z</time>
      </trkpt>
      <trkpt lat="48.08696" lon="7.11718">
        <ele>896</ele>
        <time>2011-06-06T11:31:33Z</time>
      </trkpt>
      <trkpt lat="48.08704" lon="7.11713">
        <ele>895</ele>
        <time>2011-06-06T11:31:37Z</time>
      </trkpt>
      <trkpt lat="48.08732" lon="7.11678">
        <ele>893</ele>
        <time>2011-06-06T11:31:51Z</time>
      </trkpt>
      <trkpt lat="48.08765" lon="7.11643">
        <ele>889</ele>
        <time>2011-06-06T11:32:08Z</time>
      </trkpt>
      <trkpt lat="48.0879" lon="7.11621">
        <ele>889</ele>
        <time>2011-06-06T11:32:19Z</time>
      </trkpt>
      <trkpt lat="48.08797" lon="7.116">
        <ele>890</ele>
        <time>2011-06-06T11:32:26Z</time>
      </trkpt>
      <trkpt lat="48.08805" lon="7.11575">
        <ele>890</ele>
        <time>2011-06-06T11:32:33Z</time>
      </trkpt>
      <trkpt lat="48.0881" lon="7.11565">
        <ele>890</ele>
        <time>2011-06-06T11:32:36Z</time>
      </trkpt>
      <trkpt lat="48.08808" lon="7.11566">
        <ele>890</ele>
        <time>2011-06-06T11:32:37Z</time>
      </trkpt>
      <trkpt lat="48.08807" lon="7.11573">
        <ele>890</ele>
        <time>2011-06-06T11:32:39Z</time>
      </trkpt>
      <trkpt lat="48.08808" lon="7.11571">
        <ele>890</ele>
        <time>2011-06-06T11:32:40Z</time>
      </trkpt>
      <trkpt lat="48.08812" lon="7.11559">
        <ele>890</ele>
        <time>2011-06-06T11:32:44Z</time>
      </trkpt>
      <trkpt lat="48.0882" lon="7.11541">
        <ele>890</ele>
        <time>2011-06-06T11:32:50Z</time>
      </trkpt>
      <trkpt lat="48.0883" lon="7.1152">
        <ele>891</ele>
        <time>2011-06-06T11:32:56Z</time>
      </trkpt>
      <trkpt lat="48.08838" lon="7.11505">
        <ele>897</ele>
        <time>2011-06-06T11:33:02Z</time>
      </trkpt>
      <trkpt lat="48.08846" lon="7.1149">
        <ele>898</ele>
        <time>2011-06-06T11:33:07Z</time>
      </trkpt>
      <trkpt lat="48.08856" lon="7.11473">
        <ele>899</ele>
        <time>2011-06-06T11:33:13Z</time>
      </trkpt>
      <trkpt lat="48.08867" lon="7.11455">
        <ele>900</ele>
        <time>2011-06-06T11:33:19Z</time>
      </trkpt>
      <trkpt lat="48.08875" lon="7.11442">
        <ele>901</ele>
        <time>2011-06-06T11:33:24Z</time>
      </trkpt>
      <trkpt lat="48.0888" lon="7.11432">
        <ele>901</ele>
        <time>2011-06-06T11:33:27Z</time>
      </trkpt>
      <trkpt lat="48.08889" lon="7.11414">
        <ele>901</ele>
        <time>2011-06-06T11:33:33Z</time>
      </trkpt>
      <trkpt lat="48.08895" lon="7.11398">
        <ele>902</ele>
        <time>2011-06-06T11:33:38Z</time>
      </trkpt>
      <trkpt lat="48.08899" lon="7.11389">
        <ele>902</ele>
        <time>2011-06-06T11:33:41Z</time>
      </trkpt>
      <trkpt lat="48.08898" lon="7.11391">
        <ele>902</ele>
        <time>2011-06-06T11:33:42Z</time>
      </trkpt>
      <trkpt lat="48.08899" lon="7.11391">
        <ele>902</ele>
        <time>2011-06-06T11:33:42Z</time>
      </trkpt>
      <trkpt lat="48.08899" lon="7.11391">
        <ele>902</ele>
        <time>2011-06-06T11:33:43Z</time>
      </trkpt>
      <trkpt lat="48.08901" lon="7.11392">
        <ele>902</ele>
        <time>2011-06-06T11:33:43Z</time>
      </trkpt>
      <trkpt lat="48.08898" lon="7.11398">
        <ele>902</ele>
        <time>2011-06-06T11:33:45Z</time>
      </trkpt>
      <trkpt lat="48.08899" lon="7.11393">
        <ele>902</ele>
        <time>2011-06-06T11:33:47Z</time>
      </trkpt>
      <trkpt lat="48.08899" lon="7.11382">
        <ele>902</ele>
        <time>2011-06-06T11:33:50Z</time>
      </trkpt>
      <trkpt lat="48.08903" lon="7.11369">
        <ele>902</ele>
        <time>2011-06-06T11:33:54Z</time>
      </trkpt>
      <trkpt lat="48.08908" lon="7.11349">
        <ele>905</ele>
        <time>2011-06-06T11:33:59Z</time>
      </trkpt>
      <trkpt lat="48.08916" lon="7.11328">
        <ele>909</ele>
        <time>2011-06-06T11:34:06Z</time>
      </trkpt>
      <trkpt lat="48.0892" lon="7.11301">
        <ele>921</ele>
        <time>2011-06-06T11:34:13Z</time>
      </trkpt>
      <trkpt lat="48.08918" lon="7.11283">
        <ele>921</ele>
        <time>2011-06-06T11:34:18Z</time>
      </trkpt>
      <trkpt lat="48.08916" lon="7.11273">
        <ele>907</ele>
        <time>2011-06-06T11:34:21Z</time>
      </trkpt>
      <trkpt lat="48.08915" lon="7.11259">
        <ele>911</ele>
        <time>2011-06-06T11:34:25Z</time>
      </trkpt>
      <trkpt lat="48.08908" lon="7.11237">
        <ele>912</ele>
        <time>2011-06-06T11:34:31Z</time>
      </trkpt>
      <trkpt lat="48.08897" lon="7.11218">
        <ele>911</ele>
        <time>2011-06-06T11:34:38Z</time>
      </trkpt>
      <trkpt lat="48.08885" lon="7.11202">
        <ele>910</ele>
        <time>2011-06-06T11:34:44Z</time>
      </trkpt>
      <trkpt lat="48.08872" lon="7.1119">
        <ele>909</ele>
        <time>2011-06-06T11:34:50Z</time>
      </trkpt>
      <trkpt lat="48.08861" lon="7.11176">
        <ele>908</ele>
        <time>2011-06-06T11:34:56Z</time>
      </trkpt>
      <trkpt lat="48.08853" lon="7.11162">
        <ele>912</ele>
        <time>2011-06-06T11:35:01Z</time>
      </trkpt>
      <trkpt lat="48.08847" lon="7.11142">
        <ele>914</ele>
        <time>2011-06-06T11:35:07Z</time>
      </trkpt>
      <trkpt lat="48.0884" lon="7.11117">
        <ele>916</ele>
        <time>2011-06-06T11:35:14Z</time>
      </trkpt>
      <trkpt lat="48.08833" lon="7.11088">
        <ele>913</ele>
        <time>2011-06-06T11:35:22Z</time>
      </trkpt>
      <trkpt lat="48.08836" lon="7.11071">
        <ele>920</ele>
        <time>2011-06-06T11:35:27Z</time>
      </trkpt>
      <trkpt lat="48.08845" lon="7.11046">
        <ele>922</ele>
        <time>2011-06-06T11:35:35Z</time>
      </trkpt>
      <trkpt lat="48.08851" lon="7.11027">
        <ele>923</ele>
        <time>2011-06-06T11:35:40Z</time>
      </trkpt>
      <trkpt lat="48.08849" lon="7.11">
        <ele>922</ele>
        <time>2011-06-06T11:35:48Z</time>
      </trkpt>
      <trkpt lat="48.08847" lon="7.1097">
        <ele>925</ele>
        <time>2011-06-06T11:35:56Z</time>
      </trkpt>
      <trkpt lat="48.08852" lon="7.10935">
        <ele>925</ele>
        <time>2011-06-06T11:36:05Z</time>
      </trkpt>
      <trkpt lat="48.08856" lon="7.10904">
        <ele>927</ele>
        <time>2011-06-06T11:36:14Z</time>
      </trkpt>
      <trkpt lat="48.08855" lon="7.10869">
        <ele>927</ele>
        <time>2011-06-06T11:36:23Z</time>
      </trkpt>
      <trkpt lat="48.0885" lon="7.10837">
        <ele>926</ele>
        <time>2011-06-06T11:36:32Z</time>
      </trkpt>
      <trkpt lat="48.08843" lon="7.10788">
        <ele>925</ele>
        <time>2011-06-06T11:36:45Z</time>
      </trkpt>
      <trkpt lat="48.08843" lon="7.10779">
        <ele>924</ele>
        <time>2011-06-06T11:36:48Z</time>
      </trkpt>
      <trkpt lat="48.08849" lon="7.10739">
        <ele>919</ele>
        <time>2011-06-06T11:36:59Z</time>
      </trkpt>
      <trkpt lat="48.08851" lon="7.10731">
        <ele>920</ele>
        <time>2011-06-06T11:37:01Z</time>
      </trkpt>
      <trkpt lat="48.08866" lon="7.10707">
        <ele>920</ele>
        <time>2011-06-06T11:37:09Z</time>
      </trkpt>
      <trkpt lat="48.08886" lon="7.1068">
        <ele>920</ele>
        <time>2011-06-06T11:37:20Z</time>
      </trkpt>
      <trkpt lat="48.08899" lon="7.10661">
        <ele>916</ele>
        <time>2011-06-06T11:37:28Z</time>
      </trkpt>
      <trkpt lat="48.08929" lon="7.10634">
        <ele>919</ele>
        <time>2011-06-06T11:37:42Z</time>
      </trkpt>
      <trkpt lat="48.08956" lon="7.1061">
        <ele>919</ele>
        <time>2011-06-06T11:37:54Z</time>
      </trkpt>
      <trkpt lat="48.08988" lon="7.10585">
        <ele>918</ele>
        <time>2011-06-06T11:38:09Z</time>
      </trkpt>
      <trkpt lat="48.09015" lon="7.10567">
        <ele>915</ele>
        <time>2011-06-06T11:38:21Z</time>
      </trkpt>
      <trkpt lat="48.09025" lon="7.10561">
        <ele>914</ele>
        <time>2011-06-06T11:38:25Z</time>
      </trkpt>
      <trkpt lat="48.09047" lon="7.10554">
        <ele>914</ele>
        <time>2011-06-06T11:38:34Z</time>
      </trkpt>
      <trkpt lat="48.09065" lon="7.10548">
        <ele>914</ele>
        <time>2011-06-06T11:38:41Z</time>
      </trkpt>
      <trkpt lat="48.0908" lon="7.10541">
        <ele>913</ele>
        <time>2011-06-06T11:38:48Z</time>
      </trkpt>
      <trkpt lat="48.09096" lon="7.10535">
        <ele>916</ele>
        <time>2011-06-06T11:38:54Z</time>
      </trkpt>
      <trkpt lat="48.0912" lon="7.1053">
        <ele>917</ele>
        <time>2011-06-06T11:39:04Z</time>
      </trkpt>
      <trkpt lat="48.0913" lon="7.10528">
        <ele>917</ele>
        <time>2011-06-06T11:39:08Z</time>
      </trkpt>
      <trkpt lat="48.09145" lon="7.1052">
        <ele>918</ele>
        <time>2011-06-06T11:39:14Z</time>
      </trkpt>
      <trkpt lat="48.09161" lon="7.10511">
        <ele>919</ele>
        <time>2011-06-06T11:39:21Z</time>
      </trkpt>
      <trkpt lat="48.09183" lon="7.10503">
        <ele>921</ele>
        <time>2011-06-06T11:39:30Z</time>
      </trkpt>
      <trkpt lat="48.09193" lon="7.105">
        <ele>921</ele>
        <time>2011-06-06T11:39:34Z</time>
      </trkpt>
      <trkpt lat="48.09209" lon="7.10496">
        <ele>915</ele>
        <time>2011-06-06T11:39:41Z</time>
      </trkpt>
      <trkpt lat="48.09224" lon="7.1049">
        <ele>916</ele>
        <time>2011-06-06T11:39:47Z</time>
      </trkpt>
      <trkpt lat="48.09241" lon="7.10482">
        <ele>916</ele>
        <time>2011-06-06T11:39:54Z</time>
      </trkpt>
      <trkpt lat="48.09257" lon="7.10469">
        <ele>914</ele>
        <time>2011-06-06T11:40:01Z</time>
      </trkpt>
      <trkpt lat="48.09286" lon="7.1045">
        <ele>912</ele>
        <time>2011-06-06T11:40:14Z</time>
      </trkpt>
      <trkpt lat="48.09306" lon="7.10433">
        <ele>910</ele>
        <time>2011-06-06T11:40:23Z</time>
      </trkpt>
      <trkpt lat="48.09337" lon="7.10408">
        <ele>905</ele>
        <time>2011-06-06T11:40:37Z</time>
      </trkpt>
      <trkpt lat="48.09353" lon="7.10403">
        <ele>905</ele>
        <time>2011-06-06T11:40:44Z</time>
      </trkpt>
      <trkpt lat="48.0937" lon="7.10407">
        <ele>906</ele>
        <time>2011-06-06T11:40:51Z</time>
      </trkpt>
      <trkpt lat="48.09383" lon="7.1041">
        <ele>907</ele>
        <time>2011-06-06T11:40:56Z</time>
      </trkpt>
      <trkpt lat="48.09399" lon="7.10413">
        <ele>909</ele>
        <time>2011-06-06T11:41:02Z</time>
      </trkpt>
      <trkpt lat="48.09415" lon="7.10417">
        <ele>914</ele>
        <time>2011-06-06T11:41:09Z</time>
      </trkpt>
      <trkpt lat="48.0943" lon="7.10421">
        <ele>919</ele>
        <time>2011-06-06T11:41:15Z</time>
      </trkpt>
      <trkpt lat="48.0944" lon="7.10424">
        <ele>920</ele>
        <time>2011-06-06T11:41:19Z</time>
      </trkpt>
      <trkpt lat="48.09454" lon="7.10425">
        <ele>922</ele>
        <time>2011-06-06T11:41:25Z</time>
      </trkpt>
      <trkpt lat="48.09468" lon="7.10427">
        <ele>923</ele>
        <time>2011-06-06T11:41:30Z</time>
      </trkpt>
      <trkpt lat="48.09478" lon="7.10427">
        <ele>924</ele>
        <time>2011-06-06T11:41:35Z</time>
      </trkpt>
      <trkpt lat="48.0949" lon="7.10428">
        <ele>924</ele>
        <time>2011-06-06T11:41:39Z</time>
      </trkpt>
      <trkpt lat="48.09504" lon="7.10428">
        <ele>929</ele>
        <time>2011-06-06T11:41:45Z</time>
      </trkpt>
      <trkpt lat="48.09515" lon="7.10428">
        <ele>931</ele>
        <time>2011-06-06T11:41:49Z</time>
      </trkpt>
      <trkpt lat="48.09526" lon="7.10427">
        <ele>933</ele>
        <time>2011-06-06T11:41:54Z</time>
      </trkpt>
      <trkpt lat="48.09538" lon="7.10427">
        <ele>935</ele>
        <time>2011-06-06T11:41:58Z</time>
      </trkpt>
      <trkpt lat="48.09552" lon="7.10425">
        <ele>936</ele>
        <time>2011-06-06T11:42:04Z</time>
      </trkpt>
      <trkpt lat="48.09565" lon="7.10425">
        <ele>938</ele>
        <time>2011-06-06T11:42:09Z</time>
      </trkpt>
      <trkpt lat="48.09578" lon="7.10424">
        <ele>938</ele>
        <time>2011-06-06T11:42:14Z</time>
      </trkpt>
      <trkpt lat="48.09588" lon="7.10423">
        <ele>942</ele>
        <time>2011-06-06T11:42:18Z</time>
      </trkpt>
      <trkpt lat="48.09593" lon="7.10423">
        <ele>943</ele>
        <time>2011-06-06T11:42:20Z</time>
      </trkpt>
      <trkpt lat="48.09603" lon="7.10423">
        <ele>945</ele>
        <time>2011-06-06T11:42:25Z</time>
      </trkpt>
      <trkpt lat="48.09612" lon="7.10424">
        <ele>947</ele>
        <time>2011-06-06T11:42:28Z</time>
      </trkpt>
      <trkpt lat="48.09624" lon="7.10429">
        <ele>948</ele>
        <time>2011-06-06T11:42:33Z</time>
      </trkpt>
      <trkpt lat="48.09632" lon="7.10431">
        <ele>949</ele>
        <time>2011-06-06T11:42:36Z</time>
      </trkpt>
      <trkpt lat="48.09636" lon="7.10434">
        <ele>949</ele>
        <time>2011-06-06T11:42:38Z</time>
      </trkpt>
      <trkpt lat="48.09647" lon="7.10441">
        <ele>950</ele>
        <time>2011-06-06T11:42:43Z</time>
      </trkpt>
      <trkpt lat="48.09657" lon="7.1045">
        <ele>951</ele>
        <time>2011-06-06T11:42:47Z</time>
      </trkpt>
      <trkpt lat="48.0966" lon="7.10456">
        <ele>951</ele>
        <time>2011-06-06T11:42:50Z</time>
      </trkpt>
      <trkpt lat="48.09668" lon="7.10462">
        <ele>958</ele>
        <time>2011-06-06T11:42:53Z</time>
      </trkpt>
      <trkpt lat="48.0968" lon="7.10474">
        <ele>958</ele>
        <time>2011-06-06T11:42:59Z</time>
      </trkpt>
      <trkpt lat="48.09688" lon="7.10481">
        <ele>959</ele>
        <time>2011-06-06T11:43:03Z</time>
      </trkpt>
      <trkpt lat="48.09696" lon="7.10493">
        <ele>959</ele>
        <time>2011-06-06T11:43:07Z</time>
      </trkpt>
      <trkpt lat="48.09703" lon="7.10502">
        <ele>963</ele>
        <time>2011-06-06T11:43:11Z</time>
      </trkpt>
      <trkpt lat="48.09713" lon="7.10513">
        <ele>964</ele>
        <time>2011-06-06T11:43:16Z</time>
      </trkpt>
      <trkpt lat="48.09725" lon="7.10528">
        <ele>964</ele>
        <time>2011-06-06T11:43:22Z</time>
      </trkpt>
      <trkpt lat="48.09732" lon="7.10544">
        <ele>965</ele>
        <time>2011-06-06T11:43:27Z</time>
      </trkpt>
      <trkpt lat="48.09741" lon="7.1055">
        <ele>965</ele>
        <time>2011-06-06T11:43:31Z</time>
      </trkpt>
      <trkpt lat="48.09768" lon="7.10561">
        <ele>967</ele>
        <time>2011-06-06T11:43:42Z</time>
      </trkpt>
      <trkpt lat="48.09801" lon="7.10575">
        <ele>967</ele>
        <time>2011-06-06T11:43:56Z</time>
      </trkpt>
      <trkpt lat="48.09831" lon="7.10587">
        <ele>967</ele>
        <time>2011-06-06T11:44:08Z</time>
      </trkpt>
      <trkpt lat="48.09861" lon="7.106">
        <ele>967</ele>
        <time>2011-06-06T11:44:21Z</time>
      </trkpt>
      <trkpt lat="48.09886" lon="7.1061">
        <ele>968</ele>
        <time>2011-06-06T11:44:31Z</time>
      </trkpt>
      <trkpt lat="48.09904" lon="7.10617">
        <ele>968</ele>
        <time>2011-06-06T11:44:39Z</time>
      </trkpt>
      <trkpt lat="48.0991" lon="7.10632">
        <ele>967</ele>
        <time>2011-06-06T11:44:43Z</time>
      </trkpt>
      <trkpt lat="48.09916" lon="7.10643">
        <ele>967</ele>
        <time>2011-06-06T11:44:47Z</time>
      </trkpt>
      <trkpt lat="48.09932" lon="7.10668">
        <ele>966</ele>
        <time>2011-06-06T11:44:57Z</time>
      </trkpt>
      <trkpt lat="48.09942" lon="7.10683">
        <ele>965</ele>
        <time>2011-06-06T11:45:02Z</time>
      </trkpt>
      <trkpt lat="48.09943" lon="7.10683">
        <ele>965</ele>
        <time>2011-06-06T11:45:02Z</time>
      </trkpt>
      <trkpt lat="48.09948" lon="7.1069">
        <ele>965</ele>
        <time>2011-06-06T11:45:05Z</time>
      </trkpt>
      <trkpt lat="48.09947" lon="7.10708">
        <ele>964</ele>
        <time>2011-06-06T11:45:10Z</time>
      </trkpt>
      <trkpt lat="48.0994" lon="7.10722">
        <ele>963</ele>
        <time>2011-06-06T11:45:14Z</time>
      </trkpt>
      <trkpt lat="48.09926" lon="7.10742">
        <ele>960</ele>
        <time>2011-06-06T11:45:22Z</time>
      </trkpt>
      <trkpt lat="48.09899" lon="7.1079">
        <ele>953</ele>
        <time>2011-06-06T11:45:39Z</time>
      </trkpt>
      <trkpt lat="48.09881" lon="7.10828">
        <ele>951</ele>
        <time>2011-06-06T11:45:52Z</time>
      </trkpt>
      <trkpt lat="48.09875" lon="7.10846">
        <ele>945</ele>
        <time>2011-06-06T11:45:57Z</time>
      </trkpt>
      <trkpt lat="48.09863" lon="7.10878">
        <ele>943</ele>
        <time>2011-06-06T11:46:07Z</time>
      </trkpt>
      <trkpt lat="48.09859" lon="7.1089">
        <ele>943</ele>
        <time>2011-06-06T11:46:10Z</time>
      </trkpt>
      <trkpt lat="48.09849" lon="7.10916">
        <ele>941</ele>
        <time>2011-06-06T11:46:18Z</time>
      </trkpt>
      <trkpt lat="48.09842" lon="7.10938">
        <ele>934</ele>
        <time>2011-06-06T11:46:25Z</time>
      </trkpt>
      <trkpt lat="48.09836" lon="7.10968">
        <ele>929</ele>
        <time>2011-06-06T11:46:33Z</time>
      </trkpt>
      <trkpt lat="48.09829" lon="7.10998">
        <ele>925</ele>
        <time>2011-06-06T11:46:42Z</time>
      </trkpt>
      <trkpt lat="48.09825" lon="7.11019">
        <ele>921</ele>
        <time>2011-06-06T11:46:48Z</time>
      </trkpt>
      <trkpt lat="48.09824" lon="7.11025">
        <ele>920</ele>
        <time>2011-06-06T11:46:49Z</time>
      </trkpt>
      <trkpt lat="48.09824" lon="7.11027">
        <ele>920</ele>
        <time>2011-06-06T11:46:50Z</time>
      </trkpt>
      <trkpt lat="48.09824" lon="7.11036">
        <ele>919</ele>
        <time>2011-06-06T11:46:52Z</time>
      </trkpt>
      <trkpt lat="48.09824" lon="7.11042">
        <ele>919</ele>
        <time>2011-06-06T11:46:54Z</time>
      </trkpt>
      <trkpt lat="48.09823" lon="7.11053">
        <ele>918</ele>
        <time>2011-06-06T11:46:57Z</time>
      </trkpt>
      <trkpt lat="48.09829" lon="7.11074">
        <ele>913</ele>
        <time>2011-06-06T11:47:03Z</time>
      </trkpt>
      <trkpt lat="48.09843" lon="7.11092">
        <ele>908</ele>
        <time>2011-06-06T11:47:10Z</time>
      </trkpt>
      <trkpt lat="48.09852" lon="7.11116">
        <ele>907</ele>
        <time>2011-06-06T11:47:18Z</time>
      </trkpt>
      <trkpt lat="48.09865" lon="7.11175">
        <ele>901</ele>
        <time>2011-06-06T11:47:34Z</time>
      </trkpt>
      <trkpt lat="48.09866" lon="7.11181">
        <ele>901</ele>
        <time>2011-06-06T11:47:36Z</time>
      </trkpt>
      <trkpt lat="48.09857" lon="7.11187">
        <ele>901</ele>
        <time>2011-06-06T11:47:40Z</time>
      </trkpt>
      <trkpt lat="48.09846" lon="7.11172">
        <ele>902</ele>
        <time>2011-06-06T11:47:46Z</time>
      </trkpt>
      <trkpt lat="48.0983" lon="7.11142">
        <ele>908</ele>
        <time>2011-06-06T11:47:56Z</time>
      </trkpt>
      <trkpt lat="48.09814" lon="7.11136">
        <ele>909</ele>
        <time>2011-06-06T11:48:02Z</time>
      </trkpt>
      <trkpt lat="48.09781" lon="7.11136">
        <ele>910</ele>
        <time>2011-06-06T11:48:16Z</time>
      </trkpt>
      <trkpt lat="48.09766" lon="7.1114">
        <ele>910</ele>
        <time>2011-06-06T11:48:22Z</time>
      </trkpt>
      <trkpt lat="48.09749" lon="7.11144">
        <ele>914</ele>
        <time>2011-06-06T11:48:29Z</time>
      </trkpt>
      <trkpt lat="48.09738" lon="7.11144">
        <ele>915</ele>
        <time>2011-06-06T11:48:33Z</time>
      </trkpt>
      <trkpt lat="48.09739" lon="7.11144">
        <ele>915</ele>
        <time>2011-06-06T11:48:33Z</time>
      </trkpt>
      <trkpt lat="48.09737" lon="7.11144">
        <ele>915</ele>
        <time>2011-06-06T11:48:34Z</time>
      </trkpt>
      <trkpt lat="48.09728" lon="7.11144">
        <ele>916</ele>
        <time>2011-06-06T11:48:38Z</time>
      </trkpt>
      <trkpt lat="48.09706" lon="7.11148">
        <ele>917</ele>
        <time>2011-06-06T11:48:47Z</time>
      </trkpt>
      <trkpt lat="48.09679" lon="7.11155">
        <ele>918</ele>
        <time>2011-06-06T11:48:57Z</time>
      </trkpt>
      <trkpt lat="48.09655" lon="7.11156">
        <ele>920</ele>
        <time>2011-06-06T11:49:07Z</time>
      </trkpt>
      <trkpt lat="48.09624" lon="7.11155">
        <ele>920</ele>
        <time>2011-06-06T11:49:20Z</time>
      </trkpt>
      <trkpt lat="48.09587" lon="7.1115">
        <ele>919</ele>
        <time>2011-06-06T11:49:34Z</time>
      </trkpt>
      <trkpt lat="48.09541" lon="7.11146">
        <ele>920</ele>
        <time>2011-06-06T11:49:53Z</time>
      </trkpt>
      <trkpt lat="48.09497" lon="7.11152">
        <ele>918</ele>
        <time>2011-06-06T11:50:10Z</time>
      </trkpt>
      <trkpt lat="48.09482" lon="7.11155">
        <ele>919</ele>
        <time>2011-06-06T11:50:16Z</time>
      </trkpt>
      <trkpt lat="48.0944" lon="7.1116">
        <ele>921</ele>
        <time>2011-06-06T11:50:33Z</time>
      </trkpt>
      <trkpt lat="48.09405" lon="7.11162">
        <ele>922</ele>
        <time>2011-06-06T11:50:47Z</time>
      </trkpt>
      <trkpt lat="48.09383" lon="7.11151">
        <ele>926</ele>
        <time>2011-06-06T11:50:57Z</time>
      </trkpt>
      <trkpt lat="48.0936" lon="7.11128">
        <ele>928</ele>
        <time>2011-06-06T11:51:08Z</time>
      </trkpt>
      <trkpt lat="48.09346" lon="7.11128">
        <ele>928</ele>
        <time>2011-06-06T11:51:13Z</time>
      </trkpt>
      <trkpt lat="48.09335" lon="7.11124">
        <ele>929</ele>
        <time>2011-06-06T11:51:18Z</time>
      </trkpt>
      <trkpt lat="48.09322" lon="7.11131">
        <ele>934</ele>
        <time>2011-06-06T11:51:23Z</time>
      </trkpt>
      <trkpt lat="48.09308" lon="7.11133">
        <ele>935</ele>
        <time>2011-06-06T11:51:29Z</time>
      </trkpt>
      <trkpt lat="48.09298" lon="7.11129">
        <ele>936</ele>
        <time>2011-06-06T11:51:33Z</time>
      </trkpt>
      <trkpt lat="48.0929" lon="7.11125">
        <ele>936</ele>
        <time>2011-06-06T11:51:37Z</time>
      </trkpt>
      <trkpt lat="48.09278" lon="7.11123">
        <ele>937</ele>
        <time>2011-06-06T11:51:41Z</time>
      </trkpt>
      <trkpt lat="48.09265" lon="7.11124">
        <ele>938</ele>
        <time>2011-06-06T11:51:46Z</time>
      </trkpt>
      <trkpt lat="48.09253" lon="7.11131">
        <ele>938</ele>
        <time>2011-06-06T11:51:52Z</time>
      </trkpt>
      <trkpt lat="48.09238" lon="7.11147">
        <ele>943</ele>
        <time>2011-06-06T11:51:59Z</time>
      </trkpt>
      <trkpt lat="48.09225" lon="7.11164">
        <ele>944</ele>
        <time>2011-06-06T11:52:06Z</time>
      </trkpt>
      <trkpt lat="48.0921" lon="7.1118">
        <ele>941</ele>
        <time>2011-06-06T11:52:13Z</time>
      </trkpt>
      <trkpt lat="48.09196" lon="7.11197">
        <ele>942</ele>
        <time>2011-06-06T11:52:21Z</time>
      </trkpt>
      <trkpt lat="48.09183" lon="7.11208">
        <ele>943</ele>
        <time>2011-06-06T11:52:26Z</time>
      </trkpt>
      <trkpt lat="48.09171" lon="7.1122">
        <ele>943</ele>
        <time>2011-06-06T11:52:32Z</time>
      </trkpt>
      <trkpt lat="48.0916" lon="7.11227">
        <ele>949</ele>
        <time>2011-06-06T11:52:37Z</time>
      </trkpt>
      <trkpt lat="48.09151" lon="7.11232">
        <ele>949</ele>
        <time>2011-06-06T11:52:41Z</time>
      </trkpt>
      <trkpt lat="48.09138" lon="7.11235">
        <ele>949</ele>
        <time>2011-06-06T11:52:46Z</time>
      </trkpt>
      <trkpt lat="48.09123" lon="7.11227">
        <ele>950</ele>
        <time>2011-06-06T11:52:52Z</time>
      </trkpt>
      <trkpt lat="48.09109" lon="7.11216">
        <ele>951</ele>
        <time>2011-06-06T11:52:59Z</time>
      </trkpt>
      <trkpt lat="48.09091" lon="7.11219">
        <ele>951</ele>
        <time>2011-06-06T11:53:06Z</time>
      </trkpt>
      <trkpt lat="48.09081" lon="7.11222">
        <ele>948</ele>
        <time>2011-06-06T11:53:10Z</time>
      </trkpt>
      <trkpt lat="48.09065" lon="7.11211">
        <ele>947</ele>
        <time>2011-06-06T11:53:17Z</time>
      </trkpt>
      <trkpt lat="48.09056" lon="7.11197">
        <ele>947</ele>
        <time>2011-06-06T11:53:22Z</time>
      </trkpt>
      <trkpt lat="48.09053" lon="7.11193">
        <ele>946</ele>
        <time>2011-06-06T11:53:24Z</time>
      </trkpt>
      <trkpt lat="48.09045" lon="7.11203">
        <ele>946</ele>
        <time>2011-06-06T11:53:28Z</time>
      </trkpt>
      <trkpt lat="48.09036" lon="7.11216">
        <ele>945</ele>
        <time>2011-06-06T11:53:33Z</time>
      </trkpt>
      <trkpt lat="48.09034" lon="7.1122">
        <ele>944</ele>
        <time>2011-06-06T11:53:34Z</time>
      </trkpt>
      <trkpt lat="48.09029" lon="7.11224">
        <ele>944</ele>
        <time>2011-06-06T11:53:37Z</time>
      </trkpt>
      <trkpt lat="48.09019" lon="7.11239">
        <ele>942</ele>
        <time>2011-06-06T11:53:42Z</time>
      </trkpt>
      <trkpt lat="48.09003" lon="7.11259">
        <ele>941</ele>
        <time>2011-06-06T11:53:51Z</time>
      </trkpt>
      <trkpt lat="48.08996" lon="7.11277">
        <ele>931</ele>
        <time>2011-06-06T11:53:56Z</time>
      </trkpt>
      <trkpt lat="48.0899" lon="7.11296">
        <ele>930</ele>
        <time>2011-06-06T11:54:02Z</time>
      </trkpt>
      <trkpt lat="48.08986" lon="7.11314">
        <ele>931</ele>
        <time>2011-06-06T11:54:07Z</time>
      </trkpt>
      <trkpt lat="48.08984" lon="7.11328">
        <ele>932</ele>
        <time>2011-06-06T11:54:11Z</time>
      </trkpt>
      <trkpt lat="48.08982" lon="7.11344">
        <ele>930</ele>
        <time>2011-06-06T11:54:15Z</time>
      </trkpt>
      <trkpt lat="48.08977" lon="7.11368">
        <ele>927</ele>
        <time>2011-06-06T11:54:22Z</time>
      </trkpt>
      <trkpt lat="48.08964" lon="7.11393">
        <ele>925</ele>
        <time>2011-06-06T11:54:30Z</time>
      </trkpt>
      <trkpt lat="48.08952" lon="7.11416">
        <ele>923</ele>
        <time>2011-06-06T11:54:38Z</time>
      </trkpt>
      <trkpt lat="48.08941" lon="7.11433">
        <ele>920</ele>
        <time>2011-06-06T11:54:44Z</time>
      </trkpt>
      <trkpt lat="48.08932" lon="7.11455">
        <ele>920</ele>
        <time>2011-06-06T11:54:51Z</time>
      </trkpt>
      <trkpt lat="48.08924" lon="7.11471">
        <ele>919</ele>
        <time>2011-06-06T11:54:57Z</time>
      </trkpt>
      <trkpt lat="48.08919" lon="7.11476">
        <ele>918</ele>
        <time>2011-06-06T11:54:59Z</time>
      </trkpt>
      <trkpt lat="48.0891" lon="7.11489">
        <ele>907</ele>
        <time>2011-06-06T11:55:04Z</time>
      </trkpt>
      <trkpt lat="48.08904" lon="7.11499">
        <ele>907</ele>
        <time>2011-06-06T11:55:07Z</time>
      </trkpt>
      <trkpt lat="48.08894" lon="7.11509">
        <ele>905</ele>
        <time>2011-06-06T11:55:13Z</time>
      </trkpt>
      <trkpt lat="48.08879" lon="7.11528">
        <ele>902</ele>
        <time>2011-06-06T11:55:20Z</time>
      </trkpt>
      <trkpt lat="48.08862" lon="7.11542">
        <ele>900</ele>
        <time>2011-06-06T11:55:28Z</time>
      </trkpt>
      <trkpt lat="48.08851" lon="7.11554">
        <ele>899</ele>
        <time>2011-06-06T11:55:33Z</time>
      </trkpt>
      <trkpt lat="48.08834" lon="7.11571">
        <ele>897</ele>
        <time>2011-06-06T11:55:42Z</time>
      </trkpt>
      <trkpt lat="48.08806" lon="7.11588">
        <ele>890</ele>
        <time>2011-06-06T11:55:54Z</time>
      </trkpt>
      <trkpt lat="48.08794" lon="7.11605">
        <ele>889</ele>
        <time>2011-06-06T11:56:00Z</time>
      </trkpt>
      <trkpt lat="48.08793" lon="7.11623">
        <ele>889</ele>
        <time>2011-06-06T11:56:05Z</time>
      </trkpt>
      <trkpt lat="48.08793" lon="7.11625">
        <ele>889</ele>
        <time>2011-06-06T11:56:06Z</time>
      </trkpt>
      <trkpt lat="48.08787" lon="7.11632">
        <ele>889</ele>
        <time>2011-06-06T11:56:09Z</time>
      </trkpt>
      <trkpt lat="48.08756" lon="7.11651">
        <ele>889</ele>
        <time>2011-06-06T11:56:22Z</time>
      </trkpt>
      <trkpt lat="48.08736" lon="7.11675">
        <ele>892</ele>
        <time>2011-06-06T11:56:32Z</time>
      </trkpt>
      <trkpt lat="48.08712" lon="7.11708">
        <ele>895</ele>
        <time>2011-06-06T11:56:46Z</time>
      </trkpt>
      <trkpt lat="48.08692" lon="7.11744">
        <ele>896</ele>
        <time>2011-06-06T11:56:58Z</time>
      </trkpt>
      <trkpt lat="48.08684" lon="7.11761">
        <ele>898</ele>
        <time>2011-06-06T11:57:04Z</time>
      </trkpt>
      <trkpt lat="48.08672" lon="7.11784">
        <ele>898</ele>
        <time>2011-06-06T11:57:11Z</time>
      </trkpt>
      <trkpt lat="48.08659" lon="7.11811">
        <ele>904</ele>
        <time>2011-06-06T11:57:20Z</time>
      </trkpt>
      <trkpt lat="48.08643" lon="7.11838">
        <ele>905</ele>
        <time>2011-06-06T11:57:30Z</time>
      </trkpt>
      <trkpt lat="48.08631" lon="7.11866">
        <ele>907</ele>
        <time>2011-06-06T11:57:39Z</time>
      </trkpt>
      <trkpt lat="48.08624" lon="7.11898">
        <ele>907</ele>
        <time>2011-06-06T11:57:48Z</time>
      </trkpt>
      <trkpt lat="48.08624" lon="7.11935">
        <ele>908</ele>
        <time>2011-06-06T11:57:58Z</time>
      </trkpt>
      <trkpt lat="48.08628" lon="7.11976">
        <ele>908</ele>
        <time>2011-06-06T11:58:09Z</time>
      </trkpt>
      <trkpt lat="48.08632" lon="7.12006">
        <ele>910</ele>
        <time>2011-06-06T11:58:17Z</time>
      </trkpt>
      <trkpt lat="48.08636" lon="7.12036">
        <ele>910</ele>
        <time>2011-06-06T11:58:25Z</time>
      </trkpt>
      <trkpt lat="48.08634" lon="7.12069">
        <ele>910</ele>
        <time>2011-06-06T11:58:34Z</time>
      </trkpt>
      <trkpt lat="48.0863" lon="7.12106">
        <ele>913</ele>
        <time>2011-06-06T11:58:44Z</time>
      </trkpt>
      <trkpt lat="48.08631" lon="7.12149">
        <ele>913</ele>
        <time>2011-06-06T11:58:55Z</time>
      </trkpt>
      <trkpt lat="48.08632" lon="7.1219">
        <ele>915</ele>
        <time>2011-06-06T11:59:06Z</time>
      </trkpt>
      <trkpt lat="48.08632" lon="7.12215">
        <ele>915</ele>
        <time>2011-06-06T11:59:13Z</time>
      </trkpt>
      <trkpt lat="48.0863" lon="7.12248">
        <ele>915</ele>
        <time>2011-06-06T11:59:22Z</time>
      </trkpt>
      <trkpt lat="48.08628" lon="7.12284">
        <ele>917</ele>
        <time>2011-06-06T11:59:32Z</time>
      </trkpt>
      <trkpt lat="48.08622" lon="7.1231">
        <ele>917</ele>
        <time>2011-06-06T11:59:39Z</time>
      </trkpt>
      <trkpt lat="48.08615" lon="7.12341">
        <ele>919</ele>
        <time>2011-06-06T11:59:48Z</time>
      </trkpt>
      <trkpt lat="48.08614" lon="7.12369">
        <ele>919</ele>
        <time>2011-06-06T11:59:55Z</time>
      </trkpt>
      <trkpt lat="48.08612" lon="7.12394">
        <ele>920</ele>
        <time>2011-06-06T12:00:02Z</time>
      </trkpt>
      <trkpt lat="48.08602" lon="7.12437">
        <ele>920</ele>
        <time>2011-06-06T12:00:14Z</time>
      </trkpt>
      <trkpt lat="48.08592" lon="7.12466">
        <ele>920</ele>
        <time>2011-06-06T12:00:23Z</time>
      </trkpt>
      <trkpt lat="48.08577" lon="7.12502">
        <ele>927</ele>
        <time>2011-06-06T12:00:34Z</time>
      </trkpt>
      <trkpt lat="48.08561" lon="7.12522">
        <ele>928</ele>
        <time>2011-06-06T12:00:42Z</time>
      </trkpt>
      <trkpt lat="48.0854" lon="7.1254">
        <ele>928</ele>
        <time>2011-06-06T12:00:52Z</time>
      </trkpt>
      <trkpt lat="48.08518" lon="7.12554">
        <ele>929</ele>
        <time>2011-06-06T12:01:02Z</time>
      </trkpt>
      <trkpt lat="48.08497" lon="7.12563">
        <ele>933</ele>
        <time>2011-06-06T12:01:11Z</time>
      </trkpt>
      <trkpt lat="48.08477" lon="7.12573">
        <ele>934</ele>
        <time>2011-06-06T12:01:19Z</time>
      </trkpt>
      <trkpt lat="48.08456" lon="7.12583">
        <ele>935</ele>
        <time>2011-06-06T12:01:28Z</time>
      </trkpt>
      <trkpt lat="48.08435" lon="7.1259">
        <ele>931</ele>
        <time>2011-06-06T12:01:36Z</time>
      </trkpt>
      <trkpt lat="48.08406" lon="7.126">
        <ele>933</ele>
        <time>2011-06-06T12:01:48Z</time>
      </trkpt>
      <trkpt lat="48.0838" lon="7.12606">
        <ele>933</ele>
        <time>2011-06-06T12:01:59Z</time>
      </trkpt>
      <trkpt lat="48.08355" lon="7.12608">
        <ele>933</ele>
        <time>2011-06-06T12:02:09Z</time>
      </trkpt>
      <trkpt lat="48.08334" lon="7.126">
        <ele>934</ele>
        <time>2011-06-06T12:02:18Z</time>
      </trkpt>
      <trkpt lat="48.08303" lon="7.12578">
        <ele>940</ele>
        <time>2011-06-06T12:02:31Z</time>
      </trkpt>
      <trkpt lat="48.08279" lon="7.12563">
        <ele>940</ele>
        <time>2011-06-06T12:02:42Z</time>
      </trkpt>
      <trkpt lat="48.08258" lon="7.12564">
        <ele>938</ele>
        <time>2011-06-06T12:02:50Z</time>
      </trkpt>
      <trkpt lat="48.08236" lon="7.12576">
        <ele>935</ele>
        <time>2011-06-06T12:02:59Z</time>
      </trkpt>
      <trkpt lat="48.0821" lon="7.12596">
        <ele>929</ele>
        <time>2011-06-06T12:03:11Z</time>
      </trkpt>
      <trkpt lat="48.0818" lon="7.126">
        <ele>929</ele>
        <time>2011-06-06T12:03:23Z</time>
      </trkpt>
      <trkpt lat="48.08139" lon="7.12594">
        <ele>930</ele>
        <time>2011-06-06T12:03:40Z</time>
      </trkpt>
      <trkpt lat="48.08101" lon="7.12588">
        <ele>932</ele>
        <time>2011-06-06T12:03:55Z</time>
      </trkpt>
      <trkpt lat="48.08084" lon="7.12587">
        <ele>933</ele>
        <time>2011-06-06T12:04:02Z</time>
      </trkpt>
      <trkpt lat="48.08062" lon="7.12602">
        <ele>935</ele>
        <time>2011-06-06T12:04:12Z</time>
      </trkpt>
      <trkpt lat="48.08052" lon="7.1263">
        <ele>936</ele>
        <time>2011-06-06T12:04:20Z</time>
      </trkpt>
      <trkpt lat="48.08052" lon="7.12636">
        <ele>936</ele>
        <time>2011-06-06T12:04:22Z</time>
      </trkpt>
      <trkpt lat="48.08057" lon="7.12686">
        <ele>938</ele>
        <time>2011-06-06T12:04:35Z</time>
      </trkpt>
      <trkpt lat="48.08061" lon="7.12739">
        <ele>938</ele>
        <time>2011-06-06T12:04:49Z</time>
      </trkpt>
      <trkpt lat="48.08057" lon="7.12785">
        <ele>941</ele>
        <time>2011-06-06T12:05:02Z</time>
      </trkpt>
      <trkpt lat="48.08049" lon="7.12836">
        <ele>939</ele>
        <time>2011-06-06T12:05:16Z</time>
      </trkpt>
      <trkpt lat="48.08037" lon="7.12872">
        <ele>940</ele>
        <time>2011-06-06T12:05:26Z</time>
      </trkpt>
      <trkpt lat="48.08016" lon="7.12906">
        <ele>941</ele>
        <time>2011-06-06T12:05:39Z</time>
      </trkpt>
      <trkpt lat="48.07991" lon="7.12944">
        <ele>946</ele>
        <time>2011-06-06T12:05:53Z</time>
      </trkpt>
      <trkpt lat="48.07982" lon="7.12976">
        <ele>945</ele>
        <time>2011-06-06T12:06:02Z</time>
      </trkpt>
      <trkpt lat="48.07977" lon="7.1303">
        <ele>945</ele>
        <time>2011-06-06T12:06:17Z</time>
      </trkpt>
      <trkpt lat="48.07971" lon="7.13067">
        <ele>946</ele>
        <time>2011-06-06T12:06:27Z</time>
      </trkpt>
      <trkpt lat="48.07968" lon="7.13081">
        <ele>946</ele>
        <time>2011-06-06T12:06:31Z</time>
      </trkpt>
      <trkpt lat="48.07958" lon="7.13084">
        <ele>947</ele>
        <time>2011-06-06T12:06:35Z</time>
      </trkpt>
      <trkpt lat="48.07957" lon="7.1307">
        <ele>947</ele>
        <time>2011-06-06T12:06:39Z</time>
      </trkpt>
      <trkpt lat="48.07957" lon="7.13038">
        <ele>947</ele>
        <time>2011-06-06T12:06:47Z</time>
      </trkpt>
      <trkpt lat="48.07954" lon="7.13005">
        <ele>947</ele>
        <time>2011-06-06T12:06:56Z</time>
      </trkpt>
      <trkpt lat="48.07942" lon="7.12981">
        <ele>948</ele>
        <time>2011-06-06T12:07:04Z</time>
      </trkpt>
      <trkpt lat="48.07935" lon="7.12968">
        <ele>948</ele>
        <time>2011-06-06T12:07:09Z</time>
      </trkpt>
      <trkpt lat="48.07934" lon="7.12966">
        <ele>948</ele>
        <time>2011-06-06T12:07:09Z</time>
      </trkpt>
      <trkpt lat="48.07933" lon="7.12964">
        <ele>948</ele>
        <time>2011-06-06T12:07:10Z</time>
      </trkpt>
      <trkpt lat="48.07923" lon="7.12962">
        <ele>949</ele>
        <time>2011-06-06T12:07:14Z</time>
      </trkpt>
      <trkpt lat="48.07906" lon="7.12967">
        <ele>951</ele>
        <time>2011-06-06T12:07:21Z</time>
      </trkpt>
      <trkpt lat="48.07902" lon="7.12967">
        <ele>951</ele>
        <time>2011-06-06T12:07:23Z</time>
      </trkpt>
      <trkpt lat="48.07901" lon="7.12969">
        <ele>951</ele>
        <time>2011-06-06T12:07:23Z</time>
      </trkpt>
      <trkpt lat="48.07905" lon="7.12969">
        <ele>951</ele>
        <time>2011-06-06T12:07:25Z</time>
      </trkpt>
      <trkpt lat="48.07911" lon="7.12968">
        <ele>951</ele>
        <time>2011-06-06T12:07:27Z</time>
      </trkpt>
      <trkpt lat="48.07916" lon="7.12969">
        <ele>951</ele>
        <time>2011-06-06T12:07:30Z</time>
      </trkpt>
      <trkpt lat="48.07917" lon="7.12964">
        <ele>949</ele>
        <time>2011-06-06T12:07:31Z</time>
      </trkpt>
      <trkpt lat="48.07916" lon="7.12965">
        <ele>951</ele>
        <time>2011-06-06T12:07:32Z</time>
      </trkpt>
      <trkpt lat="48.07908" lon="7.12967">
        <ele>951</ele>
        <time>2011-06-06T12:07:35Z</time>
      </trkpt>
      <trkpt lat="48.079" lon="7.12987">
        <ele>951</ele>
        <time>2011-06-06T12:07:41Z</time>
      </trkpt>
      <trkpt lat="48.07893" lon="7.13001">
        <ele>953</ele>
        <time>2011-06-06T12:07:46Z</time>
      </trkpt>
      <trkpt lat="48.07885" lon="7.13018">
        <ele>953</ele>
        <time>2011-06-06T12:07:51Z</time>
      </trkpt>
      <trkpt lat="48.07876" lon="7.13037">
        <ele>953</ele>
        <time>2011-06-06T12:07:57Z</time>
      </trkpt>
      <trkpt lat="48.07869" lon="7.13059">
        <ele>954</ele>
        <time>2011-06-06T12:08:04Z</time>
      </trkpt>
      <trkpt lat="48.07862" lon="7.13082">
        <ele>954</ele>
        <time>2011-06-06T12:08:11Z</time>
      </trkpt>
      <trkpt lat="48.07851" lon="7.13109">
        <ele>956</ele>
        <time>2011-06-06T12:08:19Z</time>
      </trkpt>
      <trkpt lat="48.07845" lon="7.13131">
        <ele>956</ele>
        <time>2011-06-06T12:08:26Z</time>
      </trkpt>
      <trkpt lat="48.07837" lon="7.13152">
        <ele>957</ele>
        <time>2011-06-06T12:08:32Z</time>
      </trkpt>
      <trkpt lat="48.07831" lon="7.13172">
        <ele>959</ele>
        <time>2011-06-06T12:08:38Z</time>
      </trkpt>
      <trkpt lat="48.07825" lon="7.13183">
        <ele>960</ele>
        <time>2011-06-06T12:08:42Z</time>
      </trkpt>
      <trkpt lat="48.07819" lon="7.13208">
        <ele>962</ele>
        <time>2011-06-06T12:08:49Z</time>
      </trkpt>
      <trkpt lat="48.07814" lon="7.13229">
        <ele>963</ele>
        <time>2011-06-06T12:08:55Z</time>
      </trkpt>
      <trkpt lat="48.07813" lon="7.13235">
        <ele>963</ele>
        <time>2011-06-06T12:08:56Z</time>
      </trkpt>
      <trkpt lat="48.07813" lon="7.13245">
        <ele>963</ele>
        <time>2011-06-06T12:08:59Z</time>
      </trkpt>
      <trkpt lat="48.07819" lon="7.13273">
        <ele>969</ele>
        <time>2011-06-06T12:09:07Z</time>
      </trkpt>
      <trkpt lat="48.07821" lon="7.13288">
        <ele>970</ele>
        <time>2011-06-06T12:09:11Z</time>
      </trkpt>
      <trkpt lat="48.07826" lon="7.13306">
        <ele>973</ele>
        <time>2011-06-06T12:09:16Z</time>
      </trkpt>
      <trkpt lat="48.07826" lon="7.13308">
        <ele>973</ele>
        <time>2011-06-06T12:09:17Z</time>
      </trkpt>
      <trkpt lat="48.07827" lon="7.13312">
        <ele>974</ele>
        <time>2011-06-06T12:09:18Z</time>
      </trkpt>
      <trkpt lat="48.07829" lon="7.13326">
        <ele>976</ele>
        <time>2011-06-06T12:09:22Z</time>
      </trkpt>
      <trkpt lat="48.07829" lon="7.13338">
        <ele>979</ele>
        <time>2011-06-06T12:09:25Z</time>
      </trkpt>
      <trkpt lat="48.07821" lon="7.13347">
        <ele>980</ele>
        <time>2011-06-06T12:09:29Z</time>
      </trkpt>
      <trkpt lat="48.07806" lon="7.1336">
        <ele>980</ele>
        <time>2011-06-06T12:09:36Z</time>
      </trkpt>
      <trkpt lat="48.07801" lon="7.13365">
        <ele>980</ele>
        <time>2011-06-06T12:09:38Z</time>
      </trkpt>
      <trkpt lat="48.07798" lon="7.13381">
        <ele>981</ele>
        <time>2011-06-06T12:09:43Z</time>
      </trkpt>
      <trkpt lat="48.07806" lon="7.13387">
        <ele>982</ele>
        <time>2011-06-06T12:09:46Z</time>
      </trkpt>
      <trkpt lat="48.07807" lon="7.13386">
        <ele>982</ele>
        <time>2011-06-06T12:09:47Z</time>
      </trkpt>
      <trkpt lat="48.07804" lon="7.13387">
        <ele>982</ele>
        <time>2011-06-06T12:09:49Z</time>
      </trkpt>
      <trkpt lat="48.07796" lon="7.13379">
        <ele>981</ele>
        <time>2011-06-06T12:09:53Z</time>
      </trkpt>
      <trkpt lat="48.07786" lon="7.13377">
        <ele>980</ele>
        <time>2011-06-06T12:09:56Z</time>
      </trkpt>
      <trkpt lat="48.07785" lon="7.1338">
        <ele>980</ele>
        <time>2011-06-06T12:09:57Z</time>
      </trkpt>
      <trkpt lat="48.07781" lon="7.13393">
        <ele>981</ele>
        <time>2011-06-06T12:10:01Z</time>
      </trkpt>
      <trkpt lat="48.07782" lon="7.13395">
        <ele>981</ele>
        <time>2011-06-06T12:10:02Z</time>
      </trkpt>
      <trkpt lat="48.07785" lon="7.13418">
        <ele>987</ele>
        <time>2011-06-06T12:10:08Z</time>
      </trkpt>
      <trkpt lat="48.07786" lon="7.13427">
        <ele>987</ele>
        <time>2011-06-06T12:10:11Z</time>
      </trkpt>
      <trkpt lat="48.07787" lon="7.13439">
        <ele>988</ele>
        <time>2011-06-06T12:10:14Z</time>
      </trkpt>
      <trkpt lat="48.07788" lon="7.13456">
        <ele>989</ele>
        <time>2011-06-06T12:10:18Z</time>
      </trkpt>
      <trkpt lat="48.0779" lon="7.1347">
        <ele>989</ele>
        <time>2011-06-06T12:10:22Z</time>
      </trkpt>
      <trkpt lat="48.07791" lon="7.13475">
        <ele>990</ele>
        <time>2011-06-06T12:10:24Z</time>
      </trkpt>
      <trkpt lat="48.07791" lon="7.13482">
        <ele>990</ele>
        <time>2011-06-06T12:10:25Z</time>
      </trkpt>
      <trkpt lat="48.07793" lon="7.13493">
        <ele>991</ele>
        <time>2011-06-06T12:10:29Z</time>
      </trkpt>
      <trkpt lat="48.07797" lon="7.13509">
        <ele>994</ele>
        <time>2011-06-06T12:10:33Z</time>
      </trkpt>
      <trkpt lat="48.07802" lon="7.13521">
        <ele>995</ele>
        <time>2011-06-06T12:10:37Z</time>
      </trkpt>
      <trkpt lat="48.07804" lon="7.13535">
        <ele>995</ele>
        <time>2011-06-06T12:10:41Z</time>
      </trkpt>
      <trkpt lat="48.07807" lon="7.13546">
        <ele>996</ele>
        <time>2011-06-06T12:10:44Z</time>
      </trkpt>
      <trkpt lat="48.07812" lon="7.13562">
        <ele>997</ele>
        <time>2011-06-06T12:10:49Z</time>
      </trkpt>
      <trkpt lat="48.07813" lon="7.13577">
        <ele>999</ele>
        <time>2011-06-06T12:10:53Z</time>
      </trkpt>
      <trkpt lat="48.07818" lon="7.13595">
        <ele>999</ele>
        <time>2011-06-06T12:10:58Z</time>
      </trkpt>
      <trkpt lat="48.07819" lon="7.13602">
        <ele>998</ele>
        <time>2011-06-06T12:11:00Z</time>
      </trkpt>
      <trkpt lat="48.0782" lon="7.13607">
        <ele>998</ele>
        <time>2011-06-06T12:11:01Z</time>
      </trkpt>
      <trkpt lat="48.07822" lon="7.13617">
        <ele>997</ele>
        <time>2011-06-06T12:11:04Z</time>
      </trkpt>
      <trkpt lat="48.07825" lon="7.1363">
        <ele>997</ele>
        <time>2011-06-06T12:11:08Z</time>
      </trkpt>
      <trkpt lat="48.07827" lon="7.13648">
        <ele>999</ele>
        <time>2011-06-06T12:11:12Z</time>
      </trkpt>
      <trkpt lat="48.07828" lon="7.13657">
        <ele>1001</ele>
        <time>2011-06-06T12:11:15Z</time>
      </trkpt>
      <trkpt lat="48.07829" lon="7.1366">
        <ele>1002</ele>
        <time>2011-06-06T12:11:16Z</time>
      </trkpt>
      <trkpt lat="48.07831" lon="7.13663">
        <ele>1004</ele>
        <time>2011-06-06T12:11:17Z</time>
      </trkpt>
      <trkpt lat="48.07834" lon="7.13678">
        <ele>1010</ele>
        <time>2011-06-06T12:11:21Z</time>
      </trkpt>
      <trkpt lat="48.07836" lon="7.1368">
        <ele>1011</ele>
        <time>2011-06-06T12:11:22Z</time>
      </trkpt>
      <trkpt lat="48.0784" lon="7.13701">
        <ele>1014</ele>
        <time>2011-06-06T12:11:28Z</time>
      </trkpt>
      <trkpt lat="48.07844" lon="7.13717">
        <ele>1014</ele>
        <time>2011-06-06T12:11:32Z</time>
      </trkpt>
      <trkpt lat="48.07845" lon="7.13723">
        <ele>1014</ele>
        <time>2011-06-06T12:11:34Z</time>
      </trkpt>
      <trkpt lat="48.07842" lon="7.13749">
        <ele>1009</ele>
        <time>2011-06-06T12:11:41Z</time>
      </trkpt>
      <trkpt lat="48.0784" lon="7.13776">
        <ele>1014</ele>
        <time>2011-06-06T12:11:48Z</time>
      </trkpt>
      <trkpt lat="48.07839" lon="7.13808">
        <ele>1014</ele>
        <time>2011-06-06T12:11:57Z</time>
      </trkpt>
      <trkpt lat="48.07834" lon="7.13836">
        <ele>1007</ele>
        <time>2011-06-06T12:12:05Z</time>
      </trkpt>
      <trkpt lat="48.0783" lon="7.13854">
        <ele>998</ele>
        <time>2011-06-06T12:12:10Z</time>
      </trkpt>
      <trkpt lat="48.07826" lon="7.1388">
        <ele>996</ele>
        <time>2011-06-06T12:12:17Z</time>
      </trkpt>
      <trkpt lat="48.07827" lon="7.1391">
        <ele>1003</ele>
        <time>2011-06-06T12:12:25Z</time>
      </trkpt>
      <trkpt lat="48.07829" lon="7.13935">
        <ele>999</ele>
        <time>2011-06-06T12:12:32Z</time>
      </trkpt>
      <trkpt lat="48.07832" lon="7.13969">
        <ele>996</ele>
        <time>2011-06-06T12:12:41Z</time>
      </trkpt>
      <trkpt lat="48.07835" lon="7.13976">
        <ele>1011</ele>
        <time>2011-06-06T12:12:43Z</time>
      </trkpt>
      <trkpt lat="48.07843" lon="7.13996">
        <ele>1008</ele>
        <time>2011-06-06T12:12:49Z</time>
      </trkpt>
      <trkpt lat="48.07854" lon="7.14024">
        <ele>1006</ele>
        <time>2011-06-06T12:12:58Z</time>
      </trkpt>
      <trkpt lat="48.07866" lon="7.14043">
        <ele>1006</ele>
        <time>2011-06-06T12:13:05Z</time>
      </trkpt>
      <trkpt lat="48.07874" lon="7.14055">
        <ele>1006</ele>
        <time>2011-06-06T12:13:09Z</time>
      </trkpt>
      <trkpt lat="48.07885" lon="7.14072">
        <ele>1007</ele>
        <time>2011-06-06T12:13:16Z</time>
      </trkpt>
      <trkpt lat="48.07896" lon="7.14087">
        <ele>1002</ele>
        <time>2011-06-06T12:13:21Z</time>
      </trkpt>
      <trkpt lat="48.07907" lon="7.14112">
        <ele>1000</ele>
        <time>2011-06-06T12:13:30Z</time>
      </trkpt>
      <trkpt lat="48.07918" lon="7.14132">
        <ele>1007</ele>
        <time>2011-06-06T12:13:36Z</time>
      </trkpt>
      <trkpt lat="48.0793" lon="7.14146">
        <ele>1006</ele>
        <time>2011-06-06T12:13:43Z</time>
      </trkpt>
      <trkpt lat="48.07937" lon="7.14168">
        <ele>1000</ele>
        <time>2011-06-06T12:13:49Z</time>
      </trkpt>
      <trkpt lat="48.07937" lon="7.14186">
        <ele>999</ele>
        <time>2011-06-06T12:13:54Z</time>
      </trkpt>
      <trkpt lat="48.07935" lon="7.14212">
        <ele>997</ele>
        <time>2011-06-06T12:14:01Z</time>
      </trkpt>
      <trkpt lat="48.0793" lon="7.14247">
        <ele>994</ele>
        <time>2011-06-06T12:14:10Z</time>
      </trkpt>
      <trkpt lat="48.07921" lon="7.14277">
        <ele>989</ele>
        <time>2011-06-06T12:14:19Z</time>
      </trkpt>
      <trkpt lat="48.07917" lon="7.14299">
        <ele>987</ele>
        <time>2011-06-06T12:14:25Z</time>
      </trkpt>
      <trkpt lat="48.0791" lon="7.14332">
        <ele>981</ele>
        <time>2011-06-06T12:14:35Z</time>
      </trkpt>
      <trkpt lat="48.07908" lon="7.14335">
        <ele>980</ele>
        <time>2011-06-06T12:14:36Z</time>
      </trkpt>
      <trkpt lat="48.07904" lon="7.1434">
        <ele>980</ele>
        <time>2011-06-06T12:14:38Z</time>
      </trkpt>
      <trkpt lat="48.07894" lon="7.14339">
        <ele>979</ele>
        <time>2011-06-06T12:14:42Z</time>
      </trkpt>
      <trkpt lat="48.07891" lon="7.14339">
        <ele>978</ele>
        <time>2011-06-06T12:14:43Z</time>
      </trkpt>
      <trkpt lat="48.07892" lon="7.14342">
        <ele>978</ele>
        <time>2011-06-06T12:14:44Z</time>
      </trkpt>
      <trkpt lat="48.07903" lon="7.14348">
        <ele>979</ele>
        <time>2011-06-06T12:14:48Z</time>
      </trkpt>
      <trkpt lat="48.07912" lon="7.14362">
        <ele>979</ele>
        <time>2011-06-06T12:14:53Z</time>
      </trkpt>
      <trkpt lat="48.07922" lon="7.14373">
        <ele>980</ele>
        <time>2011-06-06T12:14:59Z</time>
      </trkpt>
      <trkpt lat="48.07925" lon="7.1439">
        <ele>980</ele>
        <time>2011-06-06T12:15:03Z</time>
      </trkpt>
      <trkpt lat="48.07933" lon="7.14413">
        <ele>979</ele>
        <time>2011-06-06T12:15:10Z</time>
      </trkpt>
      <trkpt lat="48.07939" lon="7.14426">
        <ele>979</ele>
        <time>2011-06-06T12:15:14Z</time>
      </trkpt>
      <trkpt lat="48.07947" lon="7.14447">
        <ele>980</ele>
        <time>2011-06-06T12:15:21Z</time>
      </trkpt>
      <trkpt lat="48.07951" lon="7.14477">
        <ele>981</ele>
        <time>2011-06-06T12:15:29Z</time>
      </trkpt>
      <trkpt lat="48.07948" lon="7.14496">
        <ele>981</ele>
        <time>2011-06-06T12:15:34Z</time>
      </trkpt>
      <trkpt lat="48.07945" lon="7.14513">
        <ele>984</ele>
        <time>2011-06-06T12:15:39Z</time>
      </trkpt>
      <trkpt lat="48.07943" lon="7.14528">
        <ele>985</ele>
        <time>2011-06-06T12:15:43Z</time>
      </trkpt>
      <trkpt lat="48.07943" lon="7.14551">
        <ele>986</ele>
        <time>2011-06-06T12:15:49Z</time>
      </trkpt>
      <trkpt lat="48.07944" lon="7.14556">
        <ele>986</ele>
        <time>2011-06-06T12:15:51Z</time>
      </trkpt>
      <trkpt lat="48.07943" lon="7.1458">
        <ele>987</ele>
        <time>2011-06-06T12:15:57Z</time>
      </trkpt>
      <trkpt lat="48.07945" lon="7.14596">
        <ele>990</ele>
        <time>2011-06-06T12:16:01Z</time>
      </trkpt>
      <trkpt lat="48.07948" lon="7.14621">
        <ele>990</ele>
        <time>2011-06-06T12:16:08Z</time>
      </trkpt>
      <trkpt lat="48.07951" lon="7.1464">
        <ele>991</ele>
        <time>2011-06-06T12:16:13Z</time>
      </trkpt>
      <trkpt lat="48.07956" lon="7.14657">
        <ele>991</ele>
        <time>2011-06-06T12:16:19Z</time>
      </trkpt>
      <trkpt lat="48.07964" lon="7.14679">
        <ele>994</ele>
        <time>2011-06-06T12:16:25Z</time>
      </trkpt>
      <trkpt lat="48.0797" lon="7.14707">
        <ele>995</ele>
        <time>2011-06-06T12:16:33Z</time>
      </trkpt>
      <trkpt lat="48.07971" lon="7.14717">
        <ele>995</ele>
        <time>2011-06-06T12:16:36Z</time>
      </trkpt>
      <trkpt lat="48.07972" lon="7.14733">
        <ele>996</ele>
        <time>2011-06-06T12:16:40Z</time>
      </trkpt>
      <trkpt lat="48.07968" lon="7.14751">
        <ele>998</ele>
        <time>2011-06-06T12:16:45Z</time>
      </trkpt>
      <trkpt lat="48.0796" lon="7.14771">
        <ele>999</ele>
        <time>2011-06-06T12:16:51Z</time>
      </trkpt>
      <trkpt lat="48.07951" lon="7.14788">
        <ele>999</ele>
        <time>2011-06-06T12:16:57Z</time>
      </trkpt>
      <trkpt lat="48.07947" lon="7.14806">
        <ele>999</ele>
        <time>2011-06-06T12:17:02Z</time>
      </trkpt>
      <trkpt lat="48.07951" lon="7.14831">
        <ele>999</ele>
        <time>2011-06-06T12:17:09Z</time>
      </trkpt>
      <trkpt lat="48.07955" lon="7.14871">
        <ele>997</ele>
        <time>2011-06-06T12:17:20Z</time>
      </trkpt>
      <trkpt lat="48.07955" lon="7.14929">
        <ele>993</ele>
        <time>2011-06-06T12:17:35Z</time>
      </trkpt>
      <trkpt lat="48.07953" lon="7.14944">
        <ele>993</ele>
        <time>2011-06-06T12:17:40Z</time>
      </trkpt>
      <trkpt lat="48.07948" lon="7.14976">
        <ele>992</ele>
        <time>2011-06-06T12:17:48Z</time>
      </trkpt>
      <trkpt lat="48.07939" lon="7.14998">
        <ele>992</ele>
        <time>2011-06-06T12:17:55Z</time>
      </trkpt>
      <trkpt lat="48.07931" lon="7.15032">
        <ele>988</ele>
        <time>2011-06-06T12:18:05Z</time>
      </trkpt>
      <trkpt lat="48.07936" lon="7.15085">
        <ele>985</ele>
        <time>2011-06-06T12:18:19Z</time>
      </trkpt>
      <trkpt lat="48.07944" lon="7.15114">
        <ele>986</ele>
        <time>2011-06-06T12:18:27Z</time>
      </trkpt>
      <trkpt lat="48.07954" lon="7.15147">
        <ele>986</ele>
        <time>2011-06-06T12:18:37Z</time>
      </trkpt>
      <trkpt lat="48.07962" lon="7.15174">
        <ele>987</ele>
        <time>2011-06-06T12:18:45Z</time>
      </trkpt>
      <trkpt lat="48.0797" lon="7.15207">
        <ele>987</ele>
        <time>2011-06-06T12:18:55Z</time>
      </trkpt>
      <trkpt lat="48.07975" lon="7.15236">
        <ele>987</ele>
        <time>2011-06-06T12:19:03Z</time>
      </trkpt>
      <trkpt lat="48.07979" lon="7.15257">
        <ele>986</ele>
        <time>2011-06-06T12:19:08Z</time>
      </trkpt>
      <trkpt lat="48.07986" lon="7.15287">
        <ele>986</ele>
        <time>2011-06-06T12:19:17Z</time>
      </trkpt>
      <trkpt lat="48.07991" lon="7.15311">
        <ele>985</ele>
        <time>2011-06-06T12:19:23Z</time>
      </trkpt>
      <trkpt lat="48.07989" lon="7.15354">
        <ele>982</ele>
        <time>2011-06-06T12:19:35Z</time>
      </trkpt>
      <trkpt lat="48.07987" lon="7.15362">
        <ele>981</ele>
        <time>2011-06-06T12:19:37Z</time>
      </trkpt>
      <trkpt lat="48.07974" lon="7.15392">
        <ele>979</ele>
        <time>2011-06-06T12:19:47Z</time>
      </trkpt>
      <trkpt lat="48.07961" lon="7.15415">
        <ele>978</ele>
        <time>2011-06-06T12:19:55Z</time>
      </trkpt>
      <trkpt lat="48.07955" lon="7.15427">
        <ele>974</ele>
        <time>2011-06-06T12:19:59Z</time>
      </trkpt>
      <trkpt lat="48.07947" lon="7.15469">
        <ele>973</ele>
        <time>2011-06-06T12:20:11Z</time>
      </trkpt>
      <trkpt lat="48.07947" lon="7.15479">
        <ele>973</ele>
        <time>2011-06-06T12:20:13Z</time>
      </trkpt>
      <trkpt lat="48.07944" lon="7.15539">
        <ele>968</ele>
        <time>2011-06-06T12:20:29Z</time>
      </trkpt>
      <trkpt lat="48.07952" lon="7.15576">
        <ele>967</ele>
        <time>2011-06-06T12:20:40Z</time>
      </trkpt>
      <trkpt lat="48.07965" lon="7.15616">
        <ele>964</ele>
        <time>2011-06-06T12:20:52Z</time>
      </trkpt>
      <trkpt lat="48.07979" lon="7.15649">
        <ele>963</ele>
        <time>2011-06-06T12:21:02Z</time>
      </trkpt>
      <trkpt lat="48.07991" lon="7.15678">
        <ele>963</ele>
        <time>2011-06-06T12:21:11Z</time>
      </trkpt>
      <trkpt lat="48.08" lon="7.15701">
        <ele>960</ele>
        <time>2011-06-06T12:21:18Z</time>
      </trkpt>
      <trkpt lat="48.0801" lon="7.15732">
        <ele>962</ele>
        <time>2011-06-06T12:21:28Z</time>
      </trkpt>
      <trkpt lat="48.08019" lon="7.15765">
        <ele>964</ele>
        <time>2011-06-06T12:21:37Z</time>
      </trkpt>
      <trkpt lat="48.08026" lon="7.1579">
        <ele>964</ele>
        <time>2011-06-06T12:21:44Z</time>
      </trkpt>
      <trkpt lat="48.08033" lon="7.15815">
        <ele>964</ele>
        <time>2011-06-06T12:21:52Z</time>
      </trkpt>
      <trkpt lat="48.08041" lon="7.1585">
        <ele>968</ele>
        <time>2011-06-06T12:22:02Z</time>
      </trkpt>
      <trkpt lat="48.08046" lon="7.15881">
        <ele>968</ele>
        <time>2011-06-06T12:22:10Z</time>
      </trkpt>
      <trkpt lat="48.08048" lon="7.15902">
        <ele>968</ele>
        <time>2011-06-06T12:22:16Z</time>
      </trkpt>
      <trkpt lat="48.08047" lon="7.15928">
        <ele>972</ele>
        <time>2011-06-06T12:22:23Z</time>
      </trkpt>
      <trkpt lat="48.08047" lon="7.15949">
        <ele>972</ele>
        <time>2011-06-06T12:22:28Z</time>
      </trkpt>
      <trkpt lat="48.08049" lon="7.15971">
        <ele>973</ele>
        <time>2011-06-06T12:22:34Z</time>
      </trkpt>
      <trkpt lat="48.0805" lon="7.15979">
        <ele>973</ele>
        <time>2011-06-06T12:22:37Z</time>
      </trkpt>
      <trkpt lat="48.08048" lon="7.15994">
        <ele>973</ele>
        <time>2011-06-06T12:22:41Z</time>
      </trkpt>
      <trkpt lat="48.08047" lon="7.16006">
        <ele>974</ele>
        <time>2011-06-06T12:22:44Z</time>
      </trkpt>
      <trkpt lat="48.08046" lon="7.1601">
        <ele>975</ele>
        <time>2011-06-06T12:22:45Z</time>
      </trkpt>
      <trkpt lat="48.08035" lon="7.1604">
        <ele>975</ele>
        <time>2011-06-06T12:22:54Z</time>
      </trkpt>
      <trkpt lat="48.08023" lon="7.16071">
        <ele>976</ele>
        <time>2011-06-06T12:23:04Z</time>
      </trkpt>
      <trkpt lat="48.08015" lon="7.16096">
        <ele>976</ele>
        <time>2011-06-06T12:23:11Z</time>
      </trkpt>
      <trkpt lat="48.08009" lon="7.16113">
        <ele>975</ele>
        <time>2011-06-06T12:23:16Z</time>
      </trkpt>
      <trkpt lat="48.08006" lon="7.16129">
        <ele>974</ele>
        <time>2011-06-06T12:23:21Z</time>
      </trkpt>
      <trkpt lat="48.08005" lon="7.16133">
        <ele>974</ele>
        <time>2011-06-06T12:23:22Z</time>
      </trkpt>
      <trkpt lat="48.08005" lon="7.1614">
        <ele>974</ele>
        <time>2011-06-06T12:23:24Z</time>
      </trkpt>
      <trkpt lat="48.08004" lon="7.16142">
        <ele>973</ele>
        <time>2011-06-06T12:23:25Z</time>
      </trkpt>
      <trkpt lat="48.08002" lon="7.16145">
        <ele>973</ele>
        <time>2011-06-06T12:23:26Z</time>
      </trkpt>
      <trkpt lat="48.08001" lon="7.16162">
        <ele>972</ele>
        <time>2011-06-06T12:23:30Z</time>
      </trkpt>
      <trkpt lat="48.08" lon="7.16182">
        <ele>969</ele>
        <time>2011-06-06T12:23:36Z</time>
      </trkpt>
      <trkpt lat="48.07998" lon="7.162">
        <ele>968</ele>
        <time>2011-06-06T12:23:40Z</time>
      </trkpt>
      <trkpt lat="48.07996" lon="7.1622">
        <ele>968</ele>
        <time>2011-06-06T12:23:46Z</time>
      </trkpt>
      <trkpt lat="48.08" lon="7.16259">
        <ele>968</ele>
        <time>2011-06-06T12:23:57Z</time>
      </trkpt>
      <trkpt lat="48.08001" lon="7.16274">
        <ele>968</ele>
        <time>2011-06-06T12:24:01Z</time>
      </trkpt>
      <trkpt lat="48.07995" lon="7.16301">
        <ele>965</ele>
        <time>2011-06-06T12:24:08Z</time>
      </trkpt>
      <trkpt lat="48.07983" lon="7.16339">
        <ele>963</ele>
        <time>2011-06-06T12:24:20Z</time>
      </trkpt>
      <trkpt lat="48.07971" lon="7.16371">
        <ele>961</ele>
        <time>2011-06-06T12:24:29Z</time>
      </trkpt>
      <trkpt lat="48.07969" lon="7.16399">
        <ele>959</ele>
        <time>2011-06-06T12:24:37Z</time>
      </trkpt>
      <trkpt lat="48.0797" lon="7.16423">
        <ele>955</ele>
        <time>2011-06-06T12:24:43Z</time>
      </trkpt>
      <trkpt lat="48.07969" lon="7.16429">
        <ele>955</ele>
        <time>2011-06-06T12:24:45Z</time>
      </trkpt>
      <trkpt lat="48.07967" lon="7.16435">
        <ele>955</ele>
        <time>2011-06-06T12:24:46Z</time>
      </trkpt>
      <trkpt lat="48.0796" lon="7.16452">
        <ele>954</ele>
        <time>2011-06-06T12:24:52Z</time>
      </trkpt>
      <trkpt lat="48.07957" lon="7.16462">
        <ele>954</ele>
        <time>2011-06-06T12:24:55Z</time>
      </trkpt>
      <trkpt lat="48.07939" lon="7.16489">
        <ele>953</ele>
        <time>2011-06-06T12:25:05Z</time>
      </trkpt>
      <trkpt lat="48.07918" lon="7.16503">
        <ele>950</ele>
        <time>2011-06-06T12:25:14Z</time>
      </trkpt>
      <trkpt lat="48.07896" lon="7.16515">
        <ele>945</ele>
        <time>2011-06-06T12:25:24Z</time>
      </trkpt>
      <trkpt lat="48.07891" lon="7.16515">
        <ele>944</ele>
        <time>2011-06-06T12:25:26Z</time>
      </trkpt>
      <trkpt lat="48.07881" lon="7.16519">
        <ele>943</ele>
        <time>2011-06-06T12:25:30Z</time>
      </trkpt>
      <trkpt lat="48.07879" lon="7.16528">
        <ele>942</ele>
        <time>2011-06-06T12:25:32Z</time>
      </trkpt>
      <trkpt lat="48.07883" lon="7.16535">
        <ele>942</ele>
        <time>2011-06-06T12:25:35Z</time>
      </trkpt>
      <trkpt lat="48.07885" lon="7.16538">
        <ele>942</ele>
        <time>2011-06-06T12:25:36Z</time>
      </trkpt>
      <trkpt lat="48.07885" lon="7.16536">
        <ele>942</ele>
        <time>2011-06-06T12:25:36Z</time>
      </trkpt>
      <trkpt lat="48.07886" lon="7.16534">
        <ele>942</ele>
        <time>2011-06-06T12:25:37Z</time>
      </trkpt>
      <trkpt lat="48.07885" lon="7.16522">
        <ele>943</ele>
        <time>2011-06-06T12:25:40Z</time>
      </trkpt>
      <trkpt lat="48.07878" lon="7.16517">
        <ele>943</ele>
        <time>2011-06-06T12:25:44Z</time>
      </trkpt>
      <trkpt lat="48.07872" lon="7.16526">
        <ele>942</ele>
        <time>2011-06-06T12:25:47Z</time>
      </trkpt>
      <trkpt lat="48.07872" lon="7.16529">
        <ele>942</ele>
        <time>2011-06-06T12:25:48Z</time>
      </trkpt>
      <trkpt lat="48.07869" lon="7.16541">
        <ele>941</ele>
        <time>2011-06-06T12:25:51Z</time>
      </trkpt>
      <trkpt lat="48.07867" lon="7.16547">
        <ele>940</ele>
        <time>2011-06-06T12:25:53Z</time>
      </trkpt>
      <trkpt lat="48.07868" lon="7.16545">
        <ele>941</ele>
        <time>2011-06-06T12:25:54Z</time>
      </trkpt>
      <trkpt lat="48.07868" lon="7.16545">
        <ele>941</ele>
        <time>2011-06-06T12:25:54Z</time>
      </trkpt>
      <trkpt lat="48.07871" lon="7.16536">
        <ele>941</ele>
        <time>2011-06-06T12:25:56Z</time>
      </trkpt>
      <trkpt lat="48.07874" lon="7.16524">
        <ele>942</ele>
        <time>2011-06-06T12:26:00Z</time>
      </trkpt>
      <trkpt lat="48.07882" lon="7.16522">
        <ele>943</ele>
        <time>2011-06-06T12:26:03Z</time>
      </trkpt>
      <trkpt lat="48.07887" lon="7.16524">
        <ele>943</ele>
        <time>2011-06-06T12:26:05Z</time>
      </trkpt>
      <trkpt lat="48.07907" lon="7.16532">
        <ele>944</ele>
        <time>2011-06-06T12:26:13Z</time>
      </trkpt>
      <trkpt lat="48.07925" lon="7.16546">
        <ele>947</ele>
        <time>2011-06-06T12:26:21Z</time>
      </trkpt>
      <trkpt lat="48.07927" lon="7.16549">
        <ele>947</ele>
        <time>2011-06-06T12:26:22Z</time>
      </trkpt>
      <trkpt lat="48.07927" lon="7.16578">
        <ele>946</ele>
        <time>2011-06-06T12:26:30Z</time>
      </trkpt>
      <trkpt lat="48.07928" lon="7.16605">
        <ele>942</ele>
        <time>2011-06-06T12:26:37Z</time>
      </trkpt>
      <trkpt lat="48.0792" lon="7.16648">
        <ele>940</ele>
        <time>2011-06-06T12:26:49Z</time>
      </trkpt>
      <trkpt lat="48.0792" lon="7.16683">
        <ele>938</ele>
        <time>2011-06-06T12:26:59Z</time>
      </trkpt>
      <trkpt lat="48.07921" lon="7.16695">
        <ele>938</ele>
        <time>2011-06-06T12:27:02Z</time>
      </trkpt>
      <trkpt lat="48.07921" lon="7.16708">
        <ele>938</ele>
        <time>2011-06-06T12:27:05Z</time>
      </trkpt>
      <trkpt lat="48.07922" lon="7.16736">
        <ele>938</ele>
        <time>2011-06-06T12:27:13Z</time>
      </trkpt>
      <trkpt lat="48.07918" lon="7.1676">
        <ele>938</ele>
        <time>2011-06-06T12:27:19Z</time>
      </trkpt>
      <trkpt lat="48.07905" lon="7.16804">
        <ele>931</ele>
        <time>2011-06-06T12:27:33Z</time>
      </trkpt>
      <trkpt lat="48.07911" lon="7.16834">
        <ele>933</ele>
        <time>2011-06-06T12:27:41Z</time>
      </trkpt>
      <trkpt lat="48.07914" lon="7.16837">
        <ele>933</ele>
        <time>2011-06-06T12:27:43Z</time>
      </trkpt>
      <trkpt lat="48.07925" lon="7.16856">
        <ele>934</ele>
        <time>2011-06-06T12:27:49Z</time>
      </trkpt>
      <trkpt lat="48.07934" lon="7.16875">
        <ele>934</ele>
        <time>2011-06-06T12:27:55Z</time>
      </trkpt>
      <trkpt lat="48.07946" lon="7.16897">
        <ele>934</ele>
        <time>2011-06-06T12:28:03Z</time>
      </trkpt>
      <trkpt lat="48.07961" lon="7.16913">
        <ele>934</ele>
        <time>2011-06-06T12:28:10Z</time>
      </trkpt>
      <trkpt lat="48.07975" lon="7.16943">
        <ele>934</ele>
        <time>2011-06-06T12:28:20Z</time>
      </trkpt>
      <trkpt lat="48.07978" lon="7.16961">
        <ele>934</ele>
        <time>2011-06-06T12:28:25Z</time>
      </trkpt>
      <trkpt lat="48.07977" lon="7.16986">
        <ele>934</ele>
        <time>2011-06-06T12:28:32Z</time>
      </trkpt>
      <trkpt lat="48.0798" lon="7.17027">
        <ele>933</ele>
        <time>2011-06-06T12:28:43Z</time>
      </trkpt>
      <trkpt lat="48.07981" lon="7.17069">
        <ele>932</ele>
        <time>2011-06-06T12:28:54Z</time>
      </trkpt>
      <trkpt lat="48.07999" lon="7.17113">
        <ele>931</ele>
        <time>2011-06-06T12:29:08Z</time>
      </trkpt>
      <trkpt lat="48.08004" lon="7.17126">
        <ele>930</ele>
        <time>2011-06-06T12:29:12Z</time>
      </trkpt>
      <trkpt lat="48.08014" lon="7.17145">
        <ele>930</ele>
        <time>2011-06-06T12:29:18Z</time>
      </trkpt>
      <trkpt lat="48.08038" lon="7.17194">
        <ele>930</ele>
        <time>2011-06-06T12:29:34Z</time>
      </trkpt>
      <trkpt lat="48.08053" lon="7.17219">
        <ele>930</ele>
        <time>2011-06-06T12:29:43Z</time>
      </trkpt>
      <trkpt lat="48.08071" lon="7.17249">
        <ele>931</ele>
        <time>2011-06-06T12:29:54Z</time>
      </trkpt>
      <trkpt lat="48.08085" lon="7.17277">
        <ele>928</ele>
        <time>2011-06-06T12:30:03Z</time>
      </trkpt>
      <trkpt lat="48.08104" lon="7.17308">
        <ele>928</ele>
        <time>2011-06-06T12:30:15Z</time>
      </trkpt>
      <trkpt lat="48.08127" lon="7.17348">
        <ele>927</ele>
        <time>2011-06-06T12:30:29Z</time>
      </trkpt>
      <trkpt lat="48.0814" lon="7.17376">
        <ele>927</ele>
        <time>2011-06-06T12:30:38Z</time>
      </trkpt>
      <trkpt lat="48.08146" lon="7.17407">
        <ele>927</ele>
        <time>2011-06-06T12:30:46Z</time>
      </trkpt>
      <trkpt lat="48.08151" lon="7.17427">
        <ele>928</ele>
        <time>2011-06-06T12:30:52Z</time>
      </trkpt>
      <trkpt lat="48.08158" lon="7.17452">
        <ele>929</ele>
        <time>2011-06-06T12:30:59Z</time>
      </trkpt>
      <trkpt lat="48.0816" lon="7.17466">
        <ele>930</ele>
        <time>2011-06-06T12:31:03Z</time>
      </trkpt>
      <trkpt lat="48.08166" lon="7.17506">
        <ele>931</ele>
        <time>2011-06-06T12:31:14Z</time>
      </trkpt>
      <trkpt lat="48.08167" lon="7.17514">
        <ele>923</ele>
        <time>2011-06-06T12:31:16Z</time>
      </trkpt>
      <trkpt lat="48.08169" lon="7.17537">
        <ele>919</ele>
        <time>2011-06-06T12:31:23Z</time>
      </trkpt>
      <trkpt lat="48.08177" lon="7.17569">
        <ele>922</ele>
        <time>2011-06-06T12:31:32Z</time>
      </trkpt>
      <trkpt lat="48.08186" lon="7.17632">
        <ele>921</ele>
        <time>2011-06-06T12:31:49Z</time>
      </trkpt>
      <trkpt lat="48.08188" lon="7.17643">
        <ele>921</ele>
        <time>2011-06-06T12:31:52Z</time>
      </trkpt>
      <trkpt lat="48.08207" lon="7.17687">
        <ele>924</ele>
        <time>2011-06-06T12:32:06Z</time>
      </trkpt>
      <trkpt lat="48.08224" lon="7.17728">
        <ele>924</ele>
        <time>2011-06-06T12:32:19Z</time>
      </trkpt>
      <trkpt lat="48.08242" lon="7.17756">
        <ele>924</ele>
        <time>2011-06-06T12:32:30Z</time>
      </trkpt>
      <trkpt lat="48.08265" lon="7.1778">
        <ele>915</ele>
        <time>2011-06-06T12:32:41Z</time>
      </trkpt>
      <trkpt lat="48.08292" lon="7.17806">
        <ele>914</ele>
        <time>2011-06-06T12:32:53Z</time>
      </trkpt>
      <trkpt lat="48.08305" lon="7.17819">
        <ele>913</ele>
        <time>2011-06-06T12:33:00Z</time>
      </trkpt>
      <trkpt lat="48.08329" lon="7.17847">
        <ele>917</ele>
        <time>2011-06-06T12:33:12Z</time>
      </trkpt>
      <trkpt lat="48.0834" lon="7.17867">
        <ele>903</ele>
        <time>2011-06-06T12:33:19Z</time>
      </trkpt>
      <trkpt lat="48.08355" lon="7.17904">
        <ele>906</ele>
        <time>2011-06-06T12:33:30Z</time>
      </trkpt>
      <trkpt lat="48.08371" lon="7.17955">
        <ele>908</ele>
        <time>2011-06-06T12:33:45Z</time>
      </trkpt>
      <trkpt lat="48.08376" lon="7.17998">
        <ele>908</ele>
        <time>2011-06-06T12:33:57Z</time>
      </trkpt>
      <trkpt lat="48.08377" lon="7.18025">
        <ele>910</ele>
        <time>2011-06-06T12:34:04Z</time>
      </trkpt>
      <trkpt lat="48.08375" lon="7.18044">
        <ele>911</ele>
        <time>2011-06-06T12:34:09Z</time>
      </trkpt>
      <trkpt lat="48.08367" lon="7.18069">
        <ele>913</ele>
        <time>2011-06-06T12:34:17Z</time>
      </trkpt>
      <trkpt lat="48.08365" lon="7.18081">
        <ele>913</ele>
        <time>2011-06-06T12:34:20Z</time>
      </trkpt>
      <trkpt lat="48.0836" lon="7.18122">
        <ele>912</ele>
        <time>2011-06-06T12:34:32Z</time>
      </trkpt>
      <trkpt lat="48.08357" lon="7.18147">
        <ele>912</ele>
        <time>2011-06-06T12:34:38Z</time>
      </trkpt>
      <trkpt lat="48.08358" lon="7.18181">
        <ele>910</ele>
        <time>2011-06-06T12:34:47Z</time>
      </trkpt>
      <trkpt lat="48.08359" lon="7.18194">
        <ele>909</ele>
        <time>2011-06-06T12:34:51Z</time>
      </trkpt>
      <trkpt lat="48.08363" lon="7.18209">
        <ele>907</ele>
        <time>2011-06-06T12:34:55Z</time>
      </trkpt>
      <trkpt lat="48.08372" lon="7.18247">
        <ele>906</ele>
        <time>2011-06-06T12:35:06Z</time>
      </trkpt>
      <trkpt lat="48.08382" lon="7.18266">
        <ele>903</ele>
        <time>2011-06-06T12:35:12Z</time>
      </trkpt>
      <trkpt lat="48.08389" lon="7.18279">
        <ele>903</ele>
        <time>2011-06-06T12:35:17Z</time>
      </trkpt>
      <trkpt lat="48.08408" lon="7.18315">
        <ele>904</ele>
        <time>2011-06-06T12:35:29Z</time>
      </trkpt>
      <trkpt lat="48.08411" lon="7.1833">
        <ele>905</ele>
        <time>2011-06-06T12:35:33Z</time>
      </trkpt>
      <trkpt lat="48.08414" lon="7.18357">
        <ele>901</ele>
        <time>2011-06-06T12:35:41Z</time>
      </trkpt>
      <trkpt lat="48.08419" lon="7.18376">
        <ele>900</ele>
        <time>2011-06-06T12:35:46Z</time>
      </trkpt>
      <trkpt lat="48.08423" lon="7.18397">
        <ele>900</ele>
        <time>2011-06-06T12:35:52Z</time>
      </trkpt>
      <trkpt lat="48.08428" lon="7.18418">
        <ele>901</ele>
        <time>2011-06-06T12:35:58Z</time>
      </trkpt>
      <trkpt lat="48.08437" lon="7.18446">
        <ele>898</ele>
        <time>2011-06-06T12:36:06Z</time>
      </trkpt>
      <trkpt lat="48.08446" lon="7.18465">
        <ele>897</ele>
        <time>2011-06-06T12:36:13Z</time>
      </trkpt>
      <trkpt lat="48.08451" lon="7.18484">
        <ele>896</ele>
        <time>2011-06-06T12:36:18Z</time>
      </trkpt>
      <trkpt lat="48.08449" lon="7.18494">
        <ele>896</ele>
        <time>2011-06-06T12:36:21Z</time>
      </trkpt>
      <trkpt lat="48.08452" lon="7.1851">
        <ele>894</ele>
        <time>2011-06-06T12:36:25Z</time>
      </trkpt>
      <trkpt lat="48.08457" lon="7.18527">
        <ele>894</ele>
        <time>2011-06-06T12:36:30Z</time>
      </trkpt>
      <trkpt lat="48.08463" lon="7.18549">
        <ele>894</ele>
        <time>2011-06-06T12:36:36Z</time>
      </trkpt>
      <trkpt lat="48.08474" lon="7.18578">
        <ele>895</ele>
        <time>2011-06-06T12:36:45Z</time>
      </trkpt>
      <trkpt lat="48.08475" lon="7.18579">
        <ele>895</ele>
        <time>2011-06-06T12:36:46Z</time>
      </trkpt>
      <trkpt lat="48.08477" lon="7.1858">
        <ele>895</ele>
        <time>2011-06-06T12:36:47Z</time>
      </trkpt>
      <trkpt lat="48.0849" lon="7.18583">
        <ele>897</ele>
        <time>2011-06-06T12:36:52Z</time>
      </trkpt>
      <trkpt lat="48.08499" lon="7.1859">
        <ele>897</ele>
        <time>2011-06-06T12:36:56Z</time>
      </trkpt>
      <trkpt lat="48.08514" lon="7.18592">
        <ele>901</ele>
        <time>2011-06-06T12:37:02Z</time>
      </trkpt>
      <trkpt lat="48.08532" lon="7.18589">
        <ele>901</ele>
        <time>2011-06-06T12:37:09Z</time>
      </trkpt>
      <trkpt lat="48.08555" lon="7.1859">
        <ele>901</ele>
        <time>2011-06-06T12:37:18Z</time>
      </trkpt>
      <trkpt lat="48.0857" lon="7.18586">
        <ele>900</ele>
        <time>2011-06-06T12:37:25Z</time>
      </trkpt>
      <trkpt lat="48.0859" lon="7.18586">
        <ele>898</ele>
        <time>2011-06-06T12:37:33Z</time>
      </trkpt>
      <trkpt lat="48.08615" lon="7.18594">
        <ele>898</ele>
        <time>2011-06-06T12:37:43Z</time>
      </trkpt>
      <trkpt lat="48.08624" lon="7.18594">
        <ele>897</ele>
        <time>2011-06-06T12:37:47Z</time>
      </trkpt>
      <trkpt lat="48.08639" lon="7.18596">
        <ele>896</ele>
        <time>2011-06-06T12:37:53Z</time>
      </trkpt>
      <trkpt lat="48.08658" lon="7.186">
        <ele>893</ele>
        <time>2011-06-06T12:38:00Z</time>
      </trkpt>
      <trkpt lat="48.0868" lon="7.18607">
        <ele>889</ele>
        <time>2011-06-06T12:38:09Z</time>
      </trkpt>
      <trkpt lat="48.08685" lon="7.18609">
        <ele>890</ele>
        <time>2011-06-06T12:38:11Z</time>
      </trkpt>
      <trkpt lat="48.0871" lon="7.18625">
        <ele>890</ele>
        <time>2011-06-06T12:38:22Z</time>
      </trkpt>
      <trkpt lat="48.08729" lon="7.18623">
        <ele>889</ele>
        <time>2011-06-06T12:38:30Z</time>
      </trkpt>
      <trkpt lat="48.08745" lon="7.18618">
        <ele>888</ele>
        <time>2011-06-06T12:38:36Z</time>
      </trkpt>
      <trkpt lat="48.08771" lon="7.18624">
        <ele>885</ele>
        <time>2011-06-06T12:38:47Z</time>
      </trkpt>
      <trkpt lat="48.08786" lon="7.18626">
        <ele>885</ele>
        <time>2011-06-06T12:38:53Z</time>
      </trkpt>
      <trkpt lat="48.0879" lon="7.18626">
        <ele>885</ele>
        <time>2011-06-06T12:38:55Z</time>
      </trkpt>
      <trkpt lat="48.08814" lon="7.18625">
        <ele>884</ele>
        <time>2011-06-06T12:39:04Z</time>
      </trkpt>
      <trkpt lat="48.08821" lon="7.18626">
        <ele>884</ele>
        <time>2011-06-06T12:39:07Z</time>
      </trkpt>
      <trkpt lat="48.08835" lon="7.18625">
        <ele>881</ele>
        <time>2011-06-06T12:39:12Z</time>
      </trkpt>
      <trkpt lat="48.08867" lon="7.18624">
        <ele>880</ele>
        <time>2011-06-06T12:39:25Z</time>
      </trkpt>
      <trkpt lat="48.0889" lon="7.18624">
        <ele>879</ele>
        <time>2011-06-06T12:39:35Z</time>
      </trkpt>
      <trkpt lat="48.08914" lon="7.1863">
        <ele>879</ele>
        <time>2011-06-06T12:39:44Z</time>
      </trkpt>
      <trkpt lat="48.08949" lon="7.18641">
        <ele>873</ele>
        <time>2011-06-06T12:39:58Z</time>
      </trkpt>
      <trkpt lat="48.08976" lon="7.18652">
        <ele>872</ele>
        <time>2011-06-06T12:40:10Z</time>
      </trkpt>
      <trkpt lat="48.08992" lon="7.1866">
        <ele>871</ele>
        <time>2011-06-06T12:40:16Z</time>
      </trkpt>
      <trkpt lat="48.09002" lon="7.18663">
        <ele>869</ele>
        <time>2011-06-06T12:40:20Z</time>
      </trkpt>
      <trkpt lat="48.0901" lon="7.18668">
        <ele>870</ele>
        <time>2011-06-06T12:40:24Z</time>
      </trkpt>
      <trkpt lat="48.09026" lon="7.18687">
        <ele>870</ele>
        <time>2011-06-06T12:40:32Z</time>
      </trkpt>
      <trkpt lat="48.09038" lon="7.18716">
        <ele>870</ele>
        <time>2011-06-06T12:40:41Z</time>
      </trkpt>
      <trkpt lat="48.09042" lon="7.18726">
        <ele>870</ele>
        <time>2011-06-06T12:40:44Z</time>
      </trkpt>
      <trkpt lat="48.09056" lon="7.18747">
        <ele>869</ele>
        <time>2011-06-06T12:40:52Z</time>
      </trkpt>
      <trkpt lat="48.09071" lon="7.18783">
        <ele>875</ele>
        <time>2011-06-06T12:41:04Z</time>
      </trkpt>
      <trkpt lat="48.09077" lon="7.18802">
        <ele>876</ele>
        <time>2011-06-06T12:41:09Z</time>
      </trkpt>
      <trkpt lat="48.09086" lon="7.18835">
        <ele>871</ele>
        <time>2011-06-06T12:41:19Z</time>
      </trkpt>
      <trkpt lat="48.091" lon="7.18868">
        <ele>862</ele>
        <time>2011-06-06T12:41:29Z</time>
      </trkpt>
      <trkpt lat="48.09105" lon="7.18891">
        <ele>862</ele>
        <time>2011-06-06T12:41:36Z</time>
      </trkpt>
      <trkpt lat="48.09109" lon="7.18913">
        <ele>862</ele>
        <time>2011-06-06T12:41:42Z</time>
      </trkpt>
      <trkpt lat="48.09104" lon="7.1896">
        <ele>858</ele>
        <time>2011-06-06T12:41:55Z</time>
      </trkpt>
      <trkpt lat="48.09099" lon="7.18984">
        <ele>859</ele>
        <time>2011-06-06T12:42:01Z</time>
      </trkpt>
      <trkpt lat="48.09098" lon="7.19005">
        <ele>858</ele>
        <time>2011-06-06T12:42:07Z</time>
      </trkpt>
      <trkpt lat="48.09098" lon="7.19035">
        <ele>853</ele>
        <time>2011-06-06T12:42:15Z</time>
      </trkpt>
      <trkpt lat="48.09099" lon="7.19071">
        <ele>853</ele>
        <time>2011-06-06T12:42:25Z</time>
      </trkpt>
      <trkpt lat="48.09098" lon="7.1908">
        <ele>854</ele>
        <time>2011-06-06T12:42:27Z</time>
      </trkpt>
      <trkpt lat="48.09097" lon="7.19097">
        <ele>849</ele>
        <time>2011-06-06T12:42:32Z</time>
      </trkpt>
      <trkpt lat="48.09096" lon="7.19114">
        <ele>845</ele>
        <time>2011-06-06T12:42:36Z</time>
      </trkpt>
      <trkpt lat="48.09092" lon="7.19148">
        <ele>844</ele>
        <time>2011-06-06T12:42:45Z</time>
      </trkpt>
      <trkpt lat="48.09089" lon="7.19162">
        <ele>847</ele>
        <time>2011-06-06T12:42:49Z</time>
      </trkpt>
      <trkpt lat="48.09087" lon="7.19206">
        <ele>834</ele>
        <time>2011-06-06T12:43:01Z</time>
      </trkpt>
      <trkpt lat="48.09083" lon="7.19239">
        <ele>839</ele>
        <time>2011-06-06T12:43:10Z</time>
      </trkpt>
      <trkpt lat="48.09081" lon="7.19251">
        <ele>834</ele>
        <time>2011-06-06T12:43:13Z</time>
      </trkpt>
      <trkpt lat="48.09085" lon="7.19274">
        <ele>827</ele>
        <time>2011-06-06T12:43:20Z</time>
      </trkpt>
      <trkpt lat="48.09088" lon="7.19278">
        <ele>826</ele>
        <time>2011-06-06T12:43:21Z</time>
      </trkpt>
      <trkpt lat="48.09096" lon="7.19288">
        <ele>824</ele>
        <time>2011-06-06T12:43:26Z</time>
      </trkpt>
      <trkpt lat="48.09093" lon="7.19304">
        <ele>823</ele>
        <time>2011-06-06T12:43:30Z</time>
      </trkpt>
      <trkpt lat="48.09087" lon="7.19312">
        <ele>822</ele>
        <time>2011-06-06T12:43:33Z</time>
      </trkpt>
      <trkpt lat="48.0908" lon="7.19322">
        <ele>825</ele>
        <time>2011-06-06T12:43:37Z</time>
      </trkpt>
      <trkpt lat="48.09062" lon="7.1934">
        <ele>820</ele>
        <time>2011-06-06T12:43:46Z</time>
      </trkpt>
      <trkpt lat="48.09028" lon="7.19368">
        <ele>820</ele>
        <time>2011-06-06T12:44:01Z</time>
      </trkpt>
      <trkpt lat="48.09003" lon="7.19386">
        <ele>818</ele>
        <time>2011-06-06T12:44:12Z</time>
      </trkpt>
      <trkpt lat="48.08997" lon="7.19389">
        <ele>819</ele>
        <time>2011-06-06T12:44:15Z</time>
      </trkpt>
      <trkpt lat="48.08987" lon="7.19392">
        <ele>819</ele>
        <time>2011-06-06T12:44:19Z</time>
      </trkpt>
      <trkpt lat="48.08966" lon="7.19391">
        <ele>820</ele>
        <time>2011-06-06T12:44:27Z</time>
      </trkpt>
      <trkpt lat="48.0896" lon="7.19392">
        <ele>820</ele>
        <time>2011-06-06T12:44:30Z</time>
      </trkpt>
      <trkpt lat="48.08975" lon="7.19404">
        <ele>818</ele>
        <time>2011-06-06T12:44:37Z</time>
      </trkpt>
      <trkpt lat="48.09002" lon="7.19426">
        <ele>810</ele>
        <time>2011-06-06T12:44:49Z</time>
      </trkpt>
      <trkpt lat="48.09021" lon="7.19446">
        <ele>806</ele>
        <time>2011-06-06T12:44:58Z</time>
      </trkpt>
      <trkpt lat="48.09044" lon="7.19501">
        <ele>797</ele>
        <time>2011-06-06T12:45:16Z</time>
      </trkpt>
      <trkpt lat="48.09065" lon="7.19593">
        <ele>792</ele>
        <time>2011-06-06T12:45:42Z</time>
      </trkpt>
      <trkpt lat="48.09087" lon="7.19648">
        <ele>791</ele>
        <time>2011-06-06T12:45:59Z</time>
      </trkpt>
      <trkpt lat="48.09096" lon="7.19672">
        <ele>790</ele>
        <time>2011-06-06T12:46:06Z</time>
      </trkpt>
      <trkpt lat="48.09107" lon="7.19747">
        <ele>787</ele>
        <time>2011-06-06T12:46:27Z</time>
      </trkpt>
      <trkpt lat="48.09113" lon="7.19792">
        <ele>787</ele>
        <time>2011-06-06T12:46:39Z</time>
      </trkpt>
      <trkpt lat="48.09136" lon="7.19863">
        <ele>787</ele>
        <time>2011-06-06T12:47:00Z</time>
      </trkpt>
      <trkpt lat="48.09157" lon="7.19952">
        <ele>784</ele>
        <time>2011-06-06T12:47:26Z</time>
      </trkpt>
      <trkpt lat="48.09159" lon="7.19963">
        <ele>784</ele>
        <time>2011-06-06T12:47:28Z</time>
      </trkpt>
      <trkpt lat="48.09163" lon="7.19976">
        <ele>784</ele>
        <time>2011-06-06T12:47:32Z</time>
      </trkpt>
      <trkpt lat="48.09163" lon="7.19971">
        <ele>784</ele>
        <time>2011-06-06T12:47:33Z</time>
      </trkpt>
      <trkpt lat="48.09157" lon="7.19939">
        <ele>785</ele>
        <time>2011-06-06T12:47:42Z</time>
      </trkpt>
      <trkpt lat="48.09143" lon="7.19882">
        <ele>786</ele>
        <time>2011-06-06T12:47:59Z</time>
      </trkpt>
      <trkpt lat="48.09141" lon="7.19875">
        <ele>786</ele>
        <time>2011-06-06T12:48:01Z</time>
      </trkpt>
      <trkpt lat="48.09137" lon="7.19855">
        <ele>787</ele>
        <time>2011-06-06T12:48:06Z</time>
      </trkpt>
      <trkpt lat="48.09144" lon="7.19865">
        <ele>787</ele>
        <time>2011-06-06T12:48:10Z</time>
      </trkpt>
      <trkpt lat="48.09147" lon="7.1987">
        <ele>787</ele>
        <time>2011-06-06T12:48:12Z</time>
      </trkpt>
      <trkpt lat="48.09154" lon="7.19884">
        <ele>787</ele>
        <time>2011-06-06T12:48:16Z</time>
      </trkpt>
      <trkpt lat="48.09166" lon="7.19902">
        <ele>788</ele>
        <time>2011-06-06T12:48:23Z</time>
      </trkpt>
      <trkpt lat="48.0919" lon="7.19946">
        <ele>794</ele>
        <time>2011-06-06T12:48:39Z</time>
      </trkpt>
      <trkpt lat="48.09192" lon="7.19952">
        <ele>794</ele>
        <time>2011-06-06T12:48:40Z</time>
      </trkpt>
      <trkpt lat="48.092" lon="7.19983">
        <ele>794</ele>
        <time>2011-06-06T12:48:49Z</time>
      </trkpt>
      <trkpt lat="48.09205" lon="7.20007">
        <ele>795</ele>
        <time>2011-06-06T12:48:56Z</time>
      </trkpt>
      <trkpt lat="48.09209" lon="7.20018">
        <ele>795</ele>
        <time>2011-06-06T12:48:59Z</time>
      </trkpt>
      <trkpt lat="48.09217" lon="7.20047">
        <ele>796</ele>
        <time>2011-06-06T12:49:08Z</time>
      </trkpt>
      <trkpt lat="48.09225" lon="7.2007">
        <ele>797</ele>
        <time>2011-06-06T12:49:14Z</time>
      </trkpt>
      <trkpt lat="48.09232" lon="7.20087">
        <ele>797</ele>
        <time>2011-06-06T12:49:20Z</time>
      </trkpt>
      <trkpt lat="48.09248" lon="7.20128">
        <ele>796</ele>
        <time>2011-06-06T12:49:33Z</time>
      </trkpt>
      <trkpt lat="48.09251" lon="7.20136">
        <ele>798</ele>
        <time>2011-06-06T12:49:35Z</time>
      </trkpt>
      <trkpt lat="48.0926" lon="7.20174">
        <ele>796</ele>
        <time>2011-06-06T12:49:46Z</time>
      </trkpt>
      <trkpt lat="48.09274" lon="7.20221">
        <ele>792</ele>
        <time>2011-06-06T12:50:00Z</time>
      </trkpt>
      <trkpt lat="48.09276" lon="7.20228">
        <ele>792</ele>
        <time>2011-06-06T12:50:02Z</time>
      </trkpt>
      <trkpt lat="48.09282" lon="7.20274">
        <ele>787</ele>
        <time>2011-06-06T12:50:14Z</time>
      </trkpt>
      <trkpt lat="48.0928" lon="7.20283">
        <ele>786</ele>
        <time>2011-06-06T12:50:17Z</time>
      </trkpt>
      <trkpt lat="48.09277" lon="7.20328">
        <ele>785</ele>
        <time>2011-06-06T12:50:29Z</time>
      </trkpt>
      <trkpt lat="48.09273" lon="7.20353">
        <ele>782</ele>
        <time>2011-06-06T12:50:36Z</time>
      </trkpt>
      <trkpt lat="48.09275" lon="7.20383">
        <ele>781</ele>
        <time>2011-06-06T12:50:44Z</time>
      </trkpt>
      <trkpt lat="48.09278" lon="7.20403">
        <ele>781</ele>
        <time>2011-06-06T12:50:49Z</time>
      </trkpt>
      <trkpt lat="48.09285" lon="7.20437">
        <ele>781</ele>
        <time>2011-06-06T12:50:59Z</time>
      </trkpt>
      <trkpt lat="48.09287" lon="7.20444">
        <ele>781</ele>
        <time>2011-06-06T12:51:01Z</time>
      </trkpt>
      <trkpt lat="48.09299" lon="7.20477">
        <ele>781</ele>
        <time>2011-06-06T12:51:11Z</time>
      </trkpt>
      <trkpt lat="48.09307" lon="7.20502">
        <ele>780</ele>
        <time>2011-06-06T12:51:18Z</time>
      </trkpt>
      <trkpt lat="48.09308" lon="7.2051">
        <ele>780</ele>
        <time>2011-06-06T12:51:20Z</time>
      </trkpt>
      <trkpt lat="48.09312" lon="7.20535">
        <ele>780</ele>
        <time>2011-06-06T12:51:27Z</time>
      </trkpt>
      <trkpt lat="48.09308" lon="7.20581">
        <ele>778</ele>
        <time>2011-06-06T12:51:39Z</time>
      </trkpt>
      <trkpt lat="48.09293" lon="7.20606">
        <ele>777</ele>
        <time>2011-06-06T12:51:48Z</time>
      </trkpt>
      <trkpt lat="48.09284" lon="7.20615">
        <ele>777</ele>
        <time>2011-06-06T12:51:53Z</time>
      </trkpt>
      <trkpt lat="48.09272" lon="7.20637">
        <ele>777</ele>
        <time>2011-06-06T12:52:00Z</time>
      </trkpt>
      <trkpt lat="48.09268" lon="7.20654">
        <ele>777</ele>
        <time>2011-06-06T12:52:05Z</time>
      </trkpt>
      <trkpt lat="48.09273" lon="7.20667">
        <ele>776</ele>
        <time>2011-06-06T12:52:09Z</time>
      </trkpt>
      <trkpt lat="48.09277" lon="7.20676">
        <ele>776</ele>
        <time>2011-06-06T12:52:12Z</time>
      </trkpt>
      <trkpt lat="48.09297" lon="7.20702">
        <ele>776</ele>
        <time>2011-06-06T12:52:23Z</time>
      </trkpt>
      <trkpt lat="48.09316" lon="7.2074">
        <ele>776</ele>
        <time>2011-06-06T12:52:35Z</time>
      </trkpt>
      <trkpt lat="48.09319" lon="7.20747">
        <ele>776</ele>
        <time>2011-06-06T12:52:38Z</time>
      </trkpt>
      <trkpt lat="48.09332" lon="7.20765">
        <ele>775</ele>
        <time>2011-06-06T12:52:45Z</time>
      </trkpt>
      <trkpt lat="48.09364" lon="7.20811">
        <ele>773</ele>
        <time>2011-06-06T12:53:02Z</time>
      </trkpt>
      <trkpt lat="48.09394" lon="7.20845">
        <ele>772</ele>
        <time>2011-06-06T12:53:18Z</time>
      </trkpt>
      <trkpt lat="48.09415" lon="7.2087">
        <ele>771</ele>
        <time>2011-06-06T12:53:28Z</time>
      </trkpt>
      <trkpt lat="48.09439" lon="7.20895">
        <ele>767</ele>
        <time>2011-06-06T12:53:40Z</time>
      </trkpt>
      <trkpt lat="48.09443" lon="7.209">
        <ele>767</ele>
        <time>2011-06-06T12:53:42Z</time>
      </trkpt>
      <trkpt lat="48.09468" lon="7.20929">
        <ele>763</ele>
        <time>2011-06-06T12:53:55Z</time>
      </trkpt>
      <trkpt lat="48.09473" lon="7.20936">
        <ele>763</ele>
        <time>2011-06-06T12:53:57Z</time>
      </trkpt>
      <trkpt lat="48.09496" lon="7.20974">
        <ele>762</ele>
        <time>2011-06-06T12:54:11Z</time>
      </trkpt>
      <trkpt lat="48.09508" lon="7.20992">
        <ele>759</ele>
        <time>2011-06-06T12:54:18Z</time>
      </trkpt>
      <trkpt lat="48.09526" lon="7.2102">
        <ele>756</ele>
        <time>2011-06-06T12:54:28Z</time>
      </trkpt>
      <trkpt lat="48.0953" lon="7.21025">
        <ele>756</ele>
        <time>2011-06-06T12:54:30Z</time>
      </trkpt>
      <trkpt lat="48.09547" lon="7.21053">
        <ele>755</ele>
        <time>2011-06-06T12:54:41Z</time>
      </trkpt>
      <trkpt lat="48.09559" lon="7.21067">
        <ele>754</ele>
        <time>2011-06-06T12:54:47Z</time>
      </trkpt>
      <trkpt lat="48.09576" lon="7.21098">
        <ele>752</ele>
        <time>2011-06-06T12:54:58Z</time>
      </trkpt>
      <trkpt lat="48.09587" lon="7.21119">
        <ele>752</ele>
        <time>2011-06-06T12:55:05Z</time>
      </trkpt>
      <trkpt lat="48.09602" lon="7.21153">
        <ele>751</ele>
        <time>2011-06-06T12:55:15Z</time>
      </trkpt>
      <trkpt lat="48.09607" lon="7.21168">
        <ele>749</ele>
        <time>2011-06-06T12:55:20Z</time>
      </trkpt>
      <trkpt lat="48.09616" lon="7.21205">
        <ele>747</ele>
        <time>2011-06-06T12:55:30Z</time>
      </trkpt>
      <trkpt lat="48.09617" lon="7.21213">
        <ele>747</ele>
        <time>2011-06-06T12:55:33Z</time>
      </trkpt>
      <trkpt lat="48.09619" lon="7.21227">
        <ele>747</ele>
        <time>2011-06-06T12:55:37Z</time>
      </trkpt>
      <trkpt lat="48.09629" lon="7.21268">
        <ele>740</ele>
        <time>2011-06-06T12:55:48Z</time>
      </trkpt>
      <trkpt lat="48.09631" lon="7.21283">
        <ele>739</ele>
        <time>2011-06-06T12:55:52Z</time>
      </trkpt>
      <trkpt lat="48.09638" lon="7.21303">
        <ele>738</ele>
        <time>2011-06-06T12:55:58Z</time>
      </trkpt>
      <trkpt lat="48.09641" lon="7.21341">
        <ele>730</ele>
        <time>2011-06-06T12:56:09Z</time>
      </trkpt>
      <trkpt lat="48.09638" lon="7.21361">
        <ele>729</ele>
        <time>2011-06-06T12:56:14Z</time>
      </trkpt>
      <trkpt lat="48.09634" lon="7.21377">
        <ele>728</ele>
        <time>2011-06-06T12:56:19Z</time>
      </trkpt>
      <trkpt lat="48.09635" lon="7.21407">
        <ele>726</ele>
        <time>2011-06-06T12:56:27Z</time>
      </trkpt>
      <trkpt lat="48.09637" lon="7.21427">
        <ele>719</ele>
        <time>2011-06-06T12:56:32Z</time>
      </trkpt>
      <trkpt lat="48.09638" lon="7.21431">
        <ele>719</ele>
        <time>2011-06-06T12:56:33Z</time>
      </trkpt>
      <trkpt lat="48.09651" lon="7.21466">
        <ele>717</ele>
        <time>2011-06-06T12:56:44Z</time>
      </trkpt>
      <trkpt lat="48.09654" lon="7.21474">
        <ele>716</ele>
        <time>2011-06-06T12:56:46Z</time>
      </trkpt>
      <trkpt lat="48.09668" lon="7.21518">
        <ele>712</ele>
        <time>2011-06-06T12:57:00Z</time>
      </trkpt>
      <trkpt lat="48.09673" lon="7.2156">
        <ele>709</ele>
        <time>2011-06-06T12:57:11Z</time>
      </trkpt>
      <trkpt lat="48.09685" lon="7.21602">
        <ele>704</ele>
        <time>2011-06-06T12:57:23Z</time>
      </trkpt>
      <trkpt lat="48.09701" lon="7.2164">
        <ele>702</ele>
        <time>2011-06-06T12:57:35Z</time>
      </trkpt>
      <trkpt lat="48.09704" lon="7.21649">
        <ele>701</ele>
        <time>2011-06-06T12:57:38Z</time>
      </trkpt>
      <trkpt lat="48.09712" lon="7.21666">
        <ele>701</ele>
        <time>2011-06-06T12:57:43Z</time>
      </trkpt>
      <trkpt lat="48.0973" lon="7.21725">
        <ele>694</ele>
        <time>2011-06-06T12:58:01Z</time>
      </trkpt>
      <trkpt lat="48.09738" lon="7.2174">
        <ele>693</ele>
        <time>2011-06-06T12:58:06Z</time>
      </trkpt>
      <trkpt lat="48.0975" lon="7.21759">
        <ele>692</ele>
        <time>2011-06-06T12:58:13Z</time>
      </trkpt>
      <trkpt lat="48.09762" lon="7.21785">
        <ele>689</ele>
        <time>2011-06-06T12:58:21Z</time>
      </trkpt>
      <trkpt lat="48.09773" lon="7.21835">
        <ele>688</ele>
        <time>2011-06-06T12:58:35Z</time>
      </trkpt>
      <trkpt lat="48.09786" lon="7.21884">
        <ele>687</ele>
        <time>2011-06-06T12:58:49Z</time>
      </trkpt>
      <trkpt lat="48.098" lon="7.21921">
        <ele>687</ele>
        <time>2011-06-06T12:59:01Z</time>
      </trkpt>
      <trkpt lat="48.09817" lon="7.21984">
        <ele>687</ele>
        <time>2011-06-06T12:59:19Z</time>
      </trkpt>
      <trkpt lat="48.09819" lon="7.22013">
        <ele>686</ele>
        <time>2011-06-06T12:59:27Z</time>
      </trkpt>
      <trkpt lat="48.09823" lon="7.22108">
        <ele>681</ele>
        <time>2011-06-06T12:59:52Z</time>
      </trkpt>
      <trkpt lat="48.09823" lon="7.22118">
        <ele>680</ele>
        <time>2011-06-06T12:59:55Z</time>
      </trkpt>
      <trkpt lat="48.09831" lon="7.22191">
        <ele>674</ele>
        <time>2011-06-06T13:00:15Z</time>
      </trkpt>
      <trkpt lat="48.09845" lon="7.22264">
        <ele>686</ele>
        <time>2011-06-06T13:00:35Z</time>
      </trkpt>
      <trkpt lat="48.09847" lon="7.22297">
        <ele>688</ele>
        <time>2011-06-06T13:00:44Z</time>
      </trkpt>
      <trkpt lat="48.09846" lon="7.2232">
        <ele>686</ele>
        <time>2011-06-06T13:00:50Z</time>
      </trkpt>
      <trkpt lat="48.09835" lon="7.22371">
        <ele>689</ele>
        <time>2011-06-06T13:01:04Z</time>
      </trkpt>
      <trkpt lat="48.09819" lon="7.22431">
        <ele>676</ele>
        <time>2011-06-06T13:01:22Z</time>
      </trkpt>
      <trkpt lat="48.09813" lon="7.22461">
        <ele>673</ele>
        <time>2011-06-06T13:01:30Z</time>
      </trkpt>
      <trkpt lat="48.09812" lon="7.22467">
        <ele>673</ele>
        <time>2011-06-06T13:01:32Z</time>
      </trkpt>
      <trkpt lat="48.09812" lon="7.22468">
        <ele>673</ele>
        <time>2011-06-06T13:01:32Z</time>
      </trkpt>
      <trkpt lat="48.09811" lon="7.22488">
        <ele>675</ele>
        <time>2011-06-06T13:01:37Z</time>
      </trkpt>
      <trkpt lat="48.0981" lon="7.22529">
        <ele>673</ele>
        <time>2011-06-06T13:01:48Z</time>
      </trkpt>
      <trkpt lat="48.09809" lon="7.2256">
        <ele>673</ele>
        <time>2011-06-06T13:01:57Z</time>
      </trkpt>
      <trkpt lat="48.098" lon="7.2264">
        <ele>673</ele>
        <time>2011-06-06T13:02:18Z</time>
      </trkpt>
      <trkpt lat="48.09784" lon="7.22701">
        <ele>675</ele>
        <time>2011-06-06T13:02:36Z</time>
      </trkpt>
      <trkpt lat="48.0976" lon="7.22766">
        <ele>678</ele>
        <time>2011-06-06T13:02:56Z</time>
      </trkpt>
      <trkpt lat="48.09741" lon="7.22812">
        <ele>669</ele>
        <time>2011-06-06T13:03:10Z</time>
      </trkpt>
      <trkpt lat="48.09736" lon="7.22853">
        <ele>670</ele>
        <time>2011-06-06T13:03:21Z</time>
      </trkpt>
      <trkpt lat="48.09746" lon="7.2289">
        <ele>669</ele>
        <time>2011-06-06T13:03:32Z</time>
      </trkpt>
      <trkpt lat="48.0975" lon="7.22897">
        <ele>676</ele>
        <time>2011-06-06T13:03:35Z</time>
      </trkpt>
      <trkpt lat="48.09787" lon="7.22931">
        <ele>667</ele>
        <time>2011-06-06T13:03:52Z</time>
      </trkpt>
      <trkpt lat="48.09821" lon="7.2296">
        <ele>664</ele>
        <time>2011-06-06T13:04:07Z</time>
      </trkpt>
      <trkpt lat="48.09857" lon="7.22984">
        <ele>664</ele>
        <time>2011-06-06T13:04:23Z</time>
      </trkpt>
      <trkpt lat="48.09909" lon="7.23012">
        <ele>657</ele>
        <time>2011-06-06T13:04:45Z</time>
      </trkpt>
      <trkpt lat="48.09939" lon="7.23027">
        <ele>660</ele>
        <time>2011-06-06T13:04:58Z</time>
      </trkpt>
      <trkpt lat="48.09956" lon="7.23047">
        <ele>659</ele>
        <time>2011-06-06T13:05:07Z</time>
      </trkpt>
      <trkpt lat="48.09971" lon="7.2309">
        <ele>656</ele>
        <time>2011-06-06T13:05:20Z</time>
      </trkpt>
      <trkpt lat="48.09985" lon="7.23147">
        <ele>655</ele>
        <time>2011-06-06T13:05:36Z</time>
      </trkpt>
      <trkpt lat="48.09987" lon="7.23157">
        <ele>655</ele>
        <time>2011-06-06T13:05:39Z</time>
      </trkpt>
      <trkpt lat="48.09987" lon="7.23227">
        <ele>651</ele>
        <time>2011-06-06T13:05:57Z</time>
      </trkpt>
      <trkpt lat="48.09983" lon="7.23259">
        <ele>652</ele>
        <time>2011-06-06T13:06:06Z</time>
      </trkpt>
      <trkpt lat="48.09966" lon="7.23307">
        <ele>650</ele>
        <time>2011-06-06T13:06:21Z</time>
      </trkpt>
      <trkpt lat="48.09942" lon="7.23357">
        <ele>648</ele>
        <time>2011-06-06T13:06:37Z</time>
      </trkpt>
      <trkpt lat="48.09933" lon="7.23402">
        <ele>647</ele>
        <time>2011-06-06T13:06:49Z</time>
      </trkpt>
      <trkpt lat="48.09941" lon="7.23431">
        <ele>648</ele>
        <time>2011-06-06T13:06:58Z</time>
      </trkpt>
      <trkpt lat="48.09942" lon="7.2345">
        <ele>648</ele>
        <time>2011-06-06T13:07:03Z</time>
      </trkpt>
      <trkpt lat="48.09929" lon="7.23447">
        <ele>647</ele>
        <time>2011-06-06T13:07:08Z</time>
      </trkpt>
      <trkpt lat="48.09922" lon="7.23429">
        <ele>645</ele>
        <time>2011-06-06T13:07:14Z</time>
      </trkpt>
      <trkpt lat="48.09919" lon="7.23384">
        <ele>647</ele>
        <time>2011-06-06T13:07:26Z</time>
      </trkpt>
      <trkpt lat="48.09915" lon="7.23332">
        <ele>637</ele>
        <time>2011-06-06T13:07:40Z</time>
      </trkpt>
      <trkpt lat="48.09903" lon="7.23329">
        <ele>632</ele>
        <time>2011-06-06T13:07:45Z</time>
      </trkpt>
      <trkpt lat="48.09893" lon="7.23341">
        <ele>633</ele>
        <time>2011-06-06T13:07:50Z</time>
      </trkpt>
      <trkpt lat="48.09889" lon="7.23362">
        <ele>632</ele>
        <time>2011-06-06T13:07:55Z</time>
      </trkpt>
      <trkpt lat="48.09884" lon="7.2342">
        <ele>634</ele>
        <time>2011-06-06T13:08:11Z</time>
      </trkpt>
      <trkpt lat="48.0989" lon="7.23467">
        <ele>634</ele>
        <time>2011-06-06T13:08:24Z</time>
      </trkpt>
      <trkpt lat="48.09902" lon="7.23507">
        <ele>632</ele>
        <time>2011-06-06T13:08:36Z</time>
      </trkpt>
      <trkpt lat="48.09903" lon="7.23517">
        <ele>630</ele>
        <time>2011-06-06T13:08:38Z</time>
      </trkpt>
      <trkpt lat="48.09909" lon="7.23538">
        <ele>627</ele>
        <time>2011-06-06T13:08:45Z</time>
      </trkpt>
      <trkpt lat="48.09921" lon="7.23558">
        <ele>635</ele>
        <time>2011-06-06T13:08:52Z</time>
      </trkpt>
      <trkpt lat="48.09929" lon="7.23578">
        <ele>632</ele>
        <time>2011-06-06T13:08:58Z</time>
      </trkpt>
      <trkpt lat="48.0993" lon="7.23583">
        <ele>632</ele>
        <time>2011-06-06T13:08:59Z</time>
      </trkpt>
      <trkpt lat="48.09936" lon="7.23598">
        <ele>628</ele>
        <time>2011-06-06T13:09:04Z</time>
      </trkpt>
      <trkpt lat="48.09936" lon="7.23618">
        <ele>627</ele>
        <time>2011-06-06T13:09:09Z</time>
      </trkpt>
      <trkpt lat="48.0994" lon="7.23626">
        <ele>627</ele>
        <time>2011-06-06T13:09:12Z</time>
      </trkpt>
      <trkpt lat="48.09951" lon="7.23659">
        <ele>625</ele>
        <time>2011-06-06T13:09:22Z</time>
      </trkpt>
      <trkpt lat="48.09956" lon="7.23671">
        <ele>619</ele>
        <time>2011-06-06T13:09:26Z</time>
      </trkpt>
      <trkpt lat="48.0995" lon="7.23693">
        <ele>617</ele>
        <time>2011-06-06T13:09:32Z</time>
      </trkpt>
      <trkpt lat="48.09926" lon="7.23721">
        <ele>612</ele>
        <time>2011-06-06T13:09:44Z</time>
      </trkpt>
      <trkpt lat="48.09911" lon="7.23742">
        <ele>601</ele>
        <time>2011-06-06T13:09:52Z</time>
      </trkpt>
      <trkpt lat="48.09904" lon="7.2375">
        <ele>599</ele>
        <time>2011-06-06T13:09:56Z</time>
      </trkpt>
      <trkpt lat="48.09896" lon="7.23766">
        <ele>596</ele>
        <time>2011-06-06T13:10:01Z</time>
      </trkpt>
      <trkpt lat="48.09891" lon="7.23769">
        <ele>595</ele>
        <time>2011-06-06T13:10:04Z</time>
      </trkpt>
      <trkpt lat="48.09879" lon="7.23784">
        <ele>593</ele>
        <time>2011-06-06T13:10:09Z</time>
      </trkpt>
      <trkpt lat="48.09868" lon="7.23795">
        <ele>592</ele>
        <time>2011-06-06T13:10:15Z</time>
      </trkpt>
      <trkpt lat="48.09854" lon="7.23815">
        <ele>590</ele>
        <time>2011-06-06T13:10:23Z</time>
      </trkpt>
      <trkpt lat="48.09849" lon="7.23829">
        <ele>588</ele>
        <time>2011-06-06T13:10:27Z</time>
      </trkpt>
      <trkpt lat="48.09839" lon="7.23875">
        <ele>589</ele>
        <time>2011-06-06T13:10:40Z</time>
      </trkpt>
      <trkpt lat="48.09839" lon="7.23932">
        <ele>584</ele>
        <time>2011-06-06T13:10:55Z</time>
      </trkpt>
      <trkpt lat="48.09839" lon="7.23952">
        <ele>583</ele>
        <time>2011-06-06T13:11:00Z</time>
      </trkpt>
      <trkpt lat="48.09842" lon="7.23975">
        <ele>581</ele>
        <time>2011-06-06T13:11:07Z</time>
      </trkpt>
      <trkpt lat="48.09843" lon="7.24004">
        <ele>576</ele>
        <time>2011-06-06T13:11:14Z</time>
      </trkpt>
      <trkpt lat="48.09847" lon="7.24027">
        <ele>578</ele>
        <time>2011-06-06T13:11:21Z</time>
      </trkpt>
      <trkpt lat="48.09845" lon="7.24068">
        <ele>578</ele>
        <time>2011-06-06T13:11:32Z</time>
      </trkpt>
      <trkpt lat="48.09833" lon="7.24081">
        <ele>576</ele>
        <time>2011-06-06T13:11:38Z</time>
      </trkpt>
      <trkpt lat="48.09797" lon="7.24105">
        <ele>571</ele>
        <time>2011-06-06T13:11:53Z</time>
      </trkpt>
      <trkpt lat="48.09777" lon="7.24114">
        <ele>569</ele>
        <time>2011-06-06T13:12:02Z</time>
      </trkpt>
      <trkpt lat="48.09758" lon="7.24128">
        <ele>568</ele>
        <time>2011-06-06T13:12:11Z</time>
      </trkpt>
      <trkpt lat="48.09742" lon="7.2415">
        <ele>561</ele>
        <time>2011-06-06T13:12:19Z</time>
      </trkpt>
      <trkpt lat="48.0972" lon="7.24166">
        <ele>558</ele>
        <time>2011-06-06T13:12:29Z</time>
      </trkpt>
      <trkpt lat="48.0968" lon="7.24173">
        <ele>561</ele>
        <time>2011-06-06T13:12:45Z</time>
      </trkpt>
      <trkpt lat="48.09659" lon="7.2418">
        <ele>551</ele>
        <time>2011-06-06T13:12:54Z</time>
      </trkpt>
      <trkpt lat="48.09644" lon="7.242">
        <ele>549</ele>
        <time>2011-06-06T13:13:02Z</time>
      </trkpt>
      <trkpt lat="48.09642" lon="7.24216">
        <ele>551</ele>
        <time>2011-06-06T13:13:06Z</time>
      </trkpt>
      <trkpt lat="48.09643" lon="7.24243">
        <ele>554</ele>
        <time>2011-06-06T13:13:13Z</time>
      </trkpt>
      <trkpt lat="48.09639" lon="7.2427">
        <ele>560</ele>
        <time>2011-06-06T13:13:21Z</time>
      </trkpt>
      <trkpt lat="48.09615" lon="7.24303">
        <ele>559</ele>
        <time>2011-06-06T13:13:34Z</time>
      </trkpt>
      <trkpt lat="48.09598" lon="7.24316">
        <ele>557</ele>
        <time>2011-06-06T13:13:41Z</time>
      </trkpt>
      <trkpt lat="48.09572" lon="7.2432">
        <ele>546</ele>
        <time>2011-06-06T13:13:52Z</time>
      </trkpt>
      <trkpt lat="48.09567" lon="7.24319">
        <ele>545</ele>
        <time>2011-06-06T13:13:54Z</time>
      </trkpt>
      <trkpt lat="48.09537" lon="7.24312">
        <ele>540</ele>
        <time>2011-06-06T13:14:06Z</time>
      </trkpt>
      <trkpt lat="48.09517" lon="7.2431">
        <ele>538</ele>
        <time>2011-06-06T13:14:14Z</time>
      </trkpt>
      <trkpt lat="48.09491" lon="7.24306">
        <ele>527</ele>
        <time>2011-06-06T13:14:24Z</time>
      </trkpt>
      <trkpt lat="48.09472" lon="7.24308">
        <ele>525</ele>
        <time>2011-06-06T13:14:32Z</time>
      </trkpt>
      <trkpt lat="48.09451" lon="7.2432">
        <ele>524</ele>
        <time>2011-06-06T13:14:41Z</time>
      </trkpt>
      <trkpt lat="48.09437" lon="7.24332">
        <ele>524</ele>
        <time>2011-06-06T13:14:47Z</time>
      </trkpt>
      <trkpt lat="48.09418" lon="7.24347">
        <ele>535</ele>
        <time>2011-06-06T13:14:56Z</time>
      </trkpt>
      <trkpt lat="48.094" lon="7.24353">
        <ele>533</ele>
        <time>2011-06-06T13:15:04Z</time>
      </trkpt>
      <trkpt lat="48.09377" lon="7.24348">
        <ele>534</ele>
        <time>2011-06-06T13:15:13Z</time>
      </trkpt>
      <trkpt lat="48.09372" lon="7.24346">
        <ele>533</ele>
        <time>2011-06-06T13:15:15Z</time>
      </trkpt>
      <trkpt lat="48.09363" lon="7.24342">
        <ele>532</ele>
        <time>2011-06-06T13:15:19Z</time>
      </trkpt>
      <trkpt lat="48.09334" lon="7.24324">
        <ele>519</ele>
        <time>2011-06-06T13:15:31Z</time>
      </trkpt>
      <trkpt lat="48.0931" lon="7.24309">
        <ele>516</ele>
        <time>2011-06-06T13:15:42Z</time>
      </trkpt>
      <trkpt lat="48.09288" lon="7.24295">
        <ele>514</ele>
        <time>2011-06-06T13:15:51Z</time>
      </trkpt>
      <trkpt lat="48.09263" lon="7.24276">
        <ele>511</ele>
        <time>2011-06-06T13:16:03Z</time>
      </trkpt>
      <trkpt lat="48.09245" lon="7.24258">
        <ele>509</ele>
        <time>2011-06-06T13:16:11Z</time>
      </trkpt>
      <trkpt lat="48.09212" lon="7.24229">
        <ele>501</ele>
        <time>2011-06-06T13:16:26Z</time>
      </trkpt>
      <trkpt lat="48.09192" lon="7.24216">
        <ele>501</ele>
        <time>2011-06-06T13:16:35Z</time>
      </trkpt>
      <trkpt lat="48.09165" lon="7.24199">
        <ele>502</ele>
        <time>2011-06-06T13:16:47Z</time>
      </trkpt>
      <trkpt lat="48.09152" lon="7.24191">
        <ele>501</ele>
        <time>2011-06-06T13:16:53Z</time>
      </trkpt>
      <trkpt lat="48.09124" lon="7.24181">
        <ele>500</ele>
        <time>2011-06-06T13:17:04Z</time>
      </trkpt>
      <trkpt lat="48.09089" lon="7.24171">
        <ele>495</ele>
        <time>2011-06-06T13:17:18Z</time>
      </trkpt>
      <trkpt lat="48.09066" lon="7.24171">
        <ele>491</ele>
        <time>2011-06-06T13:17:27Z</time>
      </trkpt>
      <trkpt lat="48.09052" lon="7.24175">
        <ele>490</ele>
        <time>2011-06-06T13:17:33Z</time>
      </trkpt>
      <trkpt lat="48.09027" lon="7.24193">
        <ele>487</ele>
        <time>2011-06-06T13:17:44Z</time>
      </trkpt>
      <trkpt lat="48.09019" lon="7.24203">
        <ele>487</ele>
        <time>2011-06-06T13:17:48Z</time>
      </trkpt>
      <trkpt lat="48.09003" lon="7.24233">
        <ele>487</ele>
        <time>2011-06-06T13:17:59Z</time>
      </trkpt>
      <trkpt lat="48.08998" lon="7.2425">
        <ele>483</ele>
        <time>2011-06-06T13:18:04Z</time>
      </trkpt>
      <trkpt lat="48.08996" lon="7.24283">
        <ele>474</ele>
        <time>2011-06-06T13:18:13Z</time>
      </trkpt>
      <trkpt lat="48.08996" lon="7.24303">
        <ele>474</ele>
        <time>2011-06-06T13:18:18Z</time>
      </trkpt>
      <trkpt lat="48.08996" lon="7.24344">
        <ele>476</ele>
        <time>2011-06-06T13:18:29Z</time>
      </trkpt>
      <trkpt lat="48.08999" lon="7.24364">
        <ele>470</ele>
        <time>2011-06-06T13:18:34Z</time>
      </trkpt>
      <trkpt lat="48.09004" lon="7.24374">
        <ele>489</ele>
        <time>2011-06-06T13:18:38Z</time>
      </trkpt>
      <trkpt lat="48.09012" lon="7.24412">
        <ele>483</ele>
        <time>2011-06-06T13:18:48Z</time>
      </trkpt>
      <trkpt lat="48.09016" lon="7.24437">
        <ele>481</ele>
        <time>2011-06-06T13:18:55Z</time>
      </trkpt>
      <trkpt lat="48.09017" lon="7.24455">
        <ele>480</ele>
        <time>2011-06-06T13:19:00Z</time>
      </trkpt>
      <trkpt lat="48.09023" lon="7.24484">
        <ele>477</ele>
        <time>2011-06-06T13:19:08Z</time>
      </trkpt>
      <trkpt lat="48.09037" lon="7.24497">
        <ele>480</ele>
        <time>2011-06-06T13:19:14Z</time>
      </trkpt>
      <trkpt lat="48.09049" lon="7.24508">
        <ele>473</ele>
        <time>2011-06-06T13:19:20Z</time>
      </trkpt>
      <trkpt lat="48.09056" lon="7.24539">
        <ele>471</ele>
        <time>2011-06-06T13:19:29Z</time>
      </trkpt>
      <trkpt lat="48.09058" lon="7.24545">
        <ele>470</ele>
        <time>2011-06-06T13:19:31Z</time>
      </trkpt>
      <trkpt lat="48.09063" lon="7.24557">
        <ele>470</ele>
        <time>2011-06-06T13:19:35Z</time>
      </trkpt>
      <trkpt lat="48.09065" lon="7.24597">
        <ele>463</ele>
        <time>2011-06-06T13:19:45Z</time>
      </trkpt>
      <trkpt lat="48.09066" lon="7.24632">
        <ele>459</ele>
        <time>2011-06-06T13:19:54Z</time>
      </trkpt>
      <trkpt lat="48.09068" lon="7.24654">
        <ele>461</ele>
        <time>2011-06-06T13:20:01Z</time>
      </trkpt>
      <trkpt lat="48.09065" lon="7.24685">
        <ele>456</ele>
        <time>2011-06-06T13:20:09Z</time>
      </trkpt>
      <trkpt lat="48.09065" lon="7.24704">
        <ele>454</ele>
        <time>2011-06-06T13:20:14Z</time>
      </trkpt>
      <trkpt lat="48.09066" lon="7.24721">
        <ele>453</ele>
        <time>2011-06-06T13:20:19Z</time>
      </trkpt>
      <trkpt lat="48.09062" lon="7.24745">
        <ele>454</ele>
        <time>2011-06-06T13:20:25Z</time>
      </trkpt>
      <trkpt lat="48.09061" lon="7.24755">
        <ele>450</ele>
        <time>2011-06-06T13:20:28Z</time>
      </trkpt>
      <trkpt lat="48.09069" lon="7.24765">
        <ele>451</ele>
        <time>2011-06-06T13:20:32Z</time>
      </trkpt>
      <trkpt lat="48.09072" lon="7.24769">
        <ele>451</ele>
        <time>2011-06-06T13:20:34Z</time>
      </trkpt>
      <trkpt lat="48.09089" lon="7.24794">
        <ele>460</ele>
        <time>2011-06-06T13:20:43Z</time>
      </trkpt>
      <trkpt lat="48.09101" lon="7.24814">
        <ele>458</ele>
        <time>2011-06-06T13:20:50Z</time>
      </trkpt>
      <trkpt lat="48.09108" lon="7.2482">
        <ele>458</ele>
        <time>2011-06-06T13:20:53Z</time>
      </trkpt>
      <trkpt lat="48.09114" lon="7.24828">
        <ele>459</ele>
        <time>2011-06-06T13:20:57Z</time>
      </trkpt>
      <trkpt lat="48.09131" lon="7.24848">
        <ele>446</ele>
        <time>2011-06-06T13:21:05Z</time>
      </trkpt>
      <trkpt lat="48.09141" lon="7.24859">
        <ele>446</ele>
        <time>2011-06-06T13:21:10Z</time>
      </trkpt>
      <trkpt lat="48.0916" lon="7.24864">
        <ele>447</ele>
        <time>2011-06-06T13:21:18Z</time>
      </trkpt>
      <trkpt lat="48.09171" lon="7.24876">
        <ele>456</ele>
        <time>2011-06-06T13:21:24Z</time>
      </trkpt>
      <trkpt lat="48.09174" lon="7.24881">
        <ele>455</ele>
        <time>2011-06-06T13:21:25Z</time>
      </trkpt>
      <trkpt lat="48.09176" lon="7.24907">
        <ele>446</ele>
        <time>2011-06-06T13:21:32Z</time>
      </trkpt>
      <trkpt lat="48.09177" lon="7.24947">
        <ele>437</ele>
        <time>2011-06-06T13:21:43Z</time>
      </trkpt>
      <trkpt lat="48.0918" lon="7.24984">
        <ele>431</ele>
        <time>2011-06-06T13:21:53Z</time>
      </trkpt>
      <trkpt lat="48.09183" lon="7.24998">
        <ele>429</ele>
        <time>2011-06-06T13:21:57Z</time>
      </trkpt>
      <trkpt lat="48.09196" lon="7.25036">
        <ele>422</ele>
        <time>2011-06-06T13:22:08Z</time>
      </trkpt>
      <trkpt lat="48.09206" lon="7.25055">
        <ele>421</ele>
        <time>2011-06-06T13:22:15Z</time>
      </trkpt>
      <trkpt lat="48.09208" lon="7.25063">
        <ele>421</ele>
        <time>2011-06-06T13:22:17Z</time>
      </trkpt>
      <trkpt lat="48.09207" lon="7.25062">
        <ele>421</ele>
        <time>2011-06-06T13:22:18Z</time>
      </trkpt>
      <trkpt lat="48.09209" lon="7.25068">
        <ele>421</ele>
        <time>2011-06-06T13:22:19Z</time>
      </trkpt>
      <trkpt lat="48.09217" lon="7.25089">
        <ele>411</ele>
        <time>2011-06-06T13:22:26Z</time>
      </trkpt>
      <trkpt lat="48.09219" lon="7.25101">
        <ele>410</ele>
        <time>2011-06-06T13:22:29Z</time>
      </trkpt>
      <trkpt lat="48.09229" lon="7.25125">
        <ele>408</ele>
        <time>2011-06-06T13:22:37Z</time>
      </trkpt>
      <trkpt lat="48.0926" lon="7.2516">
        <ele>408</ele>
        <time>2011-06-06T13:22:52Z</time>
      </trkpt>
      <trkpt lat="48.09287" lon="7.25173">
        <ele>399</ele>
        <time>2011-06-06T13:23:04Z</time>
      </trkpt>
      <trkpt lat="48.09307" lon="7.25178">
        <ele>399</ele>
        <time>2011-06-06T13:23:12Z</time>
      </trkpt>
      <trkpt lat="48.09329" lon="7.25174">
        <ele>400</ele>
        <time>2011-06-06T13:23:21Z</time>
      </trkpt>
      <trkpt lat="48.09342" lon="7.25164">
        <ele>407</ele>
        <time>2011-06-06T13:23:26Z</time>
      </trkpt>
      <trkpt lat="48.09351" lon="7.25172">
        <ele>404</ele>
        <time>2011-06-06T13:23:31Z</time>
      </trkpt>
      <trkpt lat="48.09352" lon="7.25182">
        <ele>404</ele>
        <time>2011-06-06T13:23:34Z</time>
      </trkpt>
      <trkpt lat="48.09362" lon="7.25199">
        <ele>404</ele>
        <time>2011-06-06T13:23:39Z</time>
      </trkpt>
      <trkpt lat="48.09366" lon="7.25205">
        <ele>404</ele>
        <time>2011-06-06T13:23:42Z</time>
      </trkpt>
      <trkpt lat="48.09367" lon="7.25229">
        <ele>402</ele>
        <time>2011-06-06T13:23:48Z</time>
      </trkpt>
      <trkpt lat="48.09365" lon="7.25252">
        <ele>394</ele>
        <time>2011-06-06T13:23:54Z</time>
      </trkpt>
      <trkpt lat="48.09362" lon="7.25264">
        <ele>393</ele>
        <time>2011-06-06T13:23:58Z</time>
      </trkpt>
      <trkpt lat="48.0935" lon="7.2528">
        <ele>392</ele>
        <time>2011-06-06T13:24:04Z</time>
      </trkpt>
      <trkpt lat="48.09337" lon="7.25294">
        <ele>390</ele>
        <time>2011-06-06T13:24:11Z</time>
      </trkpt>
      <trkpt lat="48.09314" lon="7.25306">
        <ele>381</ele>
        <time>2011-06-06T13:24:20Z</time>
      </trkpt>
      <trkpt lat="48.09272" lon="7.25339">
        <ele>373</ele>
        <time>2011-06-06T13:24:39Z</time>
      </trkpt>
      <trkpt lat="48.09256" lon="7.25356">
        <ele>373</ele>
        <time>2011-06-06T13:24:47Z</time>
      </trkpt>
      <trkpt lat="48.09225" lon="7.25375">
        <ele>365</ele>
        <time>2011-06-06T13:25:00Z</time>
      </trkpt>
      <trkpt lat="48.09189" lon="7.25387">
        <ele>362</ele>
        <time>2011-06-06T13:25:15Z</time>
      </trkpt>
      <trkpt lat="48.09153" lon="7.25395">
        <ele>354</ele>
        <time>2011-06-06T13:25:30Z</time>
      </trkpt>
      <trkpt lat="48.09134" lon="7.25398">
        <ele>352</ele>
        <time>2011-06-06T13:25:37Z</time>
      </trkpt>
      <trkpt lat="48.09102" lon="7.25404">
        <ele>348</ele>
        <time>2011-06-06T13:25:50Z</time>
      </trkpt>
      <trkpt lat="48.09072" lon="7.25409">
        <ele>342</ele>
        <time>2011-06-06T13:26:03Z</time>
      </trkpt>
      <trkpt lat="48.0904" lon="7.25425">
        <ele>340</ele>
        <time>2011-06-06T13:26:16Z</time>
      </trkpt>
      <trkpt lat="48.0902" lon="7.25428">
        <ele>338</ele>
        <time>2011-06-06T13:26:24Z</time>
      </trkpt>
      <trkpt lat="48.09007" lon="7.25433">
        <ele>337</ele>
        <time>2011-06-06T13:26:29Z</time>
      </trkpt>
      <trkpt lat="48.08995" lon="7.25439">
        <ele>331</ele>
        <time>2011-06-06T13:26:35Z</time>
      </trkpt>
      <trkpt lat="48.0896" lon="7.25466">
        <ele>330</ele>
        <time>2011-06-06T13:26:50Z</time>
      </trkpt>
      <trkpt lat="48.08921" lon="7.25488">
        <ele>325</ele>
        <time>2011-06-06T13:27:07Z</time>
      </trkpt>
      <trkpt lat="48.08899" lon="7.25498">
        <ele>320</ele>
        <time>2011-06-06T13:27:16Z</time>
      </trkpt>
      <trkpt lat="48.08896" lon="7.255">
        <ele>319</ele>
        <time>2011-06-06T13:27:17Z</time>
      </trkpt>
      <trkpt lat="48.08891" lon="7.255">
        <ele>320</ele>
        <time>2011-06-06T13:27:19Z</time>
      </trkpt>
      <trkpt lat="48.08888" lon="7.25503">
        <ele>320</ele>
        <time>2011-06-06T13:27:21Z</time>
      </trkpt>
      <trkpt lat="48.08858" lon="7.25529">
        <ele>318</ele>
        <time>2011-06-06T13:27:35Z</time>
      </trkpt>
      <trkpt lat="48.08852" lon="7.25533">
        <ele>317</ele>
        <time>2011-06-06T13:27:37Z</time>
      </trkpt>
      <trkpt lat="48.08813" lon="7.25554">
        <ele>305</ele>
        <time>2011-06-06T13:27:54Z</time>
      </trkpt>
      <trkpt lat="48.08789" lon="7.25574">
        <ele>303</ele>
        <time>2011-06-06T13:28:05Z</time>
      </trkpt>
      <trkpt lat="48.08761" lon="7.25604">
        <ele>301</ele>
        <time>2011-06-06T13:28:19Z</time>
      </trkpt>
      <trkpt lat="48.08748" lon="7.25616">
        <ele>291</ele>
        <time>2011-06-06T13:28:25Z</time>
      </trkpt>
      <trkpt lat="48.08694" lon="7.25678">
        <ele>289</ele>
        <time>2011-06-06T13:28:52Z</time>
      </trkpt>
      <trkpt lat="48.08671" lon="7.25707">
        <ele>288</ele>
        <time>2011-06-06T13:29:04Z</time>
      </trkpt>
      <trkpt lat="48.08654" lon="7.25742">
        <ele>280</ele>
        <time>2011-06-06T13:29:16Z</time>
      </trkpt>
      <trkpt lat="48.08636" lon="7.25816">
        <ele>277</ele>
        <time>2011-06-06T13:29:37Z</time>
      </trkpt>
      <trkpt lat="48.08626" lon="7.25889">
        <ele>275</ele>
        <time>2011-06-06T13:29:57Z</time>
      </trkpt>
      <trkpt lat="48.08625" lon="7.25899">
        <ele>275</ele>
        <time>2011-06-06T13:29:59Z</time>
      </trkpt>
      <trkpt lat="48.08614" lon="7.25931">
        <ele>272</ele>
        <time>2011-06-06T13:30:09Z</time>
      </trkpt>
      <trkpt lat="48.08595" lon="7.25963">
        <ele>271</ele>
        <time>2011-06-06T13:30:21Z</time>
      </trkpt>
      <trkpt lat="48.08589" lon="7.25985">
        <ele>269</ele>
        <time>2011-06-06T13:30:27Z</time>
      </trkpt>
      <trkpt lat="48.08578" lon="7.26057">
        <ele>261</ele>
        <time>2011-06-06T13:30:46Z</time>
      </trkpt>
      <trkpt lat="48.0858" lon="7.2609">
        <ele>259</ele>
        <time>2011-06-06T13:30:55Z</time>
      </trkpt>
      <trkpt lat="48.08598" lon="7.26153">
        <ele>258</ele>
        <time>2011-06-06T13:31:14Z</time>
      </trkpt>
      <trkpt lat="48.08617" lon="7.26206">
        <ele>256</ele>
        <time>2011-06-06T13:31:30Z</time>
      </trkpt>
      <trkpt lat="48.0863" lon="7.26266">
        <ele>255</ele>
        <time>2011-06-06T13:31:47Z</time>
      </trkpt>
      <trkpt lat="48.08633" lon="7.26298">
        <ele>255</ele>
        <time>2011-06-06T13:31:55Z</time>
      </trkpt>
      <trkpt lat="48.08627" lon="7.26337">
        <ele>254</ele>
        <time>2011-06-06T13:32:06Z</time>
      </trkpt>
      <trkpt lat="48.08616" lon="7.26379">
        <ele>252</ele>
        <time>2011-06-06T13:32:18Z</time>
      </trkpt>
      <trkpt lat="48.08612" lon="7.26419">
        <ele>250</ele>
        <time>2011-06-06T13:32:29Z</time>
      </trkpt>
      <trkpt lat="48.08614" lon="7.26491">
        <ele>250</ele>
        <time>2011-06-06T13:32:48Z</time>
      </trkpt>
      <trkpt lat="48.08615" lon="7.26554">
        <ele>250</ele>
        <time>2011-06-06T13:33:05Z</time>
      </trkpt>
      <trkpt lat="48.08613" lon="7.26629">
        <ele>250</ele>
        <time>2011-06-06T13:33:25Z</time>
      </trkpt>
      <trkpt lat="48.08613" lon="7.26639">
        <ele>249</ele>
        <time>2011-06-06T13:33:28Z</time>
      </trkpt>
      <trkpt lat="48.0862" lon="7.26698">
        <ele>252</ele>
        <time>2011-06-06T13:33:44Z</time>
      </trkpt>
      <trkpt lat="48.08615" lon="7.26745">
        <ele>252</ele>
        <time>2011-06-06T13:33:56Z</time>
      </trkpt>
      <trkpt lat="48.08603" lon="7.26793">
        <ele>255</ele>
        <time>2011-06-06T13:34:10Z</time>
      </trkpt>
      <trkpt lat="48.08598" lon="7.26853">
        <ele>254</ele>
        <time>2011-06-06T13:34:26Z</time>
      </trkpt>
      <trkpt lat="48.08602" lon="7.26934">
        <ele>253</ele>
        <time>2011-06-06T13:34:48Z</time>
      </trkpt>
      <trkpt lat="48.08604" lon="7.26952">
        <ele>254</ele>
        <time>2011-06-06T13:34:53Z</time>
      </trkpt>
      <trkpt lat="48.08599" lon="7.26976">
        <ele>252</ele>
        <time>2011-06-06T13:34:59Z</time>
      </trkpt>
      <trkpt lat="48.08592" lon="7.26995">
        <ele>247</ele>
        <time>2011-06-06T13:35:05Z</time>
      </trkpt>
      <trkpt lat="48.08588" lon="7.27014">
        <ele>247</ele>
        <time>2011-06-06T13:35:11Z</time>
      </trkpt>
      <trkpt lat="48.08584" lon="7.27025">
        <ele>248</ele>
        <time>2011-06-06T13:35:14Z</time>
      </trkpt>
      <trkpt lat="48.08575" lon="7.27041">
        <ele>240</ele>
        <time>2011-06-06T13:35:19Z</time>
      </trkpt>
      <trkpt lat="48.08564" lon="7.2704">
        <ele>240</ele>
        <time>2011-06-06T13:35:24Z</time>
      </trkpt>
      <trkpt lat="48.08514" lon="7.27027">
        <ele>240</ele>
        <time>2011-06-06T13:35:44Z</time>
      </trkpt>
      <trkpt lat="48.08467" lon="7.2702">
        <ele>240</ele>
        <time>2011-06-06T13:36:03Z</time>
      </trkpt>
      <trkpt lat="48.0843" lon="7.27021">
        <ele>240</ele>
        <time>2011-06-06T13:36:18Z</time>
      </trkpt>
      <trkpt lat="48.08415" lon="7.27031">
        <ele>241</ele>
        <time>2011-06-06T13:36:24Z</time>
      </trkpt>
      <trkpt lat="48.08384" lon="7.2705">
        <ele>241</ele>
        <time>2011-06-06T13:36:38Z</time>
      </trkpt>
      <trkpt lat="48.08362" lon="7.27063">
        <ele>241</ele>
        <time>2011-06-06T13:36:47Z</time>
      </trkpt>
      <trkpt lat="48.08331" lon="7.27081">
        <ele>240</ele>
        <time>2011-06-06T13:37:01Z</time>
      </trkpt>
      <trkpt lat="48.08312" lon="7.27092">
        <ele>241</ele>
        <time>2011-06-06T13:37:09Z</time>
      </trkpt>
      <trkpt lat="48.08262" lon="7.27128">
        <ele>242</ele>
        <time>2011-06-06T13:37:31Z</time>
      </trkpt>
      <trkpt lat="48.08218" lon="7.2716">
        <ele>243</ele>
        <time>2011-06-06T13:37:51Z</time>
      </trkpt>
      <trkpt lat="48.08174" lon="7.27195">
        <ele>242</ele>
        <time>2011-06-06T13:38:10Z</time>
      </trkpt>
      <trkpt lat="48.0814" lon="7.27218">
        <ele>242</ele>
        <time>2011-06-06T13:38:26Z</time>
      </trkpt>
      <trkpt lat="48.08135" lon="7.27221">
        <ele>242</ele>
        <time>2011-06-06T13:38:28Z</time>
      </trkpt>
      <trkpt lat="48.08117" lon="7.27224">
        <ele>242</ele>
        <time>2011-06-06T13:38:35Z</time>
      </trkpt>
      <trkpt lat="48.08111" lon="7.27212">
        <ele>242</ele>
        <time>2011-06-06T13:38:39Z</time>
      </trkpt>
      <trkpt lat="48.0809" lon="7.27136">
        <ele>242</ele>
        <time>2011-06-06T13:39:01Z</time>
      </trkpt>
      <trkpt lat="48.08071" lon="7.27072">
        <ele>241</ele>
        <time>2011-06-06T13:39:20Z</time>
      </trkpt>
      <trkpt lat="48.08069" lon="7.27066">
        <ele>241</ele>
        <time>2011-06-06T13:39:22Z</time>
      </trkpt>
      <trkpt lat="48.08058" lon="7.27052">
        <ele>241</ele>
        <time>2011-06-06T13:39:27Z</time>
      </trkpt>
      <trkpt lat="48.08058" lon="7.27047">
        <ele>241</ele>
        <time>2011-06-06T13:39:29Z</time>
      </trkpt>
      <trkpt lat="48.08062" lon="7.27035">
        <ele>241</ele>
        <time>2011-06-06T13:39:32Z</time>
      </trkpt>
      <trkpt lat="48.08062" lon="7.27031">
        <ele>241</ele>
        <time>2011-06-06T13:39:34Z</time>
      </trkpt>
      <trkpt lat="48.0805" lon="7.26993">
        <ele>242</ele>
        <time>2011-06-06T13:39:45Z</time>
      </trkpt>
      <trkpt lat="48.08033" lon="7.2695">
        <ele>243</ele>
        <time>2011-06-06T13:39:58Z</time>
      </trkpt>
      <trkpt lat="48.08014" lon="7.26907">
        <ele>244</ele>
        <time>2011-06-06T13:40:12Z</time>
      </trkpt>
      <trkpt lat="48.08" lon="7.26885">
        <ele>244</ele>
        <time>2011-06-06T13:40:20Z</time>
      </trkpt>
      <trkpt lat="48.07983" lon="7.26868">
        <ele>245</ele>
        <time>2011-06-06T13:40:28Z</time>
      </trkpt>
      <trkpt lat="48.07963" lon="7.26862">
        <ele>245</ele>
        <time>2011-06-06T13:40:36Z</time>
      </trkpt>
      <trkpt lat="48.07921" lon="7.2687">
        <ele>245</ele>
        <time>2011-06-06T13:40:53Z</time>
      </trkpt>
      <trkpt lat="48.07896" lon="7.26858">
        <ele>245</ele>
        <time>2011-06-06T13:41:04Z</time>
      </trkpt>
      <trkpt lat="48.0789" lon="7.26845">
        <ele>245</ele>
        <time>2011-06-06T13:41:08Z</time>
      </trkpt>
      <trkpt lat="48.07871" lon="7.26778">
        <ele>247</ele>
        <time>2011-06-06T13:41:28Z</time>
      </trkpt>
      <trkpt lat="48.07856" lon="7.26726">
        <ele>248</ele>
        <time>2011-06-06T13:41:43Z</time>
      </trkpt>
      <trkpt lat="48.07841" lon="7.26701">
        <ele>248</ele>
        <time>2011-06-06T13:41:52Z</time>
      </trkpt>
      <trkpt lat="48.07823" lon="7.26683">
        <ele>248</ele>
        <time>2011-06-06T13:42:01Z</time>
      </trkpt>
      <trkpt lat="48.07817" lon="7.26672">
        <ele>249</ele>
        <time>2011-06-06T13:42:04Z</time>
      </trkpt>
      <trkpt lat="48.07811" lon="7.26666">
        <ele>249</ele>
        <time>2011-06-06T13:42:07Z</time>
      </trkpt>
      <trkpt lat="48.07811" lon="7.26667">
        <ele>249</ele>
        <time>2011-06-06T13:42:07Z</time>
      </trkpt>
      <trkpt lat="48.07804" lon="7.26672">
        <ele>248</ele>
        <time>2011-06-06T13:42:10Z</time>
      </trkpt>
      <trkpt lat="48.07803" lon="7.26677">
        <ele>248</ele>
        <time>2011-06-06T13:42:12Z</time>
      </trkpt>
      <trkpt lat="48.07797" lon="7.26722">
        <ele>248</ele>
        <time>2011-06-06T13:42:24Z</time>
      </trkpt>
      <trkpt lat="48.07792" lon="7.26754">
        <ele>247</ele>
        <time>2011-06-06T13:42:33Z</time>
      </trkpt>
      <trkpt lat="48.07777" lon="7.26762">
        <ele>247</ele>
        <time>2011-06-06T13:42:39Z</time>
      </trkpt>
      <trkpt lat="48.07752" lon="7.26767">
        <ele>247</ele>
        <time>2011-06-06T13:42:49Z</time>
      </trkpt>
      <trkpt lat="48.07722" lon="7.26771">
        <ele>247</ele>
        <time>2011-06-06T13:43:01Z</time>
      </trkpt>
      <trkpt lat="48.07697" lon="7.26776">
        <ele>247</ele>
        <time>2011-06-06T13:43:11Z</time>
      </trkpt>
      <trkpt lat="48.07661" lon="7.26775">
        <ele>255</ele>
        <time>2011-06-06T13:43:26Z</time>
      </trkpt>
      <trkpt lat="48.07654" lon="7.26769">
        <ele>255</ele>
        <time>2011-06-06T13:43:29Z</time>
      </trkpt>
      <trkpt lat="48.07638" lon="7.26719">
        <ele>256</ele>
        <time>2011-06-06T13:43:44Z</time>
      </trkpt>
      <trkpt lat="48.07627" lon="7.26694">
        <ele>258</ele>
        <time>2011-06-06T13:43:52Z</time>
      </trkpt>
      <trkpt lat="48.07606" lon="7.26642">
        <ele>258</ele>
        <time>2011-06-06T13:44:08Z</time>
      </trkpt>
      <trkpt lat="48.07586" lon="7.26596">
        <ele>257</ele>
        <time>2011-06-06T13:44:23Z</time>
      </trkpt>
      <trkpt lat="48.07574" lon="7.26567">
        <ele>260</ele>
        <time>2011-06-06T13:44:32Z</time>
      </trkpt>
      <trkpt lat="48.07578" lon="7.26542">
        <ele>260</ele>
        <time>2011-06-06T13:44:39Z</time>
      </trkpt>
      <trkpt lat="48.07578" lon="7.26516">
        <ele>257</ele>
        <time>2011-06-06T13:44:46Z</time>
      </trkpt>
      <trkpt lat="48.07567" lon="7.265">
        <ele>255</ele>
        <time>2011-06-06T13:44:52Z</time>
      </trkpt>
      <trkpt lat="48.07564" lon="7.26497">
        <ele>255</ele>
        <time>2011-06-06T13:44:53Z</time>
      </trkpt>
      <trkpt lat="48.07559" lon="7.26493">
        <ele>255</ele>
        <time>2011-06-06T13:44:55Z</time>
      </trkpt>
      <trkpt lat="48.07556" lon="7.26492">
        <ele>255</ele>
        <time>2011-06-06T13:44:57Z</time>
      </trkpt>
    </trkseg>
  </trk>
</gpx>